<?xml version="1.0" encoding="UTF-8" standalone="no" ?>
<gpx xmlns="http://www.topografix.com/GPX/1/1" xmlns:xsi="http://www.w3.org/2001/XMLSchema-instance" xsi:schemaLocation="http://www.topografix.com/GPX/1/1 http://www.topografix.com/GPX/1/1/gpx.xsd" version="1.1" creator="VisuGPX - https://www.visugpx.com">
  <metadata>
    <name>SGN - Chapelle de Fouillet</name>
    <desc><![CDATA[Boucle depuis Saint-Germain Nuelles jusqu'à la chapelle de Fouillet.]]></desc>
  </metadata>
  <trk>
    <name><![CDATA[SGN - Chapelle de Fouillet]]></name>
    <trkseg>
      <trkpt lat="45.85053" lon="4.61081">
        <ele>290</ele>
        <time>2020-10-09T06:40:44.000Z</time>
      </trkpt>
      <trkpt lat="45.85056" lon="4.61081">
        <ele>290.39999389648</ele>
        <time>2020-10-09T06:40:44.001Z</time>
      </trkpt>
      <trkpt lat="45.85057" lon="4.61082">
        <ele>290.20001220703</ele>
        <time>2020-10-09T06:40:44.003Z</time>
      </trkpt>
      <trkpt lat="45.85061" lon="4.61088">
        <ele>290.20001220703</ele>
        <time>2020-10-09T06:40:44.007Z</time>
      </trkpt>
      <trkpt lat="45.85061" lon="4.61093">
        <ele>290.39999389648</ele>
        <time>2020-10-09T06:40:44.013Z</time>
      </trkpt>
      <trkpt lat="45.85061" lon="4.61094">
        <ele>290.60000610352</ele>
        <time>2020-10-09T06:40:44.019Z</time>
      </trkpt>
      <trkpt lat="45.85061" lon="4.61095">
        <ele>290.60000610352</ele>
        <time>2020-10-09T06:40:44.026Z</time>
      </trkpt>
      <trkpt lat="45.85061" lon="4.61095">
        <ele>290.60000610352</ele>
        <time>2020-10-09T06:40:44.033Z</time>
      </trkpt>
      <trkpt lat="45.85061" lon="4.61095">
        <ele>291</ele>
        <time>2020-10-09T06:40:44.040Z</time>
      </trkpt>
      <trkpt lat="45.85063" lon="4.61097">
        <ele>291.20001220703</ele>
        <time>2020-10-09T06:40:44.048Z</time>
      </trkpt>
      <trkpt lat="45.85065" lon="4.61099">
        <ele>291.20001220703</ele>
        <time>2020-10-09T06:40:44.056Z</time>
      </trkpt>
      <trkpt lat="45.85073" lon="4.61106">
        <ele>291.20001220703</ele>
        <time>2020-10-09T06:40:44.069Z</time>
      </trkpt>
      <trkpt lat="45.85081" lon="4.61106">
        <ele>291.20001220703</ele>
        <time>2020-10-09T06:40:44.085Z</time>
      </trkpt>
      <trkpt lat="45.85095" lon="4.61104">
        <ele>291.20001220703</ele>
        <time>2020-10-09T06:40:44.107Z</time>
      </trkpt>
      <trkpt lat="45.85125" lon="4.61101">
        <ele>291</ele>
        <time>2020-10-09T06:40:44.142Z</time>
      </trkpt>
      <trkpt lat="45.85148" lon="4.61101">
        <ele>290.60000610352</ele>
        <time>2020-10-09T06:40:44.187Z</time>
      </trkpt>
      <trkpt lat="45.85152" lon="4.61101">
        <ele>290.60000610352</ele>
        <time>2020-10-09T06:40:44.233Z</time>
      </trkpt>
      <trkpt lat="45.85156" lon="4.61103">
        <ele>290.60000610352</ele>
        <time>2020-10-09T06:40:44.281Z</time>
      </trkpt>
      <trkpt lat="45.85167" lon="4.61111">
        <ele>290.60000610352</ele>
        <time>2020-10-09T06:40:44.334Z</time>
      </trkpt>
      <trkpt lat="45.85174" lon="4.6112">
        <ele>291</ele>
        <time>2020-10-09T06:40:44.391Z</time>
      </trkpt>
      <trkpt lat="45.85177" lon="4.61124">
        <ele>291.20001220703</ele>
        <time>2020-10-09T06:40:44.450Z</time>
      </trkpt>
      <trkpt lat="45.85185" lon="4.61139">
        <ele>292.20001220703</ele>
        <time>2020-10-09T06:40:44.515Z</time>
      </trkpt>
      <trkpt lat="45.85195" lon="4.6116">
        <ele>293.39999389648</ele>
        <time>2020-10-09T06:40:44.587Z</time>
      </trkpt>
      <trkpt lat="45.85202" lon="4.61175">
        <ele>294.20001220703</ele>
        <time>2020-10-09T06:40:44.665Z</time>
      </trkpt>
      <trkpt lat="45.85209" lon="4.61192">
        <ele>295.20001220703</ele>
        <time>2020-10-09T06:40:44.749Z</time>
      </trkpt>
      <trkpt lat="45.85212" lon="4.61197">
        <ele>295.39999389648</ele>
        <time>2020-10-09T06:40:44.834Z</time>
      </trkpt>
      <trkpt lat="45.85234" lon="4.61246">
        <ele>296.39999389648</ele>
        <time>2020-10-09T06:40:44.937Z</time>
      </trkpt>
      <trkpt lat="45.85242" lon="4.61262">
        <ele>296.79998779297</ele>
        <time>2020-10-09T06:40:45.046Z</time>
      </trkpt>
      <trkpt lat="45.85244" lon="4.61268">
        <ele>296.79998779297</ele>
        <time>2020-10-09T06:40:45.157Z</time>
      </trkpt>
      <trkpt lat="45.85251" lon="4.61288">
        <ele>297.20001220703</ele>
        <time>2020-10-09T06:40:45.274Z</time>
      </trkpt>
      <trkpt lat="45.85267" lon="4.61324">
        <ele>297.20001220703</ele>
        <time>2020-10-09T06:40:45.404Z</time>
      </trkpt>
      <trkpt lat="45.85301" lon="4.61399">
        <ele>295.20001220703</ele>
        <time>2020-10-09T06:40:45.561Z</time>
      </trkpt>
      <trkpt lat="45.85311" lon="4.61423">
        <ele>293.79998779297</ele>
        <time>2020-10-09T06:40:45.726Z</time>
      </trkpt>
      <trkpt lat="45.8532" lon="4.61448">
        <ele>292.20001220703</ele>
        <time>2020-10-09T06:40:45.899Z</time>
      </trkpt>
      <trkpt lat="45.85324" lon="4.61461">
        <ele>291</ele>
        <time>2020-10-09T06:40:46.076Z</time>
      </trkpt>
      <trkpt lat="45.85328" lon="4.61472">
        <ele>290.39999389648</ele>
        <time>2020-10-09T06:40:46.257Z</time>
      </trkpt>
      <trkpt lat="45.85331" lon="4.61482">
        <ele>289.60000610352</ele>
        <time>2020-10-09T06:40:46.442Z</time>
      </trkpt>
      <trkpt lat="45.85333" lon="4.61491">
        <ele>289</ele>
        <time>2020-10-09T06:40:46.629Z</time>
      </trkpt>
      <trkpt lat="45.85333" lon="4.61499">
        <ele>288.79998779297</ele>
        <time>2020-10-09T06:40:46.819Z</time>
      </trkpt>
      <trkpt lat="45.85331" lon="4.61506">
        <ele>288.39999389648</ele>
        <time>2020-10-09T06:40:47.011Z</time>
      </trkpt>
      <trkpt lat="45.85324" lon="4.6152">
        <ele>288</ele>
        <time>2020-10-09T06:40:47.208Z</time>
      </trkpt>
      <trkpt lat="45.8531" lon="4.61553">
        <ele>287.39999389648</ele>
        <time>2020-10-09T06:40:47.417Z</time>
      </trkpt>
      <trkpt lat="45.85309" lon="4.6156">
        <ele>287.39999389648</ele>
        <time>2020-10-09T06:40:47.628Z</time>
      </trkpt>
      <trkpt lat="45.85309" lon="4.61579">
        <ele>287.60000610352</ele>
        <time>2020-10-09T06:40:47.844Z</time>
      </trkpt>
      <trkpt lat="45.8531" lon="4.61586">
        <ele>287.79998779297</ele>
        <time>2020-10-09T06:40:48.062Z</time>
      </trkpt>
      <trkpt lat="45.85313" lon="4.6161">
        <ele>288.39999389648</ele>
        <time>2020-10-09T06:40:48.288Z</time>
      </trkpt>
      <trkpt lat="45.85314" lon="4.61617">
        <ele>288.79998779297</ele>
        <time>2020-10-09T06:40:48.516Z</time>
      </trkpt>
      <trkpt lat="45.85315" lon="4.61636">
        <ele>289.60000610352</ele>
        <time>2020-10-09T06:40:48.749Z</time>
      </trkpt>
      <trkpt lat="45.85315" lon="4.61648">
        <ele>290</ele>
        <time>2020-10-09T06:40:48.986Z</time>
      </trkpt>
      <trkpt lat="45.85315" lon="4.61655">
        <ele>290</ele>
        <time>2020-10-09T06:40:49.225Z</time>
      </trkpt>
      <trkpt lat="45.85309" lon="4.61692">
        <ele>290</ele>
        <time>2020-10-09T06:40:49.475Z</time>
      </trkpt>
      <trkpt lat="45.85304" lon="4.61736">
        <ele>288.39999389648</ele>
        <time>2020-10-09T06:40:49.739Z</time>
      </trkpt>
      <trkpt lat="45.85303" lon="4.61756">
        <ele>287.20001220703</ele>
        <time>2020-10-09T06:40:50.009Z</time>
      </trkpt>
      <trkpt lat="45.85301" lon="4.61766">
        <ele>286.60000610352</ele>
        <time>2020-10-09T06:40:50.282Z</time>
      </trkpt>
      <trkpt lat="45.85301" lon="4.61783">
        <ele>285.79998779297</ele>
        <time>2020-10-09T06:40:50.560Z</time>
      </trkpt>
      <trkpt lat="45.85301" lon="4.61796">
        <ele>284</ele>
        <time>2020-10-09T06:40:50.842Z</time>
      </trkpt>
      <trkpt lat="45.85303" lon="4.61809">
        <ele>282.79998779297</ele>
        <time>2020-10-09T06:40:51.128Z</time>
      </trkpt>
      <trkpt lat="45.85306" lon="4.61823">
        <ele>281.39999389648</ele>
        <time>2020-10-09T06:40:51.418Z</time>
      </trkpt>
      <trkpt lat="45.85309" lon="4.61838">
        <ele>279.79998779297</ele>
        <time>2020-10-09T06:40:51.713Z</time>
      </trkpt>
      <trkpt lat="45.85311" lon="4.61845">
        <ele>278.79998779297</ele>
        <time>2020-10-09T06:40:52.010Z</time>
      </trkpt>
      <trkpt lat="45.85312" lon="4.61853">
        <ele>276.60000610352</ele>
        <time>2020-10-09T06:40:52.309Z</time>
      </trkpt>
      <trkpt lat="45.85313" lon="4.61859">
        <ele>275.39999389648</ele>
        <time>2020-10-09T06:40:52.610Z</time>
      </trkpt>
      <trkpt lat="45.85315" lon="4.61872">
        <ele>274.20001220703</ele>
        <time>2020-10-09T06:40:52.915Z</time>
      </trkpt>
      <trkpt lat="45.85316" lon="4.61896">
        <ele>273.20001220703</ele>
        <time>2020-10-09T06:40:53.227Z</time>
      </trkpt>
      <trkpt lat="45.85315" lon="4.61902">
        <ele>273.20001220703</ele>
        <time>2020-10-09T06:40:53.541Z</time>
      </trkpt>
      <trkpt lat="45.85312" lon="4.6193">
        <ele>273.20001220703</ele>
        <time>2020-10-09T06:40:53.864Z</time>
      </trkpt>
      <trkpt lat="45.8531" lon="4.61939">
        <ele>274</ele>
        <time>2020-10-09T06:40:54.189Z</time>
      </trkpt>
      <trkpt lat="45.85309" lon="4.61948">
        <ele>275.20001220703</ele>
        <time>2020-10-09T06:40:54.517Z</time>
      </trkpt>
      <trkpt lat="45.85308" lon="4.61958">
        <ele>276.20001220703</ele>
        <time>2020-10-09T06:40:54.848Z</time>
      </trkpt>
      <trkpt lat="45.85308" lon="4.61963">
        <ele>276.60000610352</ele>
        <time>2020-10-09T06:40:55.180Z</time>
      </trkpt>
      <trkpt lat="45.85305" lon="4.61978">
        <ele>277.39999389648</ele>
        <time>2020-10-09T06:40:55.517Z</time>
      </trkpt>
      <trkpt lat="45.85303" lon="4.61988">
        <ele>278.39999389648</ele>
        <time>2020-10-09T06:40:55.857Z</time>
      </trkpt>
      <trkpt lat="45.85302" lon="4.62">
        <ele>279.39999389648</ele>
        <time>2020-10-09T06:40:56.201Z</time>
      </trkpt>
      <trkpt lat="45.85301" lon="4.62006">
        <ele>279.60000610352</ele>
        <time>2020-10-09T06:40:56.547Z</time>
      </trkpt>
      <trkpt lat="45.85297" lon="4.62035">
        <ele>280.60000610352</ele>
        <time>2020-10-09T06:40:56.901Z</time>
      </trkpt>
      <trkpt lat="45.85297" lon="4.62041">
        <ele>280.79998779297</ele>
        <time>2020-10-09T06:40:57.257Z</time>
      </trkpt>
      <trkpt lat="45.85297" lon="4.62082">
        <ele>281.60000610352</ele>
        <time>2020-10-09T06:40:57.625Z</time>
      </trkpt>
      <trkpt lat="45.85297" lon="4.62088">
        <ele>281.79998779297</ele>
        <time>2020-10-09T06:40:57.995Z</time>
      </trkpt>
      <trkpt lat="45.85302" lon="4.62148">
        <ele>282.20001220703</ele>
        <time>2020-10-09T06:40:58.383Z</time>
      </trkpt>
      <trkpt lat="45.85304" lon="4.62166">
        <ele>282.39999389648</ele>
        <time>2020-10-09T06:40:58.777Z</time>
      </trkpt>
      <trkpt lat="45.8531" lon="4.62188">
        <ele>283</ele>
        <time>2020-10-09T06:40:59.178Z</time>
      </trkpt>
      <trkpt lat="45.85313" lon="4.62199">
        <ele>283</ele>
        <time>2020-10-09T06:40:59.582Z</time>
      </trkpt>
      <trkpt lat="45.85319" lon="4.62212">
        <ele>283.39999389648</ele>
        <time>2020-10-09T06:40:59.991Z</time>
      </trkpt>
      <trkpt lat="45.85321" lon="4.62213">
        <ele>283.39999389648</ele>
        <time>2020-10-09T06:41:00.401Z</time>
      </trkpt>
      <trkpt lat="45.85324" lon="4.62212">
        <ele>283.60000610352</ele>
        <time>2020-10-09T06:41:00.812Z</time>
      </trkpt>
      <trkpt lat="45.85328" lon="4.62205">
        <ele>283.79998779297</ele>
        <time>2020-10-09T06:41:01.226Z</time>
      </trkpt>
      <trkpt lat="45.85334" lon="4.62187">
        <ele>284.60000610352</ele>
        <time>2020-10-09T06:41:01.646Z</time>
      </trkpt>
      <trkpt lat="45.85336" lon="4.62183">
        <ele>285</ele>
        <time>2020-10-09T06:41:02.067Z</time>
      </trkpt>
      <trkpt lat="45.85346" lon="4.62179">
        <ele>285.60000610352</ele>
        <time>2020-10-09T06:41:02.493Z</time>
      </trkpt>
      <trkpt lat="45.85364" lon="4.62185">
        <ele>286.60000610352</ele>
        <time>2020-10-09T06:41:02.926Z</time>
      </trkpt>
      <trkpt lat="45.85367" lon="4.62187">
        <ele>286.79998779297</ele>
        <time>2020-10-09T06:41:03.361Z</time>
      </trkpt>
      <trkpt lat="45.85377" lon="4.62195">
        <ele>288.20001220703</ele>
        <time>2020-10-09T06:41:03.801Z</time>
      </trkpt>
      <trkpt lat="45.8539" lon="4.62206">
        <ele>289.39999389648</ele>
        <time>2020-10-09T06:41:04.247Z</time>
      </trkpt>
      <trkpt lat="45.854" lon="4.62214">
        <ele>290.60000610352</ele>
        <time>2020-10-09T06:41:04.698Z</time>
      </trkpt>
      <trkpt lat="45.85403" lon="4.62217">
        <ele>291</ele>
        <time>2020-10-09T06:41:05.151Z</time>
      </trkpt>
      <trkpt lat="45.85413" lon="4.62226">
        <ele>291.60000610352</ele>
        <time>2020-10-09T06:41:05.609Z</time>
      </trkpt>
      <trkpt lat="45.85423" lon="4.62233">
        <ele>292.39999389648</ele>
        <time>2020-10-09T06:41:06.071Z</time>
      </trkpt>
      <trkpt lat="45.85426" lon="4.62235">
        <ele>292.60000610352</ele>
        <time>2020-10-09T06:41:06.535Z</time>
      </trkpt>
      <trkpt lat="45.85434" lon="4.62247">
        <ele>293.20001220703</ele>
        <time>2020-10-09T06:41:07.004Z</time>
      </trkpt>
      <trkpt lat="45.85435" lon="4.62262">
        <ele>293.79998779297</ele>
        <time>2020-10-09T06:41:07.477Z</time>
      </trkpt>
      <trkpt lat="45.85436" lon="4.62271">
        <ele>294.39999389648</ele>
        <time>2020-10-09T06:41:07.953Z</time>
      </trkpt>
      <trkpt lat="45.85439" lon="4.62275">
        <ele>294.60000610352</ele>
        <time>2020-10-09T06:41:08.430Z</time>
      </trkpt>
      <trkpt lat="45.85445" lon="4.6228">
        <ele>294.79998779297</ele>
        <time>2020-10-09T06:41:08.910Z</time>
      </trkpt>
      <trkpt lat="45.85449" lon="4.62281">
        <ele>295</ele>
        <time>2020-10-09T06:41:09.392Z</time>
      </trkpt>
      <trkpt lat="45.85452" lon="4.62283">
        <ele>295</ele>
        <time>2020-10-09T06:41:09.876Z</time>
      </trkpt>
      <trkpt lat="45.85474" lon="4.6229">
        <ele>295.39999389648</ele>
        <time>2020-10-09T06:41:10.369Z</time>
      </trkpt>
      <trkpt lat="45.85486" lon="4.62294">
        <ele>295.79998779297</ele>
        <time>2020-10-09T06:41:10.867Z</time>
      </trkpt>
      <trkpt lat="45.85496" lon="4.62298">
        <ele>296.20001220703</ele>
        <time>2020-10-09T06:41:11.370Z</time>
      </trkpt>
      <trkpt lat="45.85498" lon="4.62301">
        <ele>296.39999389648</ele>
        <time>2020-10-09T06:41:11.874Z</time>
      </trkpt>
      <trkpt lat="45.85496" lon="4.62318">
        <ele>296.60000610352</ele>
        <time>2020-10-09T06:41:12.383Z</time>
      </trkpt>
      <trkpt lat="45.85495" lon="4.62324">
        <ele>296.60000610352</ele>
        <time>2020-10-09T06:41:12.894Z</time>
      </trkpt>
      <trkpt lat="45.85491" lon="4.6235">
        <ele>296.60000610352</ele>
        <time>2020-10-09T06:41:13.413Z</time>
      </trkpt>
      <trkpt lat="45.85488" lon="4.6237">
        <ele>296.60000610352</ele>
        <time>2020-10-09T06:41:13.938Z</time>
      </trkpt>
      <trkpt lat="45.85481" lon="4.62414">
        <ele>295.79998779297</ele>
        <time>2020-10-09T06:41:14.476Z</time>
      </trkpt>
      <trkpt lat="45.85479" lon="4.6242">
        <ele>295.60000610352</ele>
        <time>2020-10-09T06:41:15.016Z</time>
      </trkpt>
      <trkpt lat="45.85471" lon="4.6243">
        <ele>295.20001220703</ele>
        <time>2020-10-09T06:41:15.561Z</time>
      </trkpt>
      <trkpt lat="45.85462" lon="4.62437">
        <ele>294.79998779297</ele>
        <time>2020-10-09T06:41:16.110Z</time>
      </trkpt>
      <trkpt lat="45.85462" lon="4.62443">
        <ele>294.60000610352</ele>
        <time>2020-10-09T06:41:16.661Z</time>
      </trkpt>
      <trkpt lat="45.85461" lon="4.62449">
        <ele>294.60000610352</ele>
        <time>2020-10-09T06:41:17.214Z</time>
      </trkpt>
      <trkpt lat="45.85457" lon="4.62475">
        <ele>293.79998779297</ele>
        <time>2020-10-09T06:41:17.775Z</time>
      </trkpt>
      <trkpt lat="45.85453" lon="4.62496">
        <ele>293.20001220703</ele>
        <time>2020-10-09T06:41:18.342Z</time>
      </trkpt>
      <trkpt lat="45.85451" lon="4.62509">
        <ele>291.60000610352</ele>
        <time>2020-10-09T06:41:18.913Z</time>
      </trkpt>
      <trkpt lat="45.85447" lon="4.62529">
        <ele>290.79998779297</ele>
        <time>2020-10-09T06:41:19.490Z</time>
      </trkpt>
      <trkpt lat="45.85447" lon="4.62536">
        <ele>290.60000610352</ele>
        <time>2020-10-09T06:41:20.069Z</time>
      </trkpt>
      <trkpt lat="45.85445" lon="4.62541">
        <ele>290.60000610352</ele>
        <time>2020-10-09T06:41:20.650Z</time>
      </trkpt>
      <trkpt lat="45.8544" lon="4.6255">
        <ele>290.39999389648</ele>
        <time>2020-10-09T06:41:21.234Z</time>
      </trkpt>
      <trkpt lat="45.8543" lon="4.62552">
        <ele>290</ele>
        <time>2020-10-09T06:41:21.823Z</time>
      </trkpt>
      <trkpt lat="45.85426" lon="4.62552">
        <ele>289.79998779297</ele>
        <time>2020-10-09T06:41:22.413Z</time>
      </trkpt>
      <trkpt lat="45.85419" lon="4.62553">
        <ele>289.60000610352</ele>
        <time>2020-10-09T06:41:23.006Z</time>
      </trkpt>
      <trkpt lat="45.854" lon="4.62553">
        <ele>289</ele>
        <time>2020-10-09T06:41:23.608Z</time>
      </trkpt>
      <trkpt lat="45.85384" lon="4.62555">
        <ele>288.39999389648</ele>
        <time>2020-10-09T06:41:24.216Z</time>
      </trkpt>
      <trkpt lat="45.85381" lon="4.62556">
        <ele>288.20001220703</ele>
        <time>2020-10-09T06:41:24.826Z</time>
      </trkpt>
      <trkpt lat="45.85361" lon="4.62558">
        <ele>287.60000610352</ele>
        <time>2020-10-09T06:41:25.444Z</time>
      </trkpt>
      <trkpt lat="45.85355" lon="4.62559">
        <ele>287.39999389648</ele>
        <time>2020-10-09T06:41:26.065Z</time>
      </trkpt>
      <trkpt lat="45.85348" lon="4.62562">
        <ele>287</ele>
        <time>2020-10-09T06:41:26.689Z</time>
      </trkpt>
      <trkpt lat="45.85346" lon="4.62565">
        <ele>286.79998779297</ele>
        <time>2020-10-09T06:41:27.314Z</time>
      </trkpt>
      <trkpt lat="45.85345" lon="4.62578">
        <ele>286.60000610352</ele>
        <time>2020-10-09T06:41:27.943Z</time>
      </trkpt>
      <trkpt lat="45.85349" lon="4.62595">
        <ele>286.39999389648</ele>
        <time>2020-10-09T06:41:28.577Z</time>
      </trkpt>
      <trkpt lat="45.85353" lon="4.62607">
        <ele>286.39999389648</ele>
        <time>2020-10-09T06:41:29.216Z</time>
      </trkpt>
      <trkpt lat="45.85357" lon="4.6262">
        <ele>286.39999389648</ele>
        <time>2020-10-09T06:41:29.859Z</time>
      </trkpt>
      <trkpt lat="45.85358" lon="4.62627">
        <ele>286.20001220703</ele>
        <time>2020-10-09T06:41:30.504Z</time>
      </trkpt>
      <trkpt lat="45.8536" lon="4.62646">
        <ele>285.79998779297</ele>
        <time>2020-10-09T06:41:31.155Z</time>
      </trkpt>
      <trkpt lat="45.85354" lon="4.62672">
        <ele>285.20001220703</ele>
        <time>2020-10-09T06:41:31.814Z</time>
      </trkpt>
      <trkpt lat="45.85348" lon="4.62693">
        <ele>285</ele>
        <time>2020-10-09T06:41:32.480Z</time>
      </trkpt>
      <trkpt lat="45.85342" lon="4.62716">
        <ele>284.79998779297</ele>
        <time>2020-10-09T06:41:33.153Z</time>
      </trkpt>
      <trkpt lat="45.85337" lon="4.62733">
        <ele>284</ele>
        <time>2020-10-09T06:41:33.831Z</time>
      </trkpt>
      <trkpt lat="45.85329" lon="4.62758">
        <ele>283</ele>
        <time>2020-10-09T06:41:34.517Z</time>
      </trkpt>
      <trkpt lat="45.85324" lon="4.62776">
        <ele>282.39999389648</ele>
        <time>2020-10-09T06:41:35.209Z</time>
      </trkpt>
      <trkpt lat="45.85319" lon="4.62793">
        <ele>281.79998779297</ele>
        <time>2020-10-09T06:41:35.907Z</time>
      </trkpt>
      <trkpt lat="45.85311" lon="4.62821">
        <ele>280.79998779297</ele>
        <time>2020-10-09T06:41:36.613Z</time>
      </trkpt>
      <trkpt lat="45.85304" lon="4.62847">
        <ele>279.39999389648</ele>
        <time>2020-10-09T06:41:37.328Z</time>
      </trkpt>
      <trkpt lat="45.85292" lon="4.62889">
        <ele>278.39999389648</ele>
        <time>2020-10-09T06:41:38.057Z</time>
      </trkpt>
      <trkpt lat="45.8529" lon="4.62897">
        <ele>278.20001220703</ele>
        <time>2020-10-09T06:41:38.788Z</time>
      </trkpt>
      <trkpt lat="45.8527" lon="4.62968">
        <ele>277.20001220703</ele>
        <time>2020-10-09T06:41:39.542Z</time>
      </trkpt>
      <trkpt lat="45.85261" lon="4.62998">
        <ele>276.39999389648</ele>
        <time>2020-10-09T06:41:40.306Z</time>
      </trkpt>
      <trkpt lat="45.85261" lon="4.63006">
        <ele>276.20001220703</ele>
        <time>2020-10-09T06:41:41.072Z</time>
      </trkpt>
      <trkpt lat="45.85269" lon="4.63026">
        <ele>275.60000610352</ele>
        <time>2020-10-09T06:41:41.845Z</time>
      </trkpt>
      <trkpt lat="45.85276" lon="4.63037">
        <ele>274.79998779297</ele>
        <time>2020-10-09T06:41:42.622Z</time>
      </trkpt>
      <trkpt lat="45.8528" lon="4.63041">
        <ele>274.60000610352</ele>
        <time>2020-10-09T06:41:43.401Z</time>
      </trkpt>
      <trkpt lat="45.85289" lon="4.63048">
        <ele>274.20001220703</ele>
        <time>2020-10-09T06:41:44.184Z</time>
      </trkpt>
      <trkpt lat="45.85293" lon="4.63051">
        <ele>273.79998779297</ele>
        <time>2020-10-09T06:41:44.970Z</time>
      </trkpt>
      <trkpt lat="45.85298" lon="4.63055">
        <ele>273.60000610352</ele>
        <time>2020-10-09T06:41:45.758Z</time>
      </trkpt>
      <trkpt lat="45.85313" lon="4.63067">
        <ele>273.39999389648</ele>
        <time>2020-10-09T06:41:46.553Z</time>
      </trkpt>
      <trkpt lat="45.85342" lon="4.63096">
        <ele>273.39999389648</ele>
        <time>2020-10-09T06:41:47.364Z</time>
      </trkpt>
      <trkpt lat="45.8535" lon="4.63103">
        <ele>273.39999389648</ele>
        <time>2020-10-09T06:41:48.178Z</time>
      </trkpt>
      <trkpt lat="45.85361" lon="4.63108">
        <ele>273.79998779297</ele>
        <time>2020-10-09T06:41:48.997Z</time>
      </trkpt>
      <trkpt lat="45.85365" lon="4.63109">
        <ele>274</ele>
        <time>2020-10-09T06:41:49.818Z</time>
      </trkpt>
      <trkpt lat="45.85377" lon="4.63111">
        <ele>275</ele>
        <time>2020-10-09T06:41:50.644Z</time>
      </trkpt>
      <trkpt lat="45.85389" lon="4.63114">
        <ele>276.39999389648</ele>
        <time>2020-10-09T06:41:51.475Z</time>
      </trkpt>
      <trkpt lat="45.85395" lon="4.63116">
        <ele>277.60000610352</ele>
        <time>2020-10-09T06:41:52.309Z</time>
      </trkpt>
      <trkpt lat="45.85404" lon="4.63119">
        <ele>278.60000610352</ele>
        <time>2020-10-09T06:41:53.147Z</time>
      </trkpt>
      <trkpt lat="45.85411" lon="4.63124">
        <ele>279.39999389648</ele>
        <time>2020-10-09T06:41:53.988Z</time>
      </trkpt>
      <trkpt lat="45.85417" lon="4.63127">
        <ele>279.79998779297</ele>
        <time>2020-10-09T06:41:54.832Z</time>
      </trkpt>
      <trkpt lat="45.85427" lon="4.63132">
        <ele>280.79998779297</ele>
        <time>2020-10-09T06:41:55.680Z</time>
      </trkpt>
      <trkpt lat="45.8543" lon="4.63133">
        <ele>281</ele>
        <time>2020-10-09T06:41:56.530Z</time>
      </trkpt>
      <trkpt lat="45.85448" lon="4.63139">
        <ele>281.39999389648</ele>
        <time>2020-10-09T06:41:57.387Z</time>
      </trkpt>
      <trkpt lat="45.85463" lon="4.63143">
        <ele>282</ele>
        <time>2020-10-09T06:41:58.251Z</time>
      </trkpt>
      <trkpt lat="45.85472" lon="4.63143">
        <ele>282.39999389648</ele>
        <time>2020-10-09T06:41:59.119Z</time>
      </trkpt>
      <trkpt lat="45.8549" lon="4.63151">
        <ele>282.60000610352</ele>
        <time>2020-10-09T06:41:59.995Z</time>
      </trkpt>
      <trkpt lat="45.85505" lon="4.63168">
        <ele>282.39999389648</ele>
        <time>2020-10-09T06:42:00.879Z</time>
      </trkpt>
      <trkpt lat="45.85516" lon="4.6318">
        <ele>282.39999389648</ele>
        <time>2020-10-09T06:42:01.769Z</time>
      </trkpt>
      <trkpt lat="45.85518" lon="4.63182">
        <ele>282.39999389648</ele>
        <time>2020-10-09T06:42:02.660Z</time>
      </trkpt>
      <trkpt lat="45.85532" lon="4.63193">
        <ele>282</ele>
        <time>2020-10-09T06:42:03.558Z</time>
      </trkpt>
      <trkpt lat="45.8555" lon="4.63207">
        <ele>281.60000610352</ele>
        <time>2020-10-09T06:42:04.465Z</time>
      </trkpt>
      <trkpt lat="45.85553" lon="4.6321">
        <ele>280.60000610352</ele>
        <time>2020-10-09T06:42:05.373Z</time>
      </trkpt>
      <trkpt lat="45.85554" lon="4.63211">
        <ele>279.39999389648</ele>
        <time>2020-10-09T06:42:06.282Z</time>
      </trkpt>
      <trkpt lat="45.85554" lon="4.63211">
        <ele>279.20001220703</ele>
        <time>2020-10-09T06:42:07.191Z</time>
      </trkpt>
      <trkpt lat="45.85562" lon="4.63215">
        <ele>279.20001220703</ele>
        <time>2020-10-09T06:42:08.103Z</time>
      </trkpt>
      <trkpt lat="45.85577" lon="4.63222">
        <ele>279.20001220703</ele>
        <time>2020-10-09T06:42:09.022Z</time>
      </trkpt>
      <trkpt lat="45.85604" lon="4.63242">
        <ele>279</ele>
        <time>2020-10-09T06:42:09.954Z</time>
      </trkpt>
      <trkpt lat="45.85616" lon="4.63251">
        <ele>278</ele>
        <time>2020-10-09T06:42:10.892Z</time>
      </trkpt>
      <trkpt lat="45.85627" lon="4.63259">
        <ele>276.60000610352</ele>
        <time>2020-10-09T06:42:11.835Z</time>
      </trkpt>
      <trkpt lat="45.85639" lon="4.63268">
        <ele>275.60000610352</ele>
        <time>2020-10-09T06:42:12.784Z</time>
      </trkpt>
      <trkpt lat="45.85651" lon="4.63278">
        <ele>274.20001220703</ele>
        <time>2020-10-09T06:42:13.739Z</time>
      </trkpt>
      <trkpt lat="45.85664" lon="4.63288">
        <ele>272.60000610352</ele>
        <time>2020-10-09T06:42:14.700Z</time>
      </trkpt>
      <trkpt lat="45.85669" lon="4.63294">
        <ele>272.20001220703</ele>
        <time>2020-10-09T06:42:15.664Z</time>
      </trkpt>
      <trkpt lat="45.85679" lon="4.63306">
        <ele>271.39999389648</ele>
        <time>2020-10-09T06:42:16.633Z</time>
      </trkpt>
      <trkpt lat="45.85686" lon="4.63317">
        <ele>270.60000610352</ele>
        <time>2020-10-09T06:42:17.607Z</time>
      </trkpt>
      <trkpt lat="45.85703" lon="4.63344">
        <ele>270.39999389648</ele>
        <time>2020-10-09T06:42:18.591Z</time>
      </trkpt>
      <trkpt lat="45.85728" lon="4.63376">
        <ele>271.39999389648</ele>
        <time>2020-10-09T06:42:19.590Z</time>
      </trkpt>
      <trkpt lat="45.85737" lon="4.63386">
        <ele>272.39999389648</ele>
        <time>2020-10-09T06:42:20.594Z</time>
      </trkpt>
      <trkpt lat="45.8575" lon="4.63399">
        <ele>273.79998779297</ele>
        <time>2020-10-09T06:42:21.605Z</time>
      </trkpt>
      <trkpt lat="45.85761" lon="4.63408">
        <ele>275</ele>
        <time>2020-10-09T06:42:22.621Z</time>
      </trkpt>
      <trkpt lat="45.85768" lon="4.63413">
        <ele>275.79998779297</ele>
        <time>2020-10-09T06:42:23.640Z</time>
      </trkpt>
      <trkpt lat="45.85779" lon="4.6342">
        <ele>277</ele>
        <time>2020-10-09T06:42:24.664Z</time>
      </trkpt>
      <trkpt lat="45.8579" lon="4.63428">
        <ele>278.60000610352</ele>
        <time>2020-10-09T06:42:25.693Z</time>
      </trkpt>
      <trkpt lat="45.858" lon="4.63436">
        <ele>279.79998779297</ele>
        <time>2020-10-09T06:42:26.728Z</time>
      </trkpt>
      <trkpt lat="45.85804" lon="4.63438">
        <ele>280.20001220703</ele>
        <time>2020-10-09T06:42:27.764Z</time>
      </trkpt>
      <trkpt lat="45.85811" lon="4.63443">
        <ele>281</ele>
        <time>2020-10-09T06:42:28.804Z</time>
      </trkpt>
      <trkpt lat="45.85826" lon="4.63453">
        <ele>282.20001220703</ele>
        <time>2020-10-09T06:42:29.851Z</time>
      </trkpt>
      <trkpt lat="45.8584" lon="4.63467">
        <ele>283.20001220703</ele>
        <time>2020-10-09T06:42:30.905Z</time>
      </trkpt>
      <trkpt lat="45.85841" lon="4.63472">
        <ele>283.39999389648</ele>
        <time>2020-10-09T06:42:31.960Z</time>
      </trkpt>
      <trkpt lat="45.85837" lon="4.63487">
        <ele>283.79998779297</ele>
        <time>2020-10-09T06:42:33.020Z</time>
      </trkpt>
      <trkpt lat="45.85835" lon="4.63492">
        <ele>284</ele>
        <time>2020-10-09T06:42:34.082Z</time>
      </trkpt>
      <trkpt lat="45.8582" lon="4.63521">
        <ele>284</ele>
        <time>2020-10-09T06:42:35.155Z</time>
      </trkpt>
      <trkpt lat="45.85818" lon="4.63525">
        <ele>284</ele>
        <time>2020-10-09T06:42:36.229Z</time>
      </trkpt>
      <trkpt lat="45.85811" lon="4.63541">
        <ele>283.79998779297</ele>
        <time>2020-10-09T06:42:37.309Z</time>
      </trkpt>
      <trkpt lat="45.85802" lon="4.63562">
        <ele>283.79998779297</ele>
        <time>2020-10-09T06:42:38.396Z</time>
      </trkpt>
      <trkpt lat="45.85781" lon="4.63604">
        <ele>283.60000610352</ele>
        <time>2020-10-09T06:42:39.498Z</time>
      </trkpt>
      <trkpt lat="45.85754" lon="4.63643">
        <ele>282.20001220703</ele>
        <time>2020-10-09T06:42:40.617Z</time>
      </trkpt>
      <trkpt lat="45.85751" lon="4.63649">
        <ele>282</ele>
        <time>2020-10-09T06:42:41.738Z</time>
      </trkpt>
      <trkpt lat="45.85727" lon="4.6368">
        <ele>281.39999389648</ele>
        <time>2020-10-09T06:42:42.873Z</time>
      </trkpt>
      <trkpt lat="45.8572" lon="4.63689">
        <ele>281</ele>
        <time>2020-10-09T06:42:44.012Z</time>
      </trkpt>
      <trkpt lat="45.85695" lon="4.63718">
        <ele>280.60000610352</ele>
        <time>2020-10-09T06:42:45.164Z</time>
      </trkpt>
      <trkpt lat="45.85672" lon="4.63756">
        <ele>280</ele>
        <time>2020-10-09T06:42:46.331Z</time>
      </trkpt>
      <trkpt lat="45.85668" lon="4.63761">
        <ele>279.79998779297</ele>
        <time>2020-10-09T06:42:47.501Z</time>
      </trkpt>
      <trkpt lat="45.85653" lon="4.63784">
        <ele>278.60000610352</ele>
        <time>2020-10-09T06:42:48.680Z</time>
      </trkpt>
      <trkpt lat="45.85645" lon="4.63795">
        <ele>278.39999389648</ele>
        <time>2020-10-09T06:42:49.864Z</time>
      </trkpt>
      <trkpt lat="45.85613" lon="4.63838">
        <ele>277.60000610352</ele>
        <time>2020-10-09T06:42:51.066Z</time>
      </trkpt>
      <trkpt lat="45.85609" lon="4.63844">
        <ele>277.39999389648</ele>
        <time>2020-10-09T06:42:52.271Z</time>
      </trkpt>
      <trkpt lat="45.85595" lon="4.6386">
        <ele>276.20001220703</ele>
        <time>2020-10-09T06:42:53.483Z</time>
      </trkpt>
      <trkpt lat="45.85583" lon="4.63879">
        <ele>275.39999389648</ele>
        <time>2020-10-09T06:42:54.703Z</time>
      </trkpt>
      <trkpt lat="45.85575" lon="4.63895">
        <ele>275.20001220703</ele>
        <time>2020-10-09T06:42:55.929Z</time>
      </trkpt>
      <trkpt lat="45.85563" lon="4.63926">
        <ele>274.20001220703</ele>
        <time>2020-10-09T06:42:57.165Z</time>
      </trkpt>
      <trkpt lat="45.85559" lon="4.6394">
        <ele>273</ele>
        <time>2020-10-09T06:42:58.406Z</time>
      </trkpt>
      <trkpt lat="45.85562" lon="4.63953">
        <ele>271.60000610352</ele>
        <time>2020-10-09T06:42:59.651Z</time>
      </trkpt>
      <trkpt lat="45.85572" lon="4.63964">
        <ele>270.20001220703</ele>
        <time>2020-10-09T06:43:00.901Z</time>
      </trkpt>
      <trkpt lat="45.85577" lon="4.63969">
        <ele>269.79998779297</ele>
        <time>2020-10-09T06:43:02.154Z</time>
      </trkpt>
      <trkpt lat="45.85583" lon="4.63974">
        <ele>269.20001220703</ele>
        <time>2020-10-09T06:43:03.410Z</time>
      </trkpt>
      <trkpt lat="45.85602" lon="4.63989">
        <ele>267.79998779297</ele>
        <time>2020-10-09T06:43:04.675Z</time>
      </trkpt>
      <trkpt lat="45.85621" lon="4.64006">
        <ele>266.79998779297</ele>
        <time>2020-10-09T06:43:05.950Z</time>
      </trkpt>
      <trkpt lat="45.85627" lon="4.64012">
        <ele>266.20001220703</ele>
        <time>2020-10-09T06:43:07.228Z</time>
      </trkpt>
      <trkpt lat="45.85632" lon="4.64019">
        <ele>265.60000610352</ele>
        <time>2020-10-09T06:43:08.509Z</time>
      </trkpt>
      <trkpt lat="45.85641" lon="4.64034">
        <ele>264.20001220703</ele>
        <time>2020-10-09T06:43:09.796Z</time>
      </trkpt>
      <trkpt lat="45.85644" lon="4.64043">
        <ele>264</ele>
        <time>2020-10-09T06:43:11.085Z</time>
      </trkpt>
      <trkpt lat="45.85649" lon="4.6406">
        <ele>263.79998779297</ele>
        <time>2020-10-09T06:43:12.380Z</time>
      </trkpt>
      <trkpt lat="45.85657" lon="4.64092">
        <ele>263.60000610352</ele>
        <time>2020-10-09T06:43:13.685Z</time>
      </trkpt>
      <trkpt lat="45.85665" lon="4.64119">
        <ele>263.60000610352</ele>
        <time>2020-10-09T06:43:14.999Z</time>
      </trkpt>
      <trkpt lat="45.85669" lon="4.64128">
        <ele>264.20001220703</ele>
        <time>2020-10-09T06:43:16.316Z</time>
      </trkpt>
      <trkpt lat="45.85677" lon="4.64137">
        <ele>265.39999389648</ele>
        <time>2020-10-09T06:43:17.637Z</time>
      </trkpt>
      <trkpt lat="45.85683" lon="4.64142">
        <ele>266</ele>
        <time>2020-10-09T06:43:18.961Z</time>
      </trkpt>
      <trkpt lat="45.85686" lon="4.64145">
        <ele>266.39999389648</ele>
        <time>2020-10-09T06:43:20.287Z</time>
      </trkpt>
      <trkpt lat="45.85699" lon="4.64156">
        <ele>267.79998779297</ele>
        <time>2020-10-09T06:43:21.619Z</time>
      </trkpt>
      <trkpt lat="45.8571" lon="4.64164">
        <ele>268.39999389648</ele>
        <time>2020-10-09T06:43:22.957Z</time>
      </trkpt>
      <trkpt lat="45.85721" lon="4.64171">
        <ele>269</ele>
        <time>2020-10-09T06:43:24.300Z</time>
      </trkpt>
      <trkpt lat="45.85735" lon="4.64179">
        <ele>270.39999389648</ele>
        <time>2020-10-09T06:43:25.649Z</time>
      </trkpt>
      <trkpt lat="45.85738" lon="4.64181">
        <ele>270.60000610352</ele>
        <time>2020-10-09T06:43:26.999Z</time>
      </trkpt>
      <trkpt lat="45.8575" lon="4.6419">
        <ele>271.39999389648</ele>
        <time>2020-10-09T06:43:28.355Z</time>
      </trkpt>
      <trkpt lat="45.85755" lon="4.64195">
        <ele>271.79998779297</ele>
        <time>2020-10-09T06:43:29.714Z</time>
      </trkpt>
      <trkpt lat="45.85761" lon="4.642">
        <ele>272.39999389648</ele>
        <time>2020-10-09T06:43:31.076Z</time>
      </trkpt>
      <trkpt lat="45.85773" lon="4.6421">
        <ele>273.39999389648</ele>
        <time>2020-10-09T06:43:32.444Z</time>
      </trkpt>
      <trkpt lat="45.85781" lon="4.64217">
        <ele>274</ele>
        <time>2020-10-09T06:43:33.816Z</time>
      </trkpt>
      <trkpt lat="45.85788" lon="4.64224">
        <ele>274.60000610352</ele>
        <time>2020-10-09T06:43:35.192Z</time>
      </trkpt>
      <trkpt lat="45.85798" lon="4.64233">
        <ele>275.39999389648</ele>
        <time>2020-10-09T06:43:36.573Z</time>
      </trkpt>
      <trkpt lat="45.85801" lon="4.64235">
        <ele>275.79998779297</ele>
        <time>2020-10-09T06:43:37.955Z</time>
      </trkpt>
      <trkpt lat="45.85816" lon="4.64248">
        <ele>276.79998779297</ele>
        <time>2020-10-09T06:43:39.344Z</time>
      </trkpt>
      <trkpt lat="45.85818" lon="4.64249">
        <ele>277</ele>
        <time>2020-10-09T06:43:40.734Z</time>
      </trkpt>
      <trkpt lat="45.85823" lon="4.64254">
        <ele>277.60000610352</ele>
        <time>2020-10-09T06:43:42.127Z</time>
      </trkpt>
      <trkpt lat="45.85823" lon="4.6426">
        <ele>278</ele>
        <time>2020-10-09T06:43:43.521Z</time>
      </trkpt>
      <trkpt lat="45.8582" lon="4.64267">
        <ele>278.20001220703</ele>
        <time>2020-10-09T06:43:44.918Z</time>
      </trkpt>
      <trkpt lat="45.85816" lon="4.64275">
        <ele>278.20001220703</ele>
        <time>2020-10-09T06:43:46.318Z</time>
      </trkpt>
      <trkpt lat="45.85796" lon="4.64311">
        <ele>278</ele>
        <time>2020-10-09T06:43:47.731Z</time>
      </trkpt>
      <trkpt lat="45.85787" lon="4.64326">
        <ele>277.79998779297</ele>
        <time>2020-10-09T06:43:49.150Z</time>
      </trkpt>
      <trkpt lat="45.85776" lon="4.64341">
        <ele>277.39999389648</ele>
        <time>2020-10-09T06:43:50.576Z</time>
      </trkpt>
      <trkpt lat="45.85772" lon="4.64346">
        <ele>277.20001220703</ele>
        <time>2020-10-09T06:43:52.004Z</time>
      </trkpt>
      <trkpt lat="45.85768" lon="4.64351">
        <ele>276.79998779297</ele>
        <time>2020-10-09T06:43:53.434Z</time>
      </trkpt>
      <trkpt lat="45.85761" lon="4.64359">
        <ele>276.20001220703</ele>
        <time>2020-10-09T06:43:54.868Z</time>
      </trkpt>
      <trkpt lat="45.85753" lon="4.64366">
        <ele>275.60000610352</ele>
        <time>2020-10-09T06:43:56.306Z</time>
      </trkpt>
      <trkpt lat="45.8573" lon="4.64392">
        <ele>274.60000610352</ele>
        <time>2020-10-09T06:43:57.757Z</time>
      </trkpt>
      <trkpt lat="45.85705" lon="4.64417">
        <ele>273.60000610352</ele>
        <time>2020-10-09T06:43:59.220Z</time>
      </trkpt>
      <trkpt lat="45.85693" lon="4.6443">
        <ele>272.60000610352</ele>
        <time>2020-10-09T06:44:00.690Z</time>
      </trkpt>
      <trkpt lat="45.8568" lon="4.64444">
        <ele>272.20001220703</ele>
        <time>2020-10-09T06:44:02.167Z</time>
      </trkpt>
      <trkpt lat="45.85663" lon="4.64463">
        <ele>271.20001220703</ele>
        <time>2020-10-09T06:44:03.653Z</time>
      </trkpt>
      <trkpt lat="45.85655" lon="4.64472">
        <ele>271</ele>
        <time>2020-10-09T06:44:05.144Z</time>
      </trkpt>
      <trkpt lat="45.85651" lon="4.64476">
        <ele>270.60000610352</ele>
        <time>2020-10-09T06:44:06.637Z</time>
      </trkpt>
      <trkpt lat="45.85643" lon="4.64477">
        <ele>270.20001220703</ele>
        <time>2020-10-09T06:44:08.133Z</time>
      </trkpt>
      <trkpt lat="45.8564" lon="4.64474">
        <ele>270.20001220703</ele>
        <time>2020-10-09T06:44:09.631Z</time>
      </trkpt>
      <trkpt lat="45.85637" lon="4.6447">
        <ele>270</ele>
        <time>2020-10-09T06:44:11.130Z</time>
      </trkpt>
      <trkpt lat="45.85632" lon="4.64463">
        <ele>269.79998779297</ele>
        <time>2020-10-09T06:44:12.632Z</time>
      </trkpt>
      <trkpt lat="45.8562" lon="4.64454">
        <ele>269.79998779297</ele>
        <time>2020-10-09T06:44:14.140Z</time>
      </trkpt>
      <trkpt lat="45.85618" lon="4.64455">
        <ele>269.79998779297</ele>
        <time>2020-10-09T06:44:15.649Z</time>
      </trkpt>
      <trkpt lat="45.85619" lon="4.64465">
        <ele>269.79998779297</ele>
        <time>2020-10-09T06:44:17.161Z</time>
      </trkpt>
      <trkpt lat="45.85623" lon="4.64472">
        <ele>269.79998779297</ele>
        <time>2020-10-09T06:44:18.676Z</time>
      </trkpt>
      <trkpt lat="45.85631" lon="4.64487">
        <ele>269.79998779297</ele>
        <time>2020-10-09T06:44:20.196Z</time>
      </trkpt>
      <trkpt lat="45.85657" lon="4.64537">
        <ele>269.20001220703</ele>
        <time>2020-10-09T06:44:21.735Z</time>
      </trkpt>
      <trkpt lat="45.85665" lon="4.64552">
        <ele>269</ele>
        <time>2020-10-09T06:44:23.280Z</time>
      </trkpt>
      <trkpt lat="45.85676" lon="4.64575">
        <ele>269</ele>
        <time>2020-10-09T06:44:24.833Z</time>
      </trkpt>
      <trkpt lat="45.85694" lon="4.64614">
        <ele>269.20001220703</ele>
        <time>2020-10-09T06:44:26.400Z</time>
      </trkpt>
      <trkpt lat="45.8571" lon="4.64656">
        <ele>269.79998779297</ele>
        <time>2020-10-09T06:44:27.981Z</time>
      </trkpt>
      <trkpt lat="45.8572" lon="4.64678">
        <ele>270</ele>
        <time>2020-10-09T06:44:29.570Z</time>
      </trkpt>
      <trkpt lat="45.85725" lon="4.64692">
        <ele>270.20001220703</ele>
        <time>2020-10-09T06:44:31.164Z</time>
      </trkpt>
      <trkpt lat="45.8574" lon="4.6473">
        <ele>270.39999389648</ele>
        <time>2020-10-09T06:44:32.771Z</time>
      </trkpt>
      <trkpt lat="45.85751" lon="4.64746">
        <ele>270.39999389648</ele>
        <time>2020-10-09T06:44:34.384Z</time>
      </trkpt>
      <trkpt lat="45.85754" lon="4.64745">
        <ele>270.39999389648</ele>
        <time>2020-10-09T06:44:35.998Z</time>
      </trkpt>
      <trkpt lat="45.85773" lon="4.6473">
        <ele>270.39999389648</ele>
        <time>2020-10-09T06:44:37.622Z</time>
      </trkpt>
      <trkpt lat="45.85793" lon="4.64714">
        <ele>271</ele>
        <time>2020-10-09T06:44:39.255Z</time>
      </trkpt>
      <trkpt lat="45.85802" lon="4.64707">
        <ele>271.79998779297</ele>
        <time>2020-10-09T06:44:40.893Z</time>
      </trkpt>
      <trkpt lat="45.85806" lon="4.64703">
        <ele>272.20001220703</ele>
        <time>2020-10-09T06:44:42.533Z</time>
      </trkpt>
      <trkpt lat="45.85818" lon="4.64693">
        <ele>273.20001220703</ele>
        <time>2020-10-09T06:44:44.179Z</time>
      </trkpt>
      <trkpt lat="45.85842" lon="4.64681">
        <ele>274</ele>
        <time>2020-10-09T06:44:45.836Z</time>
      </trkpt>
      <trkpt lat="45.8585" lon="4.64678">
        <ele>274.20001220703</ele>
        <time>2020-10-09T06:44:47.496Z</time>
      </trkpt>
      <trkpt lat="45.8587" lon="4.64672">
        <ele>275</ele>
        <time>2020-10-09T06:44:49.165Z</time>
      </trkpt>
      <trkpt lat="45.85886" lon="4.64667">
        <ele>275.20001220703</ele>
        <time>2020-10-09T06:44:50.841Z</time>
      </trkpt>
      <trkpt lat="45.85931" lon="4.64653">
        <ele>275.39999389648</ele>
        <time>2020-10-09T06:44:52.537Z</time>
      </trkpt>
      <trkpt lat="45.8597" lon="4.64641">
        <ele>275.60000610352</ele>
        <time>2020-10-09T06:44:54.250Z</time>
      </trkpt>
      <trkpt lat="45.86014" lon="4.64629">
        <ele>275.20001220703</ele>
        <time>2020-10-09T06:44:55.982Z</time>
      </trkpt>
      <trkpt lat="45.86049" lon="4.64621">
        <ele>274.79998779297</ele>
        <time>2020-10-09T06:44:57.729Z</time>
      </trkpt>
      <trkpt lat="45.86091" lon="4.6462">
        <ele>273.79998779297</ele>
        <time>2020-10-09T06:44:59.494Z</time>
      </trkpt>
      <trkpt lat="45.86127" lon="4.64616">
        <ele>272.79998779297</ele>
        <time>2020-10-09T06:45:01.274Z</time>
      </trkpt>
      <trkpt lat="45.86135" lon="4.64614">
        <ele>272.60000610352</ele>
        <time>2020-10-09T06:45:03.057Z</time>
      </trkpt>
      <trkpt lat="45.86156" lon="4.64609">
        <ele>271</ele>
        <time>2020-10-09T06:45:04.850Z</time>
      </trkpt>
      <trkpt lat="45.86172" lon="4.64607">
        <ele>270</ele>
        <time>2020-10-09T06:45:06.650Z</time>
      </trkpt>
      <trkpt lat="45.8618" lon="4.64606">
        <ele>269.39999389648</ele>
        <time>2020-10-09T06:45:08.453Z</time>
      </trkpt>
      <trkpt lat="45.86203" lon="4.64602">
        <ele>268.60000610352</ele>
        <time>2020-10-09T06:45:10.266Z</time>
      </trkpt>
      <trkpt lat="45.86217" lon="4.64599">
        <ele>267.79998779297</ele>
        <time>2020-10-09T06:45:12.085Z</time>
      </trkpt>
      <trkpt lat="45.86223" lon="4.64598">
        <ele>267.60000610352</ele>
        <time>2020-10-09T06:45:13.907Z</time>
      </trkpt>
      <trkpt lat="45.8624" lon="4.64596">
        <ele>267.39999389648</ele>
        <time>2020-10-09T06:45:15.736Z</time>
      </trkpt>
      <trkpt lat="45.8628" lon="4.6459">
        <ele>268.39999389648</ele>
        <time>2020-10-09T06:45:17.582Z</time>
      </trkpt>
      <trkpt lat="45.86285" lon="4.6459">
        <ele>268.79998779297</ele>
        <time>2020-10-09T06:45:19.430Z</time>
      </trkpt>
      <trkpt lat="45.86295" lon="4.64591">
        <ele>269.60000610352</ele>
        <time>2020-10-09T06:45:21.282Z</time>
      </trkpt>
      <trkpt lat="45.86299" lon="4.64593">
        <ele>270</ele>
        <time>2020-10-09T06:45:23.136Z</time>
      </trkpt>
      <trkpt lat="45.86303" lon="4.64595">
        <ele>270.39999389648</ele>
        <time>2020-10-09T06:45:24.992Z</time>
      </trkpt>
      <trkpt lat="45.86311" lon="4.64601">
        <ele>271.20001220703</ele>
        <time>2020-10-09T06:45:26.852Z</time>
      </trkpt>
      <trkpt lat="45.86323" lon="4.64612">
        <ele>272.39999389648</ele>
        <time>2020-10-09T06:45:28.718Z</time>
      </trkpt>
      <trkpt lat="45.86334" lon="4.64623">
        <ele>273</ele>
        <time>2020-10-09T06:45:30.589Z</time>
      </trkpt>
      <trkpt lat="45.86341" lon="4.64631">
        <ele>273.39999389648</ele>
        <time>2020-10-09T06:45:32.464Z</time>
      </trkpt>
      <trkpt lat="45.86344" lon="4.64635">
        <ele>273.39999389648</ele>
        <time>2020-10-09T06:45:34.341Z</time>
      </trkpt>
      <trkpt lat="45.86356" lon="4.64654">
        <ele>273.60000610352</ele>
        <time>2020-10-09T06:45:36.225Z</time>
      </trkpt>
      <trkpt lat="45.86359" lon="4.64658">
        <ele>273.60000610352</ele>
        <time>2020-10-09T06:45:38.111Z</time>
      </trkpt>
      <trkpt lat="45.86371" lon="4.6467">
        <ele>273.79998779297</ele>
        <time>2020-10-09T06:45:40.004Z</time>
      </trkpt>
      <trkpt lat="45.86386" lon="4.64672">
        <ele>273.79998779297</ele>
        <time>2020-10-09T06:45:41.903Z</time>
      </trkpt>
      <trkpt lat="45.86407" lon="4.64665">
        <ele>274.20001220703</ele>
        <time>2020-10-09T06:45:43.811Z</time>
      </trkpt>
      <trkpt lat="45.86432" lon="4.64654">
        <ele>273.79998779297</ele>
        <time>2020-10-09T06:45:45.730Z</time>
      </trkpt>
      <trkpt lat="45.86466" lon="4.6464">
        <ele>272.60000610352</ele>
        <time>2020-10-09T06:45:47.664Z</time>
      </trkpt>
      <trkpt lat="45.86474" lon="4.64638">
        <ele>272.20001220703</ele>
        <time>2020-10-09T06:45:49.602Z</time>
      </trkpt>
      <trkpt lat="45.86478" lon="4.64637">
        <ele>271.79998779297</ele>
        <time>2020-10-09T06:45:51.542Z</time>
      </trkpt>
      <trkpt lat="45.86491" lon="4.64632">
        <ele>271.20001220703</ele>
        <time>2020-10-09T06:45:53.487Z</time>
      </trkpt>
      <trkpt lat="45.86495" lon="4.64631">
        <ele>271</ele>
        <time>2020-10-09T06:45:55.434Z</time>
      </trkpt>
      <trkpt lat="45.86511" lon="4.64626">
        <ele>269.79998779297</ele>
        <time>2020-10-09T06:45:57.388Z</time>
      </trkpt>
      <trkpt lat="45.86518" lon="4.64624">
        <ele>269</ele>
        <time>2020-10-09T06:45:59.345Z</time>
      </trkpt>
      <trkpt lat="45.86522" lon="4.64623">
        <ele>268.79998779297</ele>
        <time>2020-10-09T06:46:01.304Z</time>
      </trkpt>
      <trkpt lat="45.86532" lon="4.64617">
        <ele>267.60000610352</ele>
        <time>2020-10-09T06:46:03.267Z</time>
      </trkpt>
      <trkpt lat="45.8654" lon="4.64614">
        <ele>267</ele>
        <time>2020-10-09T06:46:05.234Z</time>
      </trkpt>
      <trkpt lat="45.86548" lon="4.64611">
        <ele>266.60000610352</ele>
        <time>2020-10-09T06:46:07.204Z</time>
      </trkpt>
      <trkpt lat="45.86556" lon="4.64608">
        <ele>265.79998779297</ele>
        <time>2020-10-09T06:46:09.178Z</time>
      </trkpt>
      <trkpt lat="45.86564" lon="4.64605">
        <ele>265.20001220703</ele>
        <time>2020-10-09T06:46:11.155Z</time>
      </trkpt>
      <trkpt lat="45.86573" lon="4.64602">
        <ele>264.39999389648</ele>
        <time>2020-10-09T06:46:13.136Z</time>
      </trkpt>
      <trkpt lat="45.8658" lon="4.646">
        <ele>264.20001220703</ele>
        <time>2020-10-09T06:46:15.121Z</time>
      </trkpt>
      <trkpt lat="45.86599" lon="4.64594">
        <ele>263.39999389648</ele>
        <time>2020-10-09T06:46:17.114Z</time>
      </trkpt>
      <trkpt lat="45.8661" lon="4.6459">
        <ele>263</ele>
        <time>2020-10-09T06:46:19.112Z</time>
      </trkpt>
      <trkpt lat="45.86625" lon="4.64583">
        <ele>262.60000610352</ele>
        <time>2020-10-09T06:46:21.116Z</time>
      </trkpt>
      <trkpt lat="45.86633" lon="4.6458">
        <ele>261.39999389648</ele>
        <time>2020-10-09T06:46:23.124Z</time>
      </trkpt>
      <trkpt lat="45.86645" lon="4.64575">
        <ele>260.20001220703</ele>
        <time>2020-10-09T06:46:25.137Z</time>
      </trkpt>
      <trkpt lat="45.86648" lon="4.64573">
        <ele>260</ele>
        <time>2020-10-09T06:46:27.152Z</time>
      </trkpt>
      <trkpt lat="45.86667" lon="4.64564">
        <ele>259.20001220703</ele>
        <time>2020-10-09T06:46:29.175Z</time>
      </trkpt>
      <trkpt lat="45.86669" lon="4.64563">
        <ele>259</ele>
        <time>2020-10-09T06:46:31.199Z</time>
      </trkpt>
      <trkpt lat="45.86676" lon="4.64561">
        <ele>257.79998779297</ele>
        <time>2020-10-09T06:46:33.226Z</time>
      </trkpt>
      <trkpt lat="45.86677" lon="4.64562">
        <ele>257.60000610352</ele>
        <time>2020-10-09T06:46:35.253Z</time>
      </trkpt>
      <trkpt lat="45.86676" lon="4.64569">
        <ele>257</ele>
        <time>2020-10-09T06:46:37.283Z</time>
      </trkpt>
      <trkpt lat="45.86674" lon="4.64573">
        <ele>257</ele>
        <time>2020-10-09T06:46:39.314Z</time>
      </trkpt>
      <trkpt lat="45.86671" lon="4.64582">
        <ele>256.79998779297</ele>
        <time>2020-10-09T06:46:41.348Z</time>
      </trkpt>
      <trkpt lat="45.86665" lon="4.64598">
        <ele>256.60000610352</ele>
        <time>2020-10-09T06:46:43.387Z</time>
      </trkpt>
      <trkpt lat="45.86651" lon="4.64634">
        <ele>256.20001220703</ele>
        <time>2020-10-09T06:46:45.439Z</time>
      </trkpt>
      <trkpt lat="45.86634" lon="4.64673">
        <ele>256.39999389648</ele>
        <time>2020-10-09T06:46:47.504Z</time>
      </trkpt>
      <trkpt lat="45.86622" lon="4.64698">
        <ele>257.39999389648</ele>
        <time>2020-10-09T06:46:49.578Z</time>
      </trkpt>
      <trkpt lat="45.8662" lon="4.64702">
        <ele>257.60000610352</ele>
        <time>2020-10-09T06:46:51.654Z</time>
      </trkpt>
      <trkpt lat="45.8661" lon="4.64719">
        <ele>258.79998779297</ele>
        <time>2020-10-09T06:46:53.736Z</time>
      </trkpt>
      <trkpt lat="45.86609" lon="4.64723">
        <ele>259.20001220703</ele>
        <time>2020-10-09T06:46:55.820Z</time>
      </trkpt>
      <trkpt lat="45.86604" lon="4.64732">
        <ele>260</ele>
        <time>2020-10-09T06:46:57.907Z</time>
      </trkpt>
      <trkpt lat="45.86595" lon="4.64749">
        <ele>261.20001220703</ele>
        <time>2020-10-09T06:47:00.000Z</time>
      </trkpt>
      <trkpt lat="45.86593" lon="4.64752">
        <ele>261.60000610352</ele>
        <time>2020-10-09T06:47:02.094Z</time>
      </trkpt>
      <trkpt lat="45.86588" lon="4.64762">
        <ele>262.20001220703</ele>
        <time>2020-10-09T06:47:04.192Z</time>
      </trkpt>
      <trkpt lat="45.86581" lon="4.64774">
        <ele>263</ele>
        <time>2020-10-09T06:47:06.295Z</time>
      </trkpt>
      <trkpt lat="45.86578" lon="4.64781">
        <ele>263.20001220703</ele>
        <time>2020-10-09T06:47:08.400Z</time>
      </trkpt>
      <trkpt lat="45.86573" lon="4.64791">
        <ele>263.79998779297</ele>
        <time>2020-10-09T06:47:10.509Z</time>
      </trkpt>
      <trkpt lat="45.86571" lon="4.64798">
        <ele>264.20001220703</ele>
        <time>2020-10-09T06:47:12.620Z</time>
      </trkpt>
      <trkpt lat="45.86563" lon="4.64817">
        <ele>265.39999389648</ele>
        <time>2020-10-09T06:47:14.738Z</time>
      </trkpt>
      <trkpt lat="45.86554" lon="4.64835">
        <ele>266.20001220703</ele>
        <time>2020-10-09T06:47:16.862Z</time>
      </trkpt>
      <trkpt lat="45.86547" lon="4.64848">
        <ele>267.39999389648</ele>
        <time>2020-10-09T06:47:18.991Z</time>
      </trkpt>
      <trkpt lat="45.86539" lon="4.64865">
        <ele>268.39999389648</ele>
        <time>2020-10-09T06:47:21.126Z</time>
      </trkpt>
      <trkpt lat="45.86536" lon="4.64872">
        <ele>268.60000610352</ele>
        <time>2020-10-09T06:47:23.264Z</time>
      </trkpt>
      <trkpt lat="45.86528" lon="4.64893">
        <ele>269.39999389648</ele>
        <time>2020-10-09T06:47:25.409Z</time>
      </trkpt>
      <trkpt lat="45.86527" lon="4.64897">
        <ele>269.39999389648</ele>
        <time>2020-10-09T06:47:27.555Z</time>
      </trkpt>
      <trkpt lat="45.86519" lon="4.64914">
        <ele>270</ele>
        <time>2020-10-09T06:47:29.707Z</time>
      </trkpt>
      <trkpt lat="45.86518" lon="4.64921">
        <ele>270.39999389648</ele>
        <time>2020-10-09T06:47:31.861Z</time>
      </trkpt>
      <trkpt lat="45.8652" lon="4.64929">
        <ele>270.39999389648</ele>
        <time>2020-10-09T06:47:34.018Z</time>
      </trkpt>
      <trkpt lat="45.86522" lon="4.64933">
        <ele>270.39999389648</ele>
        <time>2020-10-09T06:47:36.176Z</time>
      </trkpt>
      <trkpt lat="45.86531" lon="4.64958">
        <ele>271</ele>
        <time>2020-10-09T06:47:38.343Z</time>
      </trkpt>
      <trkpt lat="45.8654" lon="4.64979">
        <ele>271</ele>
        <time>2020-10-09T06:47:40.517Z</time>
      </trkpt>
      <trkpt lat="45.86548" lon="4.65">
        <ele>271</ele>
        <time>2020-10-09T06:47:42.698Z</time>
      </trkpt>
      <trkpt lat="45.86566" lon="4.65048">
        <ele>270.39999389648</ele>
        <time>2020-10-09T06:47:44.895Z</time>
      </trkpt>
      <trkpt lat="45.86583" lon="4.65091">
        <ele>269.20001220703</ele>
        <time>2020-10-09T06:47:47.107Z</time>
      </trkpt>
      <trkpt lat="45.86586" lon="4.65098">
        <ele>268.79998779297</ele>
        <time>2020-10-09T06:47:49.322Z</time>
      </trkpt>
      <trkpt lat="45.86603" lon="4.65131">
        <ele>268</ele>
        <time>2020-10-09T06:47:51.549Z</time>
      </trkpt>
      <trkpt lat="45.86609" lon="4.65143">
        <ele>267.79998779297</ele>
        <time>2020-10-09T06:47:53.780Z</time>
      </trkpt>
      <trkpt lat="45.86624" lon="4.65167">
        <ele>266.79998779297</ele>
        <time>2020-10-09T06:47:56.021Z</time>
      </trkpt>
      <trkpt lat="45.8663" lon="4.65176">
        <ele>266.20001220703</ele>
        <time>2020-10-09T06:47:58.265Z</time>
      </trkpt>
      <trkpt lat="45.8663" lon="4.6518">
        <ele>266</ele>
        <time>2020-10-09T06:48:00.511Z</time>
      </trkpt>
      <trkpt lat="45.8663" lon="4.65184">
        <ele>265.79998779297</ele>
        <time>2020-10-09T06:48:02.758Z</time>
      </trkpt>
      <trkpt lat="45.86629" lon="4.65187">
        <ele>265.39999389648</ele>
        <time>2020-10-09T06:48:05.006Z</time>
      </trkpt>
      <trkpt lat="45.86625" lon="4.65193">
        <ele>264.79998779297</ele>
        <time>2020-10-09T06:48:07.256Z</time>
      </trkpt>
      <trkpt lat="45.86623" lon="4.65196">
        <ele>264.39999389648</ele>
        <time>2020-10-09T06:48:09.507Z</time>
      </trkpt>
      <trkpt lat="45.86617" lon="4.65208">
        <ele>263.79998779297</ele>
        <time>2020-10-09T06:48:11.763Z</time>
      </trkpt>
      <trkpt lat="45.86595" lon="4.65244">
        <ele>263.79998779297</ele>
        <time>2020-10-09T06:48:14.033Z</time>
      </trkpt>
      <trkpt lat="45.86579" lon="4.65277">
        <ele>264</ele>
        <time>2020-10-09T06:48:16.315Z</time>
      </trkpt>
      <trkpt lat="45.86552" lon="4.65323">
        <ele>263.20001220703</ele>
        <time>2020-10-09T06:48:18.615Z</time>
      </trkpt>
      <trkpt lat="45.86531" lon="4.65361">
        <ele>262</ele>
        <time>2020-10-09T06:48:20.929Z</time>
      </trkpt>
      <trkpt lat="45.86527" lon="4.65384">
        <ele>261</ele>
        <time>2020-10-09T06:48:23.250Z</time>
      </trkpt>
      <trkpt lat="45.86526" lon="4.65392">
        <ele>260.79998779297</ele>
        <time>2020-10-09T06:48:25.574Z</time>
      </trkpt>
      <trkpt lat="45.86522" lon="4.65417">
        <ele>260</ele>
        <time>2020-10-09T06:48:27.905Z</time>
      </trkpt>
      <trkpt lat="45.8652" lon="4.65431">
        <ele>259.39999389648</ele>
        <time>2020-10-09T06:48:30.241Z</time>
      </trkpt>
      <trkpt lat="45.86516" lon="4.65444">
        <ele>259</ele>
        <time>2020-10-09T06:48:32.581Z</time>
      </trkpt>
      <trkpt lat="45.86504" lon="4.65482">
        <ele>258.39999389648</ele>
        <time>2020-10-09T06:48:34.933Z</time>
      </trkpt>
      <trkpt lat="45.86495" lon="4.65527">
        <ele>258.79998779297</ele>
        <time>2020-10-09T06:48:37.299Z</time>
      </trkpt>
      <trkpt lat="45.86486" lon="4.65566">
        <ele>260</ele>
        <time>2020-10-09T06:48:39.678Z</time>
      </trkpt>
      <trkpt lat="45.86484" lon="4.65571">
        <ele>260.20001220703</ele>
        <time>2020-10-09T06:48:42.058Z</time>
      </trkpt>
      <trkpt lat="45.86477" lon="4.65596">
        <ele>261.60000610352</ele>
        <time>2020-10-09T06:48:44.446Z</time>
      </trkpt>
      <trkpt lat="45.86474" lon="4.65606">
        <ele>262.20001220703</ele>
        <time>2020-10-09T06:48:46.838Z</time>
      </trkpt>
      <trkpt lat="45.86472" lon="4.65617">
        <ele>262.60000610352</ele>
        <time>2020-10-09T06:48:49.233Z</time>
      </trkpt>
      <trkpt lat="45.86464" lon="4.65634">
        <ele>263.60000610352</ele>
        <time>2020-10-09T06:48:51.634Z</time>
      </trkpt>
      <trkpt lat="45.86461" lon="4.65636">
        <ele>263.79998779297</ele>
        <time>2020-10-09T06:48:54.036Z</time>
      </trkpt>
      <trkpt lat="45.86446" lon="4.65632">
        <ele>264.20001220703</ele>
        <time>2020-10-09T06:48:56.445Z</time>
      </trkpt>
      <trkpt lat="45.86432" lon="4.65625">
        <ele>264.60000610352</ele>
        <time>2020-10-09T06:48:58.861Z</time>
      </trkpt>
      <trkpt lat="45.86424" lon="4.65626">
        <ele>264.79998779297</ele>
        <time>2020-10-09T06:49:01.280Z</time>
      </trkpt>
      <trkpt lat="45.86409" lon="4.65642">
        <ele>265</ele>
        <time>2020-10-09T06:49:03.707Z</time>
      </trkpt>
      <trkpt lat="45.86387" lon="4.65661">
        <ele>265</ele>
        <time>2020-10-09T06:49:06.145Z</time>
      </trkpt>
      <trkpt lat="45.86383" lon="4.65663">
        <ele>265</ele>
        <time>2020-10-09T06:49:08.585Z</time>
      </trkpt>
      <trkpt lat="45.86369" lon="4.65667">
        <ele>265</ele>
        <time>2020-10-09T06:49:11.030Z</time>
      </trkpt>
      <trkpt lat="45.86361" lon="4.65677">
        <ele>264.60000610352</ele>
        <time>2020-10-09T06:49:13.480Z</time>
      </trkpt>
      <trkpt lat="45.86359" lon="4.65682">
        <ele>264.60000610352</ele>
        <time>2020-10-09T06:49:15.932Z</time>
      </trkpt>
      <trkpt lat="45.86338" lon="4.65721">
        <ele>263.60000610352</ele>
        <time>2020-10-09T06:49:18.398Z</time>
      </trkpt>
      <trkpt lat="45.86331" lon="4.65733">
        <ele>262.39999389648</ele>
        <time>2020-10-09T06:49:20.869Z</time>
      </trkpt>
      <trkpt lat="45.86328" lon="4.65739">
        <ele>262</ele>
        <time>2020-10-09T06:49:23.342Z</time>
      </trkpt>
      <trkpt lat="45.86307" lon="4.65775">
        <ele>261.39999389648</ele>
        <time>2020-10-09T06:49:25.829Z</time>
      </trkpt>
      <trkpt lat="45.86303" lon="4.65782">
        <ele>261</ele>
        <time>2020-10-09T06:49:28.319Z</time>
      </trkpt>
      <trkpt lat="45.86295" lon="4.65798">
        <ele>260.20001220703</ele>
        <time>2020-10-09T06:49:30.815Z</time>
      </trkpt>
      <trkpt lat="45.86282" lon="4.6582">
        <ele>259.20001220703</ele>
        <time>2020-10-09T06:49:33.319Z</time>
      </trkpt>
      <trkpt lat="45.86273" lon="4.65834">
        <ele>258.20001220703</ele>
        <time>2020-10-09T06:49:35.829Z</time>
      </trkpt>
      <trkpt lat="45.86269" lon="4.65842">
        <ele>257.79998779297</ele>
        <time>2020-10-09T06:49:38.342Z</time>
      </trkpt>
      <trkpt lat="45.86258" lon="4.65863">
        <ele>256.79998779297</ele>
        <time>2020-10-09T06:49:40.863Z</time>
      </trkpt>
      <trkpt lat="45.86247" lon="4.65881">
        <ele>256</ele>
        <time>2020-10-09T06:49:43.391Z</time>
      </trkpt>
      <trkpt lat="45.86245" lon="4.65886">
        <ele>255.60000610352</ele>
        <time>2020-10-09T06:49:45.921Z</time>
      </trkpt>
      <trkpt lat="45.86233" lon="4.659">
        <ele>254.60000610352</ele>
        <time>2020-10-09T06:49:48.457Z</time>
      </trkpt>
      <trkpt lat="45.8623" lon="4.65902">
        <ele>254.60000610352</ele>
        <time>2020-10-09T06:49:50.994Z</time>
      </trkpt>
      <trkpt lat="45.86218" lon="4.65906">
        <ele>254.60000610352</ele>
        <time>2020-10-09T06:49:53.537Z</time>
      </trkpt>
      <trkpt lat="45.86199" lon="4.65918">
        <ele>255.60000610352</ele>
        <time>2020-10-09T06:49:56.089Z</time>
      </trkpt>
      <trkpt lat="45.86188" lon="4.65925">
        <ele>256.60000610352</ele>
        <time>2020-10-09T06:49:58.646Z</time>
      </trkpt>
      <trkpt lat="45.86185" lon="4.65927">
        <ele>256.79998779297</ele>
        <time>2020-10-09T06:50:01.204Z</time>
      </trkpt>
      <trkpt lat="45.86172" lon="4.65937">
        <ele>258.20001220703</ele>
        <time>2020-10-09T06:50:03.768Z</time>
      </trkpt>
      <trkpt lat="45.86165" lon="4.65942">
        <ele>258.39999389648</ele>
        <time>2020-10-09T06:50:06.336Z</time>
      </trkpt>
      <trkpt lat="45.86143" lon="4.65961">
        <ele>259</ele>
        <time>2020-10-09T06:50:08.915Z</time>
      </trkpt>
      <trkpt lat="45.8614" lon="4.65964">
        <ele>259.20001220703</ele>
        <time>2020-10-09T06:50:11.495Z</time>
      </trkpt>
      <trkpt lat="45.86124" lon="4.65976">
        <ele>260.20001220703</ele>
        <time>2020-10-09T06:50:14.083Z</time>
      </trkpt>
      <trkpt lat="45.86112" lon="4.6597">
        <ele>260.79998779297</ele>
        <time>2020-10-09T06:50:16.676Z</time>
      </trkpt>
      <trkpt lat="45.86103" lon="4.65972">
        <ele>261</ele>
        <time>2020-10-09T06:50:19.273Z</time>
      </trkpt>
      <trkpt lat="45.86097" lon="4.65983">
        <ele>261.20001220703</ele>
        <time>2020-10-09T06:50:21.874Z</time>
      </trkpt>
      <trkpt lat="45.86094" lon="4.65992">
        <ele>261.60000610352</ele>
        <time>2020-10-09T06:50:24.478Z</time>
      </trkpt>
      <trkpt lat="45.86084" lon="4.66015">
        <ele>262.20001220703</ele>
        <time>2020-10-09T06:50:27.090Z</time>
      </trkpt>
      <trkpt lat="45.86078" lon="4.66031">
        <ele>262.60000610352</ele>
        <time>2020-10-09T06:50:29.708Z</time>
      </trkpt>
      <trkpt lat="45.86068" lon="4.66056">
        <ele>263.20001220703</ele>
        <time>2020-10-09T06:50:32.334Z</time>
      </trkpt>
      <trkpt lat="45.86066" lon="4.66061">
        <ele>263.60000610352</ele>
        <time>2020-10-09T06:50:34.962Z</time>
      </trkpt>
      <trkpt lat="45.86058" lon="4.66075">
        <ele>264.20001220703</ele>
        <time>2020-10-09T06:50:37.595Z</time>
      </trkpt>
      <trkpt lat="45.86055" lon="4.66079">
        <ele>264.39999389648</ele>
        <time>2020-10-09T06:50:40.230Z</time>
      </trkpt>
      <trkpt lat="45.86052" lon="4.66083">
        <ele>264.39999389648</ele>
        <time>2020-10-09T06:50:42.867Z</time>
      </trkpt>
      <trkpt lat="45.86041" lon="4.66093">
        <ele>264.79998779297</ele>
        <time>2020-10-09T06:50:45.509Z</time>
      </trkpt>
      <trkpt lat="45.8603" lon="4.66102">
        <ele>265</ele>
        <time>2020-10-09T06:50:48.157Z</time>
      </trkpt>
      <trkpt lat="45.86004" lon="4.66127">
        <ele>265.20001220703</ele>
        <time>2020-10-09T06:50:50.818Z</time>
      </trkpt>
      <trkpt lat="45.85992" lon="4.66143">
        <ele>265.39999389648</ele>
        <time>2020-10-09T06:50:53.486Z</time>
      </trkpt>
      <trkpt lat="45.85984" lon="4.66156">
        <ele>265.79998779297</ele>
        <time>2020-10-09T06:50:56.160Z</time>
      </trkpt>
      <trkpt lat="45.8596" lon="4.662">
        <ele>266</ele>
        <time>2020-10-09T06:50:58.850Z</time>
      </trkpt>
      <trkpt lat="45.85938" lon="4.66242">
        <ele>266.20001220703</ele>
        <time>2020-10-09T06:51:01.556Z</time>
      </trkpt>
      <trkpt lat="45.8593" lon="4.66258">
        <ele>266.39999389648</ele>
        <time>2020-10-09T06:51:04.268Z</time>
      </trkpt>
      <trkpt lat="45.85921" lon="4.66274">
        <ele>266.79998779297</ele>
        <time>2020-10-09T06:51:06.985Z</time>
      </trkpt>
      <trkpt lat="45.85913" lon="4.66289">
        <ele>267</ele>
        <time>2020-10-09T06:51:09.708Z</time>
      </trkpt>
      <trkpt lat="45.85897" lon="4.66327">
        <ele>267</ele>
        <time>2020-10-09T06:51:12.444Z</time>
      </trkpt>
      <trkpt lat="45.85879" lon="4.66376">
        <ele>266</ele>
        <time>2020-10-09T06:51:15.197Z</time>
      </trkpt>
      <trkpt lat="45.85869" lon="4.66408">
        <ele>265</ele>
        <time>2020-10-09T06:51:17.960Z</time>
      </trkpt>
      <trkpt lat="45.85866" lon="4.66424">
        <ele>263.39999389648</ele>
        <time>2020-10-09T06:51:20.728Z</time>
      </trkpt>
      <trkpt lat="45.85862" lon="4.6644">
        <ele>262.79998779297</ele>
        <time>2020-10-09T06:51:23.501Z</time>
      </trkpt>
      <trkpt lat="45.85857" lon="4.66468">
        <ele>262.39999389648</ele>
        <time>2020-10-09T06:51:26.283Z</time>
      </trkpt>
      <trkpt lat="45.85849" lon="4.6651">
        <ele>260.39999389648</ele>
        <time>2020-10-09T06:51:29.078Z</time>
      </trkpt>
      <trkpt lat="45.85844" lon="4.66531">
        <ele>259.39999389648</ele>
        <time>2020-10-09T06:51:31.879Z</time>
      </trkpt>
      <trkpt lat="45.85842" lon="4.6654">
        <ele>258.79998779297</ele>
        <time>2020-10-09T06:51:34.683Z</time>
      </trkpt>
      <trkpt lat="45.85834" lon="4.66552">
        <ele>257.60000610352</ele>
        <time>2020-10-09T06:51:37.492Z</time>
      </trkpt>
      <trkpt lat="45.85825" lon="4.66559">
        <ele>256</ele>
        <time>2020-10-09T06:51:40.306Z</time>
      </trkpt>
      <trkpt lat="45.85817" lon="4.66569">
        <ele>254.39999389648</ele>
        <time>2020-10-09T06:51:43.124Z</time>
      </trkpt>
      <trkpt lat="45.85815" lon="4.66586">
        <ele>253.19999694824</ele>
        <time>2020-10-09T06:51:45.947Z</time>
      </trkpt>
      <trkpt lat="45.85817" lon="4.66596">
        <ele>253</ele>
        <time>2020-10-09T06:51:48.773Z</time>
      </trkpt>
      <trkpt lat="45.85824" lon="4.66616">
        <ele>252</ele>
        <time>2020-10-09T06:51:51.606Z</time>
      </trkpt>
      <trkpt lat="45.8583" lon="4.66626">
        <ele>251.39999389648</ele>
        <time>2020-10-09T06:51:54.443Z</time>
      </trkpt>
      <trkpt lat="45.85835" lon="4.66636">
        <ele>251</ele>
        <time>2020-10-09T06:51:57.284Z</time>
      </trkpt>
      <trkpt lat="45.85855" lon="4.66658">
        <ele>249.39999389648</ele>
        <time>2020-10-09T06:52:00.135Z</time>
      </trkpt>
      <trkpt lat="45.85861" lon="4.66663">
        <ele>248.60000610352</ele>
        <time>2020-10-09T06:52:02.989Z</time>
      </trkpt>
      <trkpt lat="45.85866" lon="4.66668">
        <ele>247.39999389648</ele>
        <time>2020-10-09T06:52:05.846Z</time>
      </trkpt>
      <trkpt lat="45.85869" lon="4.66674">
        <ele>246.39999389648</ele>
        <time>2020-10-09T06:52:08.705Z</time>
      </trkpt>
      <trkpt lat="45.85869" lon="4.66682">
        <ele>245.19999694824</ele>
        <time>2020-10-09T06:52:11.566Z</time>
      </trkpt>
      <trkpt lat="45.85868" lon="4.66689">
        <ele>244</ele>
        <time>2020-10-09T06:52:14.430Z</time>
      </trkpt>
      <trkpt lat="45.85856" lon="4.66699">
        <ele>242.19999694824</ele>
        <time>2020-10-09T06:52:17.300Z</time>
      </trkpt>
      <trkpt lat="45.85839" lon="4.66703">
        <ele>240.39999389648</ele>
        <time>2020-10-09T06:52:20.177Z</time>
      </trkpt>
      <trkpt lat="45.8582" lon="4.6671">
        <ele>239.60000610352</ele>
        <time>2020-10-09T06:52:23.062Z</time>
      </trkpt>
      <trkpt lat="45.85811" lon="4.66717">
        <ele>239</ele>
        <time>2020-10-09T06:52:25.952Z</time>
      </trkpt>
      <trkpt lat="45.85804" lon="4.66728">
        <ele>238.19999694824</ele>
        <time>2020-10-09T06:52:28.846Z</time>
      </trkpt>
      <trkpt lat="45.85798" lon="4.6674">
        <ele>236.80000305176</ele>
        <time>2020-10-09T06:52:31.744Z</time>
      </trkpt>
      <trkpt lat="45.85793" lon="4.66754">
        <ele>235.19999694824</ele>
        <time>2020-10-09T06:52:34.647Z</time>
      </trkpt>
      <trkpt lat="45.85788" lon="4.66768">
        <ele>233.60000610352</ele>
        <time>2020-10-09T06:52:37.555Z</time>
      </trkpt>
      <trkpt lat="45.85784" lon="4.66783">
        <ele>232.19999694824</ele>
        <time>2020-10-09T06:52:40.467Z</time>
      </trkpt>
      <trkpt lat="45.85779" lon="4.66797">
        <ele>231</ele>
        <time>2020-10-09T06:52:43.384Z</time>
      </trkpt>
      <trkpt lat="45.85774" lon="4.66811">
        <ele>229.39999389648</ele>
        <time>2020-10-09T06:52:46.306Z</time>
      </trkpt>
      <trkpt lat="45.85769" lon="4.66825">
        <ele>228.19999694824</ele>
        <time>2020-10-09T06:52:49.232Z</time>
      </trkpt>
      <trkpt lat="45.85763" lon="4.66839">
        <ele>227</ele>
        <time>2020-10-09T06:52:52.163Z</time>
      </trkpt>
      <trkpt lat="45.85757" lon="4.66852">
        <ele>226.60000610352</ele>
        <time>2020-10-09T06:52:55.099Z</time>
      </trkpt>
      <trkpt lat="45.85752" lon="4.66864">
        <ele>225.80000305176</ele>
        <time>2020-10-09T06:52:58.039Z</time>
      </trkpt>
      <trkpt lat="45.85741" lon="4.66885">
        <ele>224.39999389648</ele>
        <time>2020-10-09T06:53:00.987Z</time>
      </trkpt>
      <trkpt lat="45.85736" lon="4.66893">
        <ele>223.60000610352</ele>
        <time>2020-10-09T06:53:03.938Z</time>
      </trkpt>
      <trkpt lat="45.85731" lon="4.66901">
        <ele>223</ele>
        <time>2020-10-09T06:53:06.892Z</time>
      </trkpt>
      <trkpt lat="45.8572" lon="4.6691">
        <ele>222</ele>
        <time>2020-10-09T06:53:09.852Z</time>
      </trkpt>
      <trkpt lat="45.85715" lon="4.66913">
        <ele>221.19999694824</ele>
        <time>2020-10-09T06:53:12.814Z</time>
      </trkpt>
      <trkpt lat="45.85706" lon="4.66913">
        <ele>219.80000305176</ele>
        <time>2020-10-09T06:53:15.780Z</time>
      </trkpt>
      <trkpt lat="45.85701" lon="4.66912">
        <ele>218.60000610352</ele>
        <time>2020-10-09T06:53:18.748Z</time>
      </trkpt>
      <trkpt lat="45.857" lon="4.66912">
        <ele>217</ele>
        <time>2020-10-09T06:53:21.717Z</time>
      </trkpt>
      <trkpt lat="45.857" lon="4.66912">
        <ele>215.19999694824</ele>
        <time>2020-10-09T06:53:24.686Z</time>
      </trkpt>
      <trkpt lat="45.85699" lon="4.66912">
        <ele>214.19999694824</ele>
        <time>2020-10-09T06:53:27.655Z</time>
      </trkpt>
      <trkpt lat="45.85699" lon="4.66912">
        <ele>214.19999694824</ele>
        <time>2020-10-09T06:53:30.624Z</time>
      </trkpt>
      <trkpt lat="45.85699" lon="4.66912">
        <ele>214.39999389648</ele>
        <time>2020-10-09T06:53:33.593Z</time>
      </trkpt>
      <trkpt lat="45.85699" lon="4.66912">
        <ele>214.19999694824</ele>
        <time>2020-10-09T06:53:36.562Z</time>
      </trkpt>
      <trkpt lat="45.85696" lon="4.66912">
        <ele>214.19999694824</ele>
        <time>2020-10-09T06:53:39.532Z</time>
      </trkpt>
      <trkpt lat="45.8568" lon="4.66916">
        <ele>214.19999694824</ele>
        <time>2020-10-09T06:53:42.510Z</time>
      </trkpt>
      <trkpt lat="45.85652" lon="4.6692">
        <ele>213.80000305176</ele>
        <time>2020-10-09T06:53:45.499Z</time>
      </trkpt>
      <trkpt lat="45.85615" lon="4.66926">
        <ele>213.60000610352</ele>
        <time>2020-10-09T06:53:48.504Z</time>
      </trkpt>
      <trkpt lat="45.85596" lon="4.66931">
        <ele>212.60000610352</ele>
        <time>2020-10-09T06:53:51.518Z</time>
      </trkpt>
      <trkpt lat="45.85589" lon="4.66933">
        <ele>211.60000610352</ele>
        <time>2020-10-09T06:53:54.534Z</time>
      </trkpt>
      <trkpt lat="45.85578" lon="4.66936">
        <ele>210.80000305176</ele>
        <time>2020-10-09T06:53:57.555Z</time>
      </trkpt>
      <trkpt lat="45.85558" lon="4.66941">
        <ele>210.60000610352</ele>
        <time>2020-10-09T06:54:00.585Z</time>
      </trkpt>
      <trkpt lat="45.8554" lon="4.66944">
        <ele>210.60000610352</ele>
        <time>2020-10-09T06:54:03.623Z</time>
      </trkpt>
      <trkpt lat="45.85534" lon="4.66943">
        <ele>210.60000610352</ele>
        <time>2020-10-09T06:54:06.663Z</time>
      </trkpt>
      <trkpt lat="45.85533" lon="4.66941">
        <ele>210.80000305176</ele>
        <time>2020-10-09T06:54:09.704Z</time>
      </trkpt>
      <trkpt lat="45.85529" lon="4.66928">
        <ele>211.19999694824</ele>
        <time>2020-10-09T06:54:12.749Z</time>
      </trkpt>
      <trkpt lat="45.85527" lon="4.66916">
        <ele>211.19999694824</ele>
        <time>2020-10-09T06:54:15.798Z</time>
      </trkpt>
      <trkpt lat="45.85523" lon="4.66888">
        <ele>211.19999694824</ele>
        <time>2020-10-09T06:54:18.855Z</time>
      </trkpt>
      <trkpt lat="45.85522" lon="4.66881">
        <ele>211.19999694824</ele>
        <time>2020-10-09T06:54:21.915Z</time>
      </trkpt>
      <trkpt lat="45.85521" lon="4.66872">
        <ele>211.19999694824</ele>
        <time>2020-10-09T06:54:24.977Z</time>
      </trkpt>
      <trkpt lat="45.85521" lon="4.66842">
        <ele>209.60000610352</ele>
        <time>2020-10-09T06:54:28.048Z</time>
      </trkpt>
      <trkpt lat="45.85521" lon="4.66836">
        <ele>209.19999694824</ele>
        <time>2020-10-09T06:54:31.121Z</time>
      </trkpt>
      <trkpt lat="45.85521" lon="4.66823">
        <ele>208.39999389648</ele>
        <time>2020-10-09T06:54:34.198Z</time>
      </trkpt>
      <trkpt lat="45.85519" lon="4.6681">
        <ele>208.19999694824</ele>
        <time>2020-10-09T06:54:37.279Z</time>
      </trkpt>
      <trkpt lat="45.85518" lon="4.66797">
        <ele>208.19999694824</ele>
        <time>2020-10-09T06:54:40.364Z</time>
      </trkpt>
      <trkpt lat="45.85513" lon="4.66781">
        <ele>208.19999694824</ele>
        <time>2020-10-09T06:54:43.454Z</time>
      </trkpt>
      <trkpt lat="45.85504" lon="4.66749">
        <ele>208.39999389648</ele>
        <time>2020-10-09T06:54:46.554Z</time>
      </trkpt>
      <trkpt lat="45.85502" lon="4.66717">
        <ele>209</ele>
        <time>2020-10-09T06:54:49.664Z</time>
      </trkpt>
      <trkpt lat="45.85501" lon="4.66711">
        <ele>209</ele>
        <time>2020-10-09T06:54:52.776Z</time>
      </trkpt>
      <trkpt lat="45.85499" lon="4.66694">
        <ele>209.19999694824</ele>
        <time>2020-10-09T06:54:55.893Z</time>
      </trkpt>
      <trkpt lat="45.85498" lon="4.66669">
        <ele>209.39999389648</ele>
        <time>2020-10-09T06:54:59.017Z</time>
      </trkpt>
      <trkpt lat="45.85498" lon="4.66646">
        <ele>209.39999389648</ele>
        <time>2020-10-09T06:55:02.148Z</time>
      </trkpt>
      <trkpt lat="45.85498" lon="4.66633">
        <ele>209.39999389648</ele>
        <time>2020-10-09T06:55:05.283Z</time>
      </trkpt>
      <trkpt lat="45.85498" lon="4.66625">
        <ele>209.39999389648</ele>
        <time>2020-10-09T06:55:08.420Z</time>
      </trkpt>
      <trkpt lat="45.85501" lon="4.66596">
        <ele>209.60000610352</ele>
        <time>2020-10-09T06:55:11.566Z</time>
      </trkpt>
      <trkpt lat="45.85501" lon="4.6659">
        <ele>209.60000610352</ele>
        <time>2020-10-09T06:55:14.714Z</time>
      </trkpt>
      <trkpt lat="45.85494" lon="4.66576">
        <ele>209.60000610352</ele>
        <time>2020-10-09T06:55:17.867Z</time>
      </trkpt>
      <trkpt lat="45.85485" lon="4.66572">
        <ele>209.80000305176</ele>
        <time>2020-10-09T06:55:21.024Z</time>
      </trkpt>
      <trkpt lat="45.85482" lon="4.66571">
        <ele>209.80000305176</ele>
        <time>2020-10-09T06:55:24.182Z</time>
      </trkpt>
      <trkpt lat="45.85479" lon="4.66568">
        <ele>210</ele>
        <time>2020-10-09T06:55:27.341Z</time>
      </trkpt>
      <trkpt lat="45.85477" lon="4.66564">
        <ele>210</ele>
        <time>2020-10-09T06:55:30.502Z</time>
      </trkpt>
      <trkpt lat="45.85474" lon="4.66557">
        <ele>210.39999389648</ele>
        <time>2020-10-09T06:55:33.665Z</time>
      </trkpt>
      <trkpt lat="45.85473" lon="4.66549">
        <ele>210.60000610352</ele>
        <time>2020-10-09T06:55:36.831Z</time>
      </trkpt>
      <trkpt lat="45.85471" lon="4.66535">
        <ele>211</ele>
        <time>2020-10-09T06:55:40.001Z</time>
      </trkpt>
      <trkpt lat="45.85467" lon="4.66509">
        <ele>212.19999694824</ele>
        <time>2020-10-09T06:55:43.179Z</time>
      </trkpt>
      <trkpt lat="45.85466" lon="4.66505">
        <ele>212.60000610352</ele>
        <time>2020-10-09T06:55:46.358Z</time>
      </trkpt>
      <trkpt lat="45.85468" lon="4.66493">
        <ele>213.39999389648</ele>
        <time>2020-10-09T06:55:49.541Z</time>
      </trkpt>
      <trkpt lat="45.8547" lon="4.6648">
        <ele>214.60000610352</ele>
        <time>2020-10-09T06:55:52.728Z</time>
      </trkpt>
      <trkpt lat="45.85472" lon="4.66471">
        <ele>215.80000305176</ele>
        <time>2020-10-09T06:55:55.918Z</time>
      </trkpt>
      <trkpt lat="45.85477" lon="4.66454">
        <ele>216.80000305176</ele>
        <time>2020-10-09T06:55:59.113Z</time>
      </trkpt>
      <trkpt lat="45.85479" lon="4.66446">
        <ele>217.39999389648</ele>
        <time>2020-10-09T06:56:02.311Z</time>
      </trkpt>
      <trkpt lat="45.85481" lon="4.66438">
        <ele>218</ele>
        <time>2020-10-09T06:56:05.511Z</time>
      </trkpt>
      <trkpt lat="45.85484" lon="4.66426">
        <ele>219</ele>
        <time>2020-10-09T06:56:08.715Z</time>
      </trkpt>
      <trkpt lat="45.85485" lon="4.66422">
        <ele>219.39999389648</ele>
        <time>2020-10-09T06:56:11.920Z</time>
      </trkpt>
      <trkpt lat="45.85488" lon="4.66414">
        <ele>220.39999389648</ele>
        <time>2020-10-09T06:56:15.128Z</time>
      </trkpt>
      <trkpt lat="45.8549" lon="4.664">
        <ele>221.39999389648</ele>
        <time>2020-10-09T06:56:18.340Z</time>
      </trkpt>
      <trkpt lat="45.85491" lon="4.66396">
        <ele>221.60000610352</ele>
        <time>2020-10-09T06:56:21.553Z</time>
      </trkpt>
      <trkpt lat="45.85492" lon="4.66387">
        <ele>222.60000610352</ele>
        <time>2020-10-09T06:56:24.769Z</time>
      </trkpt>
      <trkpt lat="45.85493" lon="4.66375">
        <ele>223.80000305176</ele>
        <time>2020-10-09T06:56:27.989Z</time>
      </trkpt>
      <trkpt lat="45.85493" lon="4.66373">
        <ele>224</ele>
        <time>2020-10-09T06:56:31.209Z</time>
      </trkpt>
      <trkpt lat="45.85493" lon="4.6637">
        <ele>225</ele>
        <time>2020-10-09T06:56:34.430Z</time>
      </trkpt>
      <trkpt lat="45.85493" lon="4.66369">
        <ele>225.39999389648</ele>
        <time>2020-10-09T06:56:37.651Z</time>
      </trkpt>
      <trkpt lat="45.85492" lon="4.66369">
        <ele>226.19999694824</ele>
        <time>2020-10-09T06:56:40.873Z</time>
      </trkpt>
      <trkpt lat="45.85492" lon="4.66369">
        <ele>227.39999389648</ele>
        <time>2020-10-09T06:56:44.095Z</time>
      </trkpt>
      <trkpt lat="45.85491" lon="4.6637">
        <ele>228</ele>
        <time>2020-10-09T06:56:47.317Z</time>
      </trkpt>
      <trkpt lat="45.85491" lon="4.66371">
        <ele>228</ele>
        <time>2020-10-09T06:56:50.540Z</time>
      </trkpt>
      <trkpt lat="45.8549" lon="4.6638">
        <ele>227.80000305176</ele>
        <time>2020-10-09T06:56:53.765Z</time>
      </trkpt>
      <trkpt lat="45.8549" lon="4.66382">
        <ele>227.39999389648</ele>
        <time>2020-10-09T06:56:56.991Z</time>
      </trkpt>
      <trkpt lat="45.85491" lon="4.66383">
        <ele>227</ele>
        <time>2020-10-09T06:57:00.217Z</time>
      </trkpt>
      <trkpt lat="45.85491" lon="4.66383">
        <ele>226.39999389648</ele>
        <time>2020-10-09T06:57:03.443Z</time>
      </trkpt>
      <trkpt lat="45.85491" lon="4.66383">
        <ele>226.39999389648</ele>
        <time>2020-10-09T06:57:06.669Z</time>
      </trkpt>
      <trkpt lat="45.85491" lon="4.66383">
        <ele>226.39999389648</ele>
        <time>2020-10-09T06:57:09.896Z</time>
      </trkpt>
      <trkpt lat="45.85491" lon="4.66383">
        <ele>226.60000610352</ele>
        <time>2020-10-09T06:57:13.123Z</time>
      </trkpt>
      <trkpt lat="45.85491" lon="4.66383">
        <ele>226.19999694824</ele>
        <time>2020-10-09T06:57:16.350Z</time>
      </trkpt>
      <trkpt lat="45.85492" lon="4.66383">
        <ele>226</ele>
        <time>2020-10-09T06:57:19.577Z</time>
      </trkpt>
      <trkpt lat="45.85492" lon="4.66383">
        <ele>226.39999389648</ele>
        <time>2020-10-09T06:57:22.804Z</time>
      </trkpt>
      <trkpt lat="45.85492" lon="4.66383">
        <ele>226.39999389648</ele>
        <time>2020-10-09T06:57:26.031Z</time>
      </trkpt>
      <trkpt lat="45.85492" lon="4.66383">
        <ele>226.60000610352</ele>
        <time>2020-10-09T06:57:29.258Z</time>
      </trkpt>
      <trkpt lat="45.85492" lon="4.66383">
        <ele>226.80000305176</ele>
        <time>2020-10-09T06:57:32.485Z</time>
      </trkpt>
      <trkpt lat="45.85492" lon="4.66383">
        <ele>227</ele>
        <time>2020-10-09T06:57:35.712Z</time>
      </trkpt>
      <trkpt lat="45.85492" lon="4.66384">
        <ele>227.39999389648</ele>
        <time>2020-10-09T06:57:38.939Z</time>
      </trkpt>
      <trkpt lat="45.85492" lon="4.66383">
        <ele>227.39999389648</ele>
        <time>2020-10-09T06:57:42.166Z</time>
      </trkpt>
      <trkpt lat="45.85491" lon="4.66383">
        <ele>227.39999389648</ele>
        <time>2020-10-09T06:57:45.394Z</time>
      </trkpt>
      <trkpt lat="45.85491" lon="4.66383">
        <ele>227.80000305176</ele>
        <time>2020-10-09T06:57:48.622Z</time>
      </trkpt>
      <trkpt lat="45.85491" lon="4.66383">
        <ele>227.80000305176</ele>
        <time>2020-10-09T06:57:51.850Z</time>
      </trkpt>
      <trkpt lat="45.85491" lon="4.6638">
        <ele>227.80000305176</ele>
        <time>2020-10-09T06:57:55.079Z</time>
      </trkpt>
      <trkpt lat="45.85491" lon="4.66376">
        <ele>227.80000305176</ele>
        <time>2020-10-09T06:57:58.309Z</time>
      </trkpt>
      <trkpt lat="45.85491" lon="4.6637">
        <ele>228</ele>
        <time>2020-10-09T06:58:01.541Z</time>
      </trkpt>
      <trkpt lat="45.85491" lon="4.66369">
        <ele>228.19999694824</ele>
        <time>2020-10-09T06:58:04.773Z</time>
      </trkpt>
      <trkpt lat="45.85491" lon="4.66364">
        <ele>228.60000610352</ele>
        <time>2020-10-09T06:58:08.007Z</time>
      </trkpt>
      <trkpt lat="45.85491" lon="4.66364">
        <ele>229.19999694824</ele>
        <time>2020-10-09T06:58:11.241Z</time>
      </trkpt>
      <trkpt lat="45.85492" lon="4.66352">
        <ele>229.19999694824</ele>
        <time>2020-10-09T06:58:14.478Z</time>
      </trkpt>
      <trkpt lat="45.85494" lon="4.66339">
        <ele>229.60000610352</ele>
        <time>2020-10-09T06:58:17.719Z</time>
      </trkpt>
      <trkpt lat="45.85495" lon="4.66331">
        <ele>230.19999694824</ele>
        <time>2020-10-09T06:58:20.962Z</time>
      </trkpt>
      <trkpt lat="45.85497" lon="4.66324">
        <ele>230.60000610352</ele>
        <time>2020-10-09T06:58:24.208Z</time>
      </trkpt>
      <trkpt lat="45.85498" lon="4.6632">
        <ele>231</ele>
        <time>2020-10-09T06:58:27.455Z</time>
      </trkpt>
      <trkpt lat="45.85498" lon="4.6632">
        <ele>231.19999694824</ele>
        <time>2020-10-09T06:58:30.702Z</time>
      </trkpt>
      <trkpt lat="45.85499" lon="4.6632">
        <ele>231.39999389648</ele>
        <time>2020-10-09T06:58:33.949Z</time>
      </trkpt>
      <trkpt lat="45.85499" lon="4.6632">
        <ele>231.19999694824</ele>
        <time>2020-10-09T06:58:37.197Z</time>
      </trkpt>
      <trkpt lat="45.85499" lon="4.6632">
        <ele>231.39999389648</ele>
        <time>2020-10-09T06:58:40.445Z</time>
      </trkpt>
      <trkpt lat="45.85499" lon="4.66319">
        <ele>231.60000610352</ele>
        <time>2020-10-09T06:58:43.693Z</time>
      </trkpt>
      <trkpt lat="45.85499" lon="4.66319">
        <ele>231.60000610352</ele>
        <time>2020-10-09T06:58:46.941Z</time>
      </trkpt>
      <trkpt lat="45.85498" lon="4.66319">
        <ele>231.80000305176</ele>
        <time>2020-10-09T06:58:50.189Z</time>
      </trkpt>
      <trkpt lat="45.85498" lon="4.6632">
        <ele>231.80000305176</ele>
        <time>2020-10-09T06:58:53.437Z</time>
      </trkpt>
      <trkpt lat="45.85498" lon="4.6632">
        <ele>231.80000305176</ele>
        <time>2020-10-09T06:58:56.685Z</time>
      </trkpt>
      <trkpt lat="45.85498" lon="4.6632">
        <ele>231.80000305176</ele>
        <time>2020-10-09T06:58:59.933Z</time>
      </trkpt>
      <trkpt lat="45.85498" lon="4.66319">
        <ele>231.80000305176</ele>
        <time>2020-10-09T06:59:03.181Z</time>
      </trkpt>
      <trkpt lat="45.85498" lon="4.66319">
        <ele>231.80000305176</ele>
        <time>2020-10-09T06:59:06.429Z</time>
      </trkpt>
      <trkpt lat="45.85498" lon="4.66319">
        <ele>232</ele>
        <time>2020-10-09T06:59:09.677Z</time>
      </trkpt>
      <trkpt lat="45.85498" lon="4.66319">
        <ele>232</ele>
        <time>2020-10-09T06:59:12.925Z</time>
      </trkpt>
      <trkpt lat="45.85498" lon="4.66319">
        <ele>231.60000610352</ele>
        <time>2020-10-09T06:59:16.173Z</time>
      </trkpt>
      <trkpt lat="45.85498" lon="4.66319">
        <ele>231.60000610352</ele>
        <time>2020-10-09T06:59:19.422Z</time>
      </trkpt>
      <trkpt lat="45.85498" lon="4.66319">
        <ele>231.60000610352</ele>
        <time>2020-10-09T06:59:22.671Z</time>
      </trkpt>
      <trkpt lat="45.85498" lon="4.66319">
        <ele>231.60000610352</ele>
        <time>2020-10-09T06:59:25.920Z</time>
      </trkpt>
      <trkpt lat="45.85498" lon="4.66319">
        <ele>231.80000305176</ele>
        <time>2020-10-09T06:59:29.169Z</time>
      </trkpt>
      <trkpt lat="45.85498" lon="4.66319">
        <ele>231.60000610352</ele>
        <time>2020-10-09T06:59:32.418Z</time>
      </trkpt>
      <trkpt lat="45.85498" lon="4.66319">
        <ele>231.80000305176</ele>
        <time>2020-10-09T06:59:35.667Z</time>
      </trkpt>
      <trkpt lat="45.85498" lon="4.66319">
        <ele>231.80000305176</ele>
        <time>2020-10-09T06:59:38.916Z</time>
      </trkpt>
      <trkpt lat="45.85498" lon="4.66319">
        <ele>231.80000305176</ele>
        <time>2020-10-09T06:59:42.165Z</time>
      </trkpt>
      <trkpt lat="45.85498" lon="4.66319">
        <ele>232</ele>
        <time>2020-10-09T06:59:45.414Z</time>
      </trkpt>
      <trkpt lat="45.85498" lon="4.6632">
        <ele>231.80000305176</ele>
        <time>2020-10-09T06:59:48.663Z</time>
      </trkpt>
      <trkpt lat="45.85498" lon="4.6632">
        <ele>232</ele>
        <time>2020-10-09T06:59:51.912Z</time>
      </trkpt>
      <trkpt lat="45.85498" lon="4.6632">
        <ele>232</ele>
        <time>2020-10-09T06:59:55.161Z</time>
      </trkpt>
      <trkpt lat="45.85498" lon="4.66319">
        <ele>232.60000610352</ele>
        <time>2020-10-09T06:59:58.411Z</time>
      </trkpt>
      <trkpt lat="45.85498" lon="4.66319">
        <ele>232.60000610352</ele>
        <time>2020-10-09T07:00:01.661Z</time>
      </trkpt>
      <trkpt lat="45.85498" lon="4.6632">
        <ele>232.80000305176</ele>
        <time>2020-10-09T07:00:04.911Z</time>
      </trkpt>
      <trkpt lat="45.85498" lon="4.6632">
        <ele>232.80000305176</ele>
        <time>2020-10-09T07:00:08.161Z</time>
      </trkpt>
      <trkpt lat="45.85498" lon="4.6632">
        <ele>232.80000305176</ele>
        <time>2020-10-09T07:00:11.411Z</time>
      </trkpt>
      <trkpt lat="45.85498" lon="4.6632">
        <ele>233.19999694824</ele>
        <time>2020-10-09T07:00:14.661Z</time>
      </trkpt>
      <trkpt lat="45.85498" lon="4.6632">
        <ele>233.39999389648</ele>
        <time>2020-10-09T07:00:17.911Z</time>
      </trkpt>
      <trkpt lat="45.85498" lon="4.66317">
        <ele>233.39999389648</ele>
        <time>2020-10-09T07:00:21.162Z</time>
      </trkpt>
      <trkpt lat="45.85504" lon="4.66295">
        <ele>233.39999389648</ele>
        <time>2020-10-09T07:00:24.420Z</time>
      </trkpt>
      <trkpt lat="45.85511" lon="4.66264">
        <ele>233.19999694824</ele>
        <time>2020-10-09T07:00:27.688Z</time>
      </trkpt>
      <trkpt lat="45.85513" lon="4.66253">
        <ele>233</ele>
        <time>2020-10-09T07:00:30.959Z</time>
      </trkpt>
      <trkpt lat="45.85517" lon="4.66235">
        <ele>232.80000305176</ele>
        <time>2020-10-09T07:00:34.236Z</time>
      </trkpt>
      <trkpt lat="45.85522" lon="4.66199">
        <ele>232.80000305176</ele>
        <time>2020-10-09T07:00:37.524Z</time>
      </trkpt>
      <trkpt lat="45.85527" lon="4.66158">
        <ele>232.60000610352</ele>
        <time>2020-10-09T07:00:40.824Z</time>
      </trkpt>
      <trkpt lat="45.85524" lon="4.66112">
        <ele>232.39999389648</ele>
        <time>2020-10-09T07:00:44.138Z</time>
      </trkpt>
      <trkpt lat="45.85519" lon="4.66046">
        <ele>231.80000305176</ele>
        <time>2020-10-09T07:00:47.471Z</time>
      </trkpt>
      <trkpt lat="45.85519" lon="4.66039">
        <ele>231.80000305176</ele>
        <time>2020-10-09T07:00:50.807Z</time>
      </trkpt>
      <trkpt lat="45.85516" lon="4.65983">
        <ele>231.60000610352</ele>
        <time>2020-10-09T07:00:54.159Z</time>
      </trkpt>
      <trkpt lat="45.85516" lon="4.65944">
        <ele>230.80000305176</ele>
        <time>2020-10-09T07:00:57.523Z</time>
      </trkpt>
      <trkpt lat="45.85516" lon="4.65937">
        <ele>230.39999389648</ele>
        <time>2020-10-09T07:01:00.889Z</time>
      </trkpt>
      <trkpt lat="45.85509" lon="4.65922">
        <ele>230</ele>
        <time>2020-10-09T07:01:04.260Z</time>
      </trkpt>
      <trkpt lat="45.85506" lon="4.6592">
        <ele>229</ele>
        <time>2020-10-09T07:01:07.633Z</time>
      </trkpt>
      <trkpt lat="45.85499" lon="4.65918">
        <ele>227.80000305176</ele>
        <time>2020-10-09T07:01:11.009Z</time>
      </trkpt>
      <trkpt lat="45.85496" lon="4.65918">
        <ele>227.60000610352</ele>
        <time>2020-10-09T07:01:14.386Z</time>
      </trkpt>
      <trkpt lat="45.85474" lon="4.65915">
        <ele>227.39999389648</ele>
        <time>2020-10-09T07:01:17.773Z</time>
      </trkpt>
      <trkpt lat="45.85451" lon="4.65911">
        <ele>228.60000610352</ele>
        <time>2020-10-09T07:01:21.169Z</time>
      </trkpt>
      <trkpt lat="45.85447" lon="4.6591">
        <ele>228.80000305176</ele>
        <time>2020-10-09T07:01:24.567Z</time>
      </trkpt>
      <trkpt lat="45.85426" lon="4.65902">
        <ele>229.39999389648</ele>
        <time>2020-10-09T07:01:27.974Z</time>
      </trkpt>
      <trkpt lat="45.85415" lon="4.65894">
        <ele>230</ele>
        <time>2020-10-09T07:01:31.387Z</time>
      </trkpt>
      <trkpt lat="45.85409" lon="4.65888">
        <ele>230.19999694824</ele>
        <time>2020-10-09T07:01:34.803Z</time>
      </trkpt>
      <trkpt lat="45.85403" lon="4.65883">
        <ele>231</ele>
        <time>2020-10-09T07:01:38.222Z</time>
      </trkpt>
      <trkpt lat="45.85393" lon="4.65874">
        <ele>232</ele>
        <time>2020-10-09T07:01:41.646Z</time>
      </trkpt>
      <trkpt lat="45.85391" lon="4.65873">
        <ele>232.39999389648</ele>
        <time>2020-10-09T07:01:45.071Z</time>
      </trkpt>
      <trkpt lat="45.85382" lon="4.65865">
        <ele>233.19999694824</ele>
        <time>2020-10-09T07:01:48.500Z</time>
      </trkpt>
      <trkpt lat="45.85377" lon="4.65862">
        <ele>233.39999389648</ele>
        <time>2020-10-09T07:01:51.932Z</time>
      </trkpt>
      <trkpt lat="45.8536" lon="4.65852">
        <ele>234</ele>
        <time>2020-10-09T07:01:55.371Z</time>
      </trkpt>
      <trkpt lat="45.85341" lon="4.65842">
        <ele>234.39999389648</ele>
        <time>2020-10-09T07:01:58.819Z</time>
      </trkpt>
      <trkpt lat="45.85338" lon="4.65841">
        <ele>234.39999389648</ele>
        <time>2020-10-09T07:02:02.268Z</time>
      </trkpt>
      <trkpt lat="45.85329" lon="4.65836">
        <ele>234.80000305176</ele>
        <time>2020-10-09T07:02:05.721Z</time>
      </trkpt>
      <trkpt lat="45.85326" lon="4.65833">
        <ele>235.80000305176</ele>
        <time>2020-10-09T07:02:09.176Z</time>
      </trkpt>
      <trkpt lat="45.85323" lon="4.65826">
        <ele>237.19999694824</ele>
        <time>2020-10-09T07:02:12.633Z</time>
      </trkpt>
      <trkpt lat="45.85318" lon="4.65817">
        <ele>238.60000610352</ele>
        <time>2020-10-09T07:02:16.094Z</time>
      </trkpt>
      <trkpt lat="45.85319" lon="4.65807">
        <ele>239.19999694824</ele>
        <time>2020-10-09T07:02:19.558Z</time>
      </trkpt>
      <trkpt lat="45.85325" lon="4.65787">
        <ele>239.19999694824</ele>
        <time>2020-10-09T07:02:23.028Z</time>
      </trkpt>
      <trkpt lat="45.85327" lon="4.65782">
        <ele>239.19999694824</ele>
        <time>2020-10-09T07:02:26.500Z</time>
      </trkpt>
      <trkpt lat="45.8533" lon="4.65777">
        <ele>239.39999389648</ele>
        <time>2020-10-09T07:02:29.974Z</time>
      </trkpt>
      <trkpt lat="45.85333" lon="4.65756">
        <ele>240</ele>
        <time>2020-10-09T07:02:33.454Z</time>
      </trkpt>
      <trkpt lat="45.85333" lon="4.65721">
        <ele>240.19999694824</ele>
        <time>2020-10-09T07:02:36.945Z</time>
      </trkpt>
      <trkpt lat="45.85333" lon="4.65715">
        <ele>240.19999694824</ele>
        <time>2020-10-09T07:02:40.438Z</time>
      </trkpt>
      <trkpt lat="45.85333" lon="4.65692">
        <ele>240.39999389648</ele>
        <time>2020-10-09T07:02:43.937Z</time>
      </trkpt>
      <trkpt lat="45.85333" lon="4.65681">
        <ele>240.60000610352</ele>
        <time>2020-10-09T07:02:47.440Z</time>
      </trkpt>
      <trkpt lat="45.85333" lon="4.65633">
        <ele>241.60000610352</ele>
        <time>2020-10-09T07:02:50.957Z</time>
      </trkpt>
      <trkpt lat="45.85333" lon="4.65628">
        <ele>241.60000610352</ele>
        <time>2020-10-09T07:02:54.475Z</time>
      </trkpt>
      <trkpt lat="45.85333" lon="4.65594">
        <ele>242.19999694824</ele>
        <time>2020-10-09T07:02:58.004Z</time>
      </trkpt>
      <trkpt lat="45.85325" lon="4.65575">
        <ele>242.60000610352</ele>
        <time>2020-10-09T07:03:01.539Z</time>
      </trkpt>
      <trkpt lat="45.85313" lon="4.65559">
        <ele>243.60000610352</ele>
        <time>2020-10-09T07:03:05.081Z</time>
      </trkpt>
      <trkpt lat="45.8531" lon="4.65559">
        <ele>243.80000305176</ele>
        <time>2020-10-09T07:03:08.624Z</time>
      </trkpt>
      <trkpt lat="45.85298" lon="4.65561">
        <ele>245</ele>
        <time>2020-10-09T07:03:12.172Z</time>
      </trkpt>
      <trkpt lat="45.85295" lon="4.65562">
        <ele>245.39999389648</ele>
        <time>2020-10-09T07:03:15.722Z</time>
      </trkpt>
      <trkpt lat="45.8529" lon="4.65563">
        <ele>246</ele>
        <time>2020-10-09T07:03:19.274Z</time>
      </trkpt>
      <trkpt lat="45.85279" lon="4.65565">
        <ele>247.19999694824</ele>
        <time>2020-10-09T07:03:22.830Z</time>
      </trkpt>
      <trkpt lat="45.85268" lon="4.65564">
        <ele>248.19999694824</ele>
        <time>2020-10-09T07:03:26.391Z</time>
      </trkpt>
      <trkpt lat="45.85263" lon="4.65564">
        <ele>248.80000305176</ele>
        <time>2020-10-09T07:03:29.954Z</time>
      </trkpt>
      <trkpt lat="45.8526" lon="4.65564">
        <ele>249.19999694824</ele>
        <time>2020-10-09T07:03:33.518Z</time>
      </trkpt>
      <trkpt lat="45.85252" lon="4.65564">
        <ele>250.39999389648</ele>
        <time>2020-10-09T07:03:37.086Z</time>
      </trkpt>
      <trkpt lat="45.85243" lon="4.65565">
        <ele>251.39999389648</ele>
        <time>2020-10-09T07:03:40.658Z</time>
      </trkpt>
      <trkpt lat="45.85241" lon="4.65565">
        <ele>251.60000610352</ele>
        <time>2020-10-09T07:03:44.231Z</time>
      </trkpt>
      <trkpt lat="45.85226" lon="4.65566">
        <ele>252.60000610352</ele>
        <time>2020-10-09T07:03:47.810Z</time>
      </trkpt>
      <trkpt lat="45.85221" lon="4.65567">
        <ele>253.19999694824</ele>
        <time>2020-10-09T07:03:51.391Z</time>
      </trkpt>
      <trkpt lat="45.85211" lon="4.65569">
        <ele>253.80000305176</ele>
        <time>2020-10-09T07:03:54.977Z</time>
      </trkpt>
      <trkpt lat="45.85207" lon="4.65572">
        <ele>254</ele>
        <time>2020-10-09T07:03:58.565Z</time>
      </trkpt>
      <trkpt lat="45.85202" lon="4.6558">
        <ele>255</ele>
        <time>2020-10-09T07:04:02.156Z</time>
      </trkpt>
      <trkpt lat="45.85195" lon="4.65586">
        <ele>256</ele>
        <time>2020-10-09T07:04:05.750Z</time>
      </trkpt>
      <trkpt lat="45.85193" lon="4.65589">
        <ele>256.20001220703</ele>
        <time>2020-10-09T07:04:09.345Z</time>
      </trkpt>
      <trkpt lat="45.85179" lon="4.65603">
        <ele>257.20001220703</ele>
        <time>2020-10-09T07:04:12.948Z</time>
      </trkpt>
      <trkpt lat="45.85176" lon="4.65604">
        <ele>257.39999389648</ele>
        <time>2020-10-09T07:04:16.552Z</time>
      </trkpt>
      <trkpt lat="45.85165" lon="4.65606">
        <ele>258.39999389648</ele>
        <time>2020-10-09T07:04:20.161Z</time>
      </trkpt>
      <trkpt lat="45.85163" lon="4.65607">
        <ele>258.60000610352</ele>
        <time>2020-10-09T07:04:23.771Z</time>
      </trkpt>
      <trkpt lat="45.85151" lon="4.6561">
        <ele>259.79998779297</ele>
        <time>2020-10-09T07:04:27.386Z</time>
      </trkpt>
      <trkpt lat="45.85139" lon="4.65616">
        <ele>261</ele>
        <time>2020-10-09T07:04:31.006Z</time>
      </trkpt>
      <trkpt lat="45.85116" lon="4.65625">
        <ele>262.20001220703</ele>
        <time>2020-10-09T07:04:34.636Z</time>
      </trkpt>
      <trkpt lat="45.85093" lon="4.65635">
        <ele>263.20001220703</ele>
        <time>2020-10-09T07:04:38.277Z</time>
      </trkpt>
      <trkpt lat="45.85079" lon="4.65641">
        <ele>264.60000610352</ele>
        <time>2020-10-09T07:04:41.924Z</time>
      </trkpt>
      <trkpt lat="45.85069" lon="4.65645">
        <ele>265.20001220703</ele>
        <time>2020-10-09T07:04:45.575Z</time>
      </trkpt>
      <trkpt lat="45.85065" lon="4.65646">
        <ele>265.60000610352</ele>
        <time>2020-10-09T07:04:49.228Z</time>
      </trkpt>
      <trkpt lat="45.85046" lon="4.65653">
        <ele>266.79998779297</ele>
        <time>2020-10-09T07:04:52.889Z</time>
      </trkpt>
      <trkpt lat="45.85042" lon="4.65655">
        <ele>267</ele>
        <time>2020-10-09T07:04:56.552Z</time>
      </trkpt>
      <trkpt lat="45.8503" lon="4.6566">
        <ele>267.79998779297</ele>
        <time>2020-10-09T07:05:00.220Z</time>
      </trkpt>
      <trkpt lat="45.85021" lon="4.65663">
        <ele>268.39999389648</ele>
        <time>2020-10-09T07:05:03.892Z</time>
      </trkpt>
      <trkpt lat="45.85014" lon="4.65666">
        <ele>269</ele>
        <time>2020-10-09T07:05:07.567Z</time>
      </trkpt>
      <trkpt lat="45.84997" lon="4.65673">
        <ele>270</ele>
        <time>2020-10-09T07:05:11.250Z</time>
      </trkpt>
      <trkpt lat="45.8499" lon="4.65676">
        <ele>270.20001220703</ele>
        <time>2020-10-09T07:05:14.936Z</time>
      </trkpt>
      <trkpt lat="45.84977" lon="4.65679">
        <ele>271</ele>
        <time>2020-10-09T07:05:18.628Z</time>
      </trkpt>
      <trkpt lat="45.84971" lon="4.65679">
        <ele>271.60000610352</ele>
        <time>2020-10-09T07:05:22.322Z</time>
      </trkpt>
      <trkpt lat="45.84961" lon="4.6568">
        <ele>272.39999389648</ele>
        <time>2020-10-09T07:05:26.021Z</time>
      </trkpt>
      <trkpt lat="45.84945" lon="4.65682">
        <ele>273.60000610352</ele>
        <time>2020-10-09T07:05:29.726Z</time>
      </trkpt>
      <trkpt lat="45.84932" lon="4.65683">
        <ele>274.79998779297</ele>
        <time>2020-10-09T07:05:33.437Z</time>
      </trkpt>
      <trkpt lat="45.84925" lon="4.65682">
        <ele>275.20001220703</ele>
        <time>2020-10-09T07:05:37.151Z</time>
      </trkpt>
      <trkpt lat="45.84908" lon="4.65681">
        <ele>275.79998779297</ele>
        <time>2020-10-09T07:05:40.872Z</time>
      </trkpt>
      <trkpt lat="45.84898" lon="4.6568">
        <ele>276.20001220703</ele>
        <time>2020-10-09T07:05:44.597Z</time>
      </trkpt>
      <trkpt lat="45.84889" lon="4.6568">
        <ele>277</ele>
        <time>2020-10-09T07:05:48.326Z</time>
      </trkpt>
      <trkpt lat="45.84875" lon="4.65681">
        <ele>277.39999389648</ele>
        <time>2020-10-09T07:05:52.061Z</time>
      </trkpt>
      <trkpt lat="45.84858" lon="4.6568">
        <ele>278.20001220703</ele>
        <time>2020-10-09T07:05:55.803Z</time>
      </trkpt>
      <trkpt lat="45.84852" lon="4.65679">
        <ele>278.60000610352</ele>
        <time>2020-10-09T07:05:59.548Z</time>
      </trkpt>
      <trkpt lat="45.8483" lon="4.6567">
        <ele>279.20001220703</ele>
        <time>2020-10-09T07:06:03.303Z</time>
      </trkpt>
      <trkpt lat="45.84826" lon="4.65669">
        <ele>279.39999389648</ele>
        <time>2020-10-09T07:06:07.059Z</time>
      </trkpt>
      <trkpt lat="45.8481" lon="4.65672">
        <ele>280.39999389648</ele>
        <time>2020-10-09T07:06:10.823Z</time>
      </trkpt>
      <trkpt lat="45.84785" lon="4.65682">
        <ele>281.60000610352</ele>
        <time>2020-10-09T07:06:14.598Z</time>
      </trkpt>
      <trkpt lat="45.84772" lon="4.65687">
        <ele>282.79998779297</ele>
        <time>2020-10-09T07:06:18.378Z</time>
      </trkpt>
      <trkpt lat="45.84762" lon="4.6569">
        <ele>283.60000610352</ele>
        <time>2020-10-09T07:06:22.163Z</time>
      </trkpt>
      <trkpt lat="45.84758" lon="4.65691">
        <ele>283.79998779297</ele>
        <time>2020-10-09T07:06:25.949Z</time>
      </trkpt>
      <trkpt lat="45.84743" lon="4.65695">
        <ele>285</ele>
        <time>2020-10-09T07:06:29.742Z</time>
      </trkpt>
      <trkpt lat="45.84739" lon="4.65695">
        <ele>285</ele>
        <time>2020-10-09T07:06:33.536Z</time>
      </trkpt>
      <trkpt lat="45.84729" lon="4.65688">
        <ele>285.60000610352</ele>
        <time>2020-10-09T07:06:37.335Z</time>
      </trkpt>
      <trkpt lat="45.84728" lon="4.65685">
        <ele>285.79998779297</ele>
        <time>2020-10-09T07:06:41.135Z</time>
      </trkpt>
      <trkpt lat="45.84728" lon="4.6568">
        <ele>286</ele>
        <time>2020-10-09T07:06:44.937Z</time>
      </trkpt>
      <trkpt lat="45.84728" lon="4.65671">
        <ele>286.39999389648</ele>
        <time>2020-10-09T07:06:48.741Z</time>
      </trkpt>
      <trkpt lat="45.84728" lon="4.65662">
        <ele>287</ele>
        <time>2020-10-09T07:06:52.548Z</time>
      </trkpt>
      <trkpt lat="45.84727" lon="4.65657">
        <ele>287</ele>
        <time>2020-10-09T07:06:56.357Z</time>
      </trkpt>
      <trkpt lat="45.8473" lon="4.65634">
        <ele>287.79998779297</ele>
        <time>2020-10-09T07:07:00.173Z</time>
      </trkpt>
      <trkpt lat="45.84738" lon="4.65584">
        <ele>287.79998779297</ele>
        <time>2020-10-09T07:07:04.004Z</time>
      </trkpt>
      <trkpt lat="45.84742" lon="4.65565">
        <ele>287.39999389648</ele>
        <time>2020-10-09T07:07:07.841Z</time>
      </trkpt>
      <trkpt lat="45.84743" lon="4.65552">
        <ele>287.20001220703</ele>
        <time>2020-10-09T07:07:11.682Z</time>
      </trkpt>
      <trkpt lat="45.84754" lon="4.65507">
        <ele>286.39999389648</ele>
        <time>2020-10-09T07:07:15.537Z</time>
      </trkpt>
      <trkpt lat="45.84761" lon="4.65476">
        <ele>285.79998779297</ele>
        <time>2020-10-09T07:07:19.402Z</time>
      </trkpt>
      <trkpt lat="45.84766" lon="4.65455">
        <ele>285.20001220703</ele>
        <time>2020-10-09T07:07:23.273Z</time>
      </trkpt>
      <trkpt lat="45.8477" lon="4.65445">
        <ele>284.39999389648</ele>
        <time>2020-10-09T07:07:27.147Z</time>
      </trkpt>
      <trkpt lat="45.84774" lon="4.65436">
        <ele>284.20001220703</ele>
        <time>2020-10-09T07:07:31.025Z</time>
      </trkpt>
      <trkpt lat="45.84783" lon="4.65418">
        <ele>282.79998779297</ele>
        <time>2020-10-09T07:07:34.910Z</time>
      </trkpt>
      <trkpt lat="45.84794" lon="4.65401">
        <ele>281.20001220703</ele>
        <time>2020-10-09T07:07:38.801Z</time>
      </trkpt>
      <trkpt lat="45.84806" lon="4.65388">
        <ele>280.39999389648</ele>
        <time>2020-10-09T07:07:42.699Z</time>
      </trkpt>
      <trkpt lat="45.84813" lon="4.65384">
        <ele>280.20001220703</ele>
        <time>2020-10-09T07:07:46.600Z</time>
      </trkpt>
      <trkpt lat="45.8483" lon="4.65379">
        <ele>279.39999389648</ele>
        <time>2020-10-09T07:07:50.508Z</time>
      </trkpt>
      <trkpt lat="45.84838" lon="4.65377">
        <ele>279</ele>
        <time>2020-10-09T07:07:54.420Z</time>
      </trkpt>
      <trkpt lat="45.84855" lon="4.65374">
        <ele>278</ele>
        <time>2020-10-09T07:07:58.339Z</time>
      </trkpt>
      <trkpt lat="45.84861" lon="4.65372">
        <ele>277.60000610352</ele>
        <time>2020-10-09T07:08:02.261Z</time>
      </trkpt>
      <trkpt lat="45.84867" lon="4.65368">
        <ele>277</ele>
        <time>2020-10-09T07:08:06.186Z</time>
      </trkpt>
      <trkpt lat="45.84873" lon="4.65352">
        <ele>275.20001220703</ele>
        <time>2020-10-09T07:08:10.116Z</time>
      </trkpt>
      <trkpt lat="45.84875" lon="4.65344">
        <ele>274</ele>
        <time>2020-10-09T07:08:14.048Z</time>
      </trkpt>
      <trkpt lat="45.84876" lon="4.65335">
        <ele>273</ele>
        <time>2020-10-09T07:08:17.983Z</time>
      </trkpt>
      <trkpt lat="45.84877" lon="4.65327">
        <ele>272.39999389648</ele>
        <time>2020-10-09T07:08:21.921Z</time>
      </trkpt>
      <trkpt lat="45.84879" lon="4.65301">
        <ele>271.60000610352</ele>
        <time>2020-10-09T07:08:25.866Z</time>
      </trkpt>
      <trkpt lat="45.84873" lon="4.65279">
        <ele>271.39999389648</ele>
        <time>2020-10-09T07:08:29.819Z</time>
      </trkpt>
      <trkpt lat="45.84869" lon="4.65273">
        <ele>271.39999389648</ele>
        <time>2020-10-09T07:08:33.774Z</time>
      </trkpt>
      <trkpt lat="45.84862" lon="4.65261">
        <ele>271.39999389648</ele>
        <time>2020-10-09T07:08:37.734Z</time>
      </trkpt>
      <trkpt lat="45.84858" lon="4.65255">
        <ele>271.39999389648</ele>
        <time>2020-10-09T07:08:41.696Z</time>
      </trkpt>
      <trkpt lat="45.84855" lon="4.65248">
        <ele>271.39999389648</ele>
        <time>2020-10-09T07:08:45.660Z</time>
      </trkpt>
      <trkpt lat="45.84848" lon="4.65221">
        <ele>271.60000610352</ele>
        <time>2020-10-09T07:08:49.633Z</time>
      </trkpt>
      <trkpt lat="45.84846" lon="4.65214">
        <ele>271.79998779297</ele>
        <time>2020-10-09T07:08:53.608Z</time>
      </trkpt>
      <trkpt lat="45.84836" lon="4.65173">
        <ele>272.39999389648</ele>
        <time>2020-10-09T07:08:57.596Z</time>
      </trkpt>
      <trkpt lat="45.84833" lon="4.65166">
        <ele>272.60000610352</ele>
        <time>2020-10-09T07:09:01.587Z</time>
      </trkpt>
      <trkpt lat="45.84818" lon="4.65123">
        <ele>273.60000610352</ele>
        <time>2020-10-09T07:09:05.592Z</time>
      </trkpt>
      <trkpt lat="45.84816" lon="4.65118">
        <ele>273.60000610352</ele>
        <time>2020-10-09T07:09:09.599Z</time>
      </trkpt>
      <trkpt lat="45.84808" lon="4.65097">
        <ele>274.60000610352</ele>
        <time>2020-10-09T07:09:13.613Z</time>
      </trkpt>
      <trkpt lat="45.84804" lon="4.65086">
        <ele>275.60000610352</ele>
        <time>2020-10-09T07:09:17.630Z</time>
      </trkpt>
      <trkpt lat="45.848" lon="4.65076">
        <ele>276.39999389648</ele>
        <time>2020-10-09T07:09:21.651Z</time>
      </trkpt>
      <trkpt lat="45.84798" lon="4.65071">
        <ele>276.60000610352</ele>
        <time>2020-10-09T07:09:25.673Z</time>
      </trkpt>
      <trkpt lat="45.84791" lon="4.65053">
        <ele>278</ele>
        <time>2020-10-09T07:09:29.702Z</time>
      </trkpt>
      <trkpt lat="45.84788" lon="4.65044">
        <ele>278.60000610352</ele>
        <time>2020-10-09T07:09:33.734Z</time>
      </trkpt>
      <trkpt lat="45.84784" lon="4.65035">
        <ele>279.20001220703</ele>
        <time>2020-10-09T07:09:37.769Z</time>
      </trkpt>
      <trkpt lat="45.84776" lon="4.65025">
        <ele>280.39999389648</ele>
        <time>2020-10-09T07:09:41.808Z</time>
      </trkpt>
      <trkpt lat="45.84766" lon="4.65025">
        <ele>281.60000610352</ele>
        <time>2020-10-09T07:09:45.852Z</time>
      </trkpt>
      <trkpt lat="45.84762" lon="4.65026">
        <ele>282.20001220703</ele>
        <time>2020-10-09T07:09:49.897Z</time>
      </trkpt>
      <trkpt lat="45.84756" lon="4.65029">
        <ele>282.79998779297</ele>
        <time>2020-10-09T07:09:53.945Z</time>
      </trkpt>
      <trkpt lat="45.84749" lon="4.65027">
        <ele>283.39999389648</ele>
        <time>2020-10-09T07:09:57.996Z</time>
      </trkpt>
      <trkpt lat="45.84746" lon="4.65023">
        <ele>283.79998779297</ele>
        <time>2020-10-09T07:10:02.049Z</time>
      </trkpt>
      <trkpt lat="45.84744" lon="4.65017">
        <ele>284.20001220703</ele>
        <time>2020-10-09T07:10:06.104Z</time>
      </trkpt>
      <trkpt lat="45.84741" lon="4.65002">
        <ele>284.79998779297</ele>
        <time>2020-10-09T07:10:10.164Z</time>
      </trkpt>
      <trkpt lat="45.84739" lon="4.64993">
        <ele>285</ele>
        <time>2020-10-09T07:10:14.226Z</time>
      </trkpt>
      <trkpt lat="45.84722" lon="4.64913">
        <ele>284</ele>
        <time>2020-10-09T07:10:18.313Z</time>
      </trkpt>
      <trkpt lat="45.84716" lon="4.64889">
        <ele>282.79998779297</ele>
        <time>2020-10-09T07:10:22.408Z</time>
      </trkpt>
      <trkpt lat="45.84707" lon="4.6485">
        <ele>281.60000610352</ele>
        <time>2020-10-09T07:10:26.515Z</time>
      </trkpt>
      <trkpt lat="45.847" lon="4.64825">
        <ele>280.39999389648</ele>
        <time>2020-10-09T07:10:30.630Z</time>
      </trkpt>
      <trkpt lat="45.84694" lon="4.648">
        <ele>279.20001220703</ele>
        <time>2020-10-09T07:10:34.753Z</time>
      </trkpt>
      <trkpt lat="45.84687" lon="4.64777">
        <ele>277.39999389648</ele>
        <time>2020-10-09T07:10:38.884Z</time>
      </trkpt>
      <trkpt lat="45.84682" lon="4.64767">
        <ele>276.79998779297</ele>
        <time>2020-10-09T07:10:43.018Z</time>
      </trkpt>
      <trkpt lat="45.84673" lon="4.64747">
        <ele>276.20001220703</ele>
        <time>2020-10-09T07:10:47.159Z</time>
      </trkpt>
      <trkpt lat="45.84655" lon="4.64713">
        <ele>276</ele>
        <time>2020-10-09T07:10:51.313Z</time>
      </trkpt>
      <trkpt lat="45.84633" lon="4.64663">
        <ele>276.39999389648</ele>
        <time>2020-10-09T07:10:55.485Z</time>
      </trkpt>
      <trkpt lat="45.84625" lon="4.64645">
        <ele>277.39999389648</ele>
        <time>2020-10-09T07:10:59.663Z</time>
      </trkpt>
      <trkpt lat="45.84616" lon="4.6462">
        <ele>278.39999389648</ele>
        <time>2020-10-09T07:11:03.849Z</time>
      </trkpt>
      <trkpt lat="45.84615" lon="4.64613">
        <ele>278.60000610352</ele>
        <time>2020-10-09T07:11:08.037Z</time>
      </trkpt>
      <trkpt lat="45.84609" lon="4.64592">
        <ele>279.60000610352</ele>
        <time>2020-10-09T07:11:12.232Z</time>
      </trkpt>
      <trkpt lat="45.84608" lon="4.64584">
        <ele>279.79998779297</ele>
        <time>2020-10-09T07:11:16.430Z</time>
      </trkpt>
      <trkpt lat="45.84599" lon="4.64554">
        <ele>280.20001220703</ele>
        <time>2020-10-09T07:11:20.637Z</time>
      </trkpt>
      <trkpt lat="45.84592" lon="4.64542">
        <ele>280.20001220703</ele>
        <time>2020-10-09T07:11:24.849Z</time>
      </trkpt>
      <trkpt lat="45.84578" lon="4.64532">
        <ele>280.39999389648</ele>
        <time>2020-10-09T07:11:29.068Z</time>
      </trkpt>
      <trkpt lat="45.84573" lon="4.64529">
        <ele>280.39999389648</ele>
        <time>2020-10-09T07:11:33.289Z</time>
      </trkpt>
      <trkpt lat="45.84542" lon="4.64506">
        <ele>280.60000610352</ele>
        <time>2020-10-09T07:11:37.525Z</time>
      </trkpt>
      <trkpt lat="45.84537" lon="4.64502">
        <ele>280.79998779297</ele>
        <time>2020-10-09T07:11:41.763Z</time>
      </trkpt>
      <trkpt lat="45.84511" lon="4.6448">
        <ele>282</ele>
        <time>2020-10-09T07:11:46.014Z</time>
      </trkpt>
      <trkpt lat="45.84502" lon="4.64472">
        <ele>282.39999389648</ele>
        <time>2020-10-09T07:11:50.269Z</time>
      </trkpt>
      <trkpt lat="45.84489" lon="4.64464">
        <ele>283</ele>
        <time>2020-10-09T07:11:54.531Z</time>
      </trkpt>
      <trkpt lat="45.84479" lon="4.64461">
        <ele>283.20001220703</ele>
        <time>2020-10-09T07:11:58.797Z</time>
      </trkpt>
      <trkpt lat="45.84474" lon="4.64461">
        <ele>283.20001220703</ele>
        <time>2020-10-09T07:12:03.065Z</time>
      </trkpt>
      <trkpt lat="45.84449" lon="4.64465">
        <ele>284</ele>
        <time>2020-10-09T07:12:07.344Z</time>
      </trkpt>
      <trkpt lat="45.84424" lon="4.64467">
        <ele>285.20001220703</ele>
        <time>2020-10-09T07:12:11.633Z</time>
      </trkpt>
      <trkpt lat="45.84409" lon="4.64467">
        <ele>285.60000610352</ele>
        <time>2020-10-09T07:12:15.929Z</time>
      </trkpt>
      <trkpt lat="45.844" lon="4.64466">
        <ele>286.20001220703</ele>
        <time>2020-10-09T07:12:20.229Z</time>
      </trkpt>
      <trkpt lat="45.84396" lon="4.64466">
        <ele>286.60000610352</ele>
        <time>2020-10-09T07:12:24.531Z</time>
      </trkpt>
      <trkpt lat="45.84383" lon="4.64458">
        <ele>287.39999389648</ele>
        <time>2020-10-09T07:12:28.838Z</time>
      </trkpt>
      <trkpt lat="45.84372" lon="4.64445">
        <ele>287.60000610352</ele>
        <time>2020-10-09T07:12:33.151Z</time>
      </trkpt>
      <trkpt lat="45.84363" lon="4.64431">
        <ele>288</ele>
        <time>2020-10-09T07:12:37.470Z</time>
      </trkpt>
      <trkpt lat="45.8436" lon="4.64426">
        <ele>288.39999389648</ele>
        <time>2020-10-09T07:12:41.791Z</time>
      </trkpt>
      <trkpt lat="45.84347" lon="4.64404">
        <ele>289.79998779297</ele>
        <time>2020-10-09T07:12:46.120Z</time>
      </trkpt>
      <trkpt lat="45.84344" lon="4.64399">
        <ele>290</ele>
        <time>2020-10-09T07:12:50.452Z</time>
      </trkpt>
      <trkpt lat="45.84339" lon="4.6439">
        <ele>290.20001220703</ele>
        <time>2020-10-09T07:12:54.787Z</time>
      </trkpt>
      <trkpt lat="45.84335" lon="4.64384">
        <ele>290.39999389648</ele>
        <time>2020-10-09T07:12:59.124Z</time>
      </trkpt>
      <trkpt lat="45.84335" lon="4.64384">
        <ele>290.79998779297</ele>
        <time>2020-10-09T07:13:03.462Z</time>
      </trkpt>
      <trkpt lat="45.84335" lon="4.64383">
        <ele>291.20001220703</ele>
        <time>2020-10-09T07:13:07.800Z</time>
      </trkpt>
      <trkpt lat="45.84334" lon="4.64383">
        <ele>291.39999389648</ele>
        <time>2020-10-09T07:13:12.138Z</time>
      </trkpt>
      <trkpt lat="45.84337" lon="4.64388">
        <ele>291.60000610352</ele>
        <time>2020-10-09T07:13:16.478Z</time>
      </trkpt>
      <trkpt lat="45.84345" lon="4.64402">
        <ele>291.39999389648</ele>
        <time>2020-10-09T07:13:20.824Z</time>
      </trkpt>
      <trkpt lat="45.84362" lon="4.64434">
        <ele>291.20001220703</ele>
        <time>2020-10-09T07:13:25.182Z</time>
      </trkpt>
      <trkpt lat="45.84379" lon="4.64457">
        <ele>291</ele>
        <time>2020-10-09T07:13:29.550Z</time>
      </trkpt>
      <trkpt lat="45.84384" lon="4.64462">
        <ele>291</ele>
        <time>2020-10-09T07:13:33.920Z</time>
      </trkpt>
      <trkpt lat="45.84408" lon="4.6447">
        <ele>290.79998779297</ele>
        <time>2020-10-09T07:13:38.301Z</time>
      </trkpt>
      <trkpt lat="45.84415" lon="4.6447">
        <ele>290.60000610352</ele>
        <time>2020-10-09T07:13:42.684Z</time>
      </trkpt>
      <trkpt lat="45.84435" lon="4.64469">
        <ele>289.79998779297</ele>
        <time>2020-10-09T07:13:47.076Z</time>
      </trkpt>
      <trkpt lat="45.84445" lon="4.64469">
        <ele>289.39999389648</ele>
        <time>2020-10-09T07:13:51.472Z</time>
      </trkpt>
      <trkpt lat="45.84451" lon="4.64467">
        <ele>288.60000610352</ele>
        <time>2020-10-09T07:13:55.871Z</time>
      </trkpt>
      <trkpt lat="45.84452" lon="4.64466">
        <ele>288</ele>
        <time>2020-10-09T07:14:00.270Z</time>
      </trkpt>
      <trkpt lat="45.84452" lon="4.64466">
        <ele>287.39999389648</ele>
        <time>2020-10-09T07:14:04.670Z</time>
      </trkpt>
      <trkpt lat="45.84452" lon="4.64466">
        <ele>287.20001220703</ele>
        <time>2020-10-09T07:14:09.070Z</time>
      </trkpt>
      <trkpt lat="45.84452" lon="4.64466">
        <ele>287</ele>
        <time>2020-10-09T07:14:13.470Z</time>
      </trkpt>
      <trkpt lat="45.84452" lon="4.64466">
        <ele>287.39999389648</ele>
        <time>2020-10-09T07:14:17.870Z</time>
      </trkpt>
      <trkpt lat="45.84452" lon="4.64466">
        <ele>287.39999389648</ele>
        <time>2020-10-09T07:14:22.270Z</time>
      </trkpt>
      <trkpt lat="45.84451" lon="4.64466">
        <ele>287.39999389648</ele>
        <time>2020-10-09T07:14:26.670Z</time>
      </trkpt>
      <trkpt lat="45.84451" lon="4.64465">
        <ele>287.39999389648</ele>
        <time>2020-10-09T07:14:31.070Z</time>
      </trkpt>
      <trkpt lat="45.8445" lon="4.64464">
        <ele>287.39999389648</ele>
        <time>2020-10-09T07:14:35.471Z</time>
      </trkpt>
      <trkpt lat="45.84449" lon="4.64464">
        <ele>287</ele>
        <time>2020-10-09T07:14:39.872Z</time>
      </trkpt>
      <trkpt lat="45.84449" lon="4.64464">
        <ele>287</ele>
        <time>2020-10-09T07:14:44.273Z</time>
      </trkpt>
      <trkpt lat="45.84449" lon="4.64464">
        <ele>287.20001220703</ele>
        <time>2020-10-09T07:14:48.674Z</time>
      </trkpt>
      <trkpt lat="45.84449" lon="4.64464">
        <ele>287.20001220703</ele>
        <time>2020-10-09T07:14:53.075Z</time>
      </trkpt>
      <trkpt lat="45.84449" lon="4.64464">
        <ele>287.60000610352</ele>
        <time>2020-10-09T07:14:57.476Z</time>
      </trkpt>
      <trkpt lat="45.84449" lon="4.64464">
        <ele>287.60000610352</ele>
        <time>2020-10-09T07:15:01.877Z</time>
      </trkpt>
      <trkpt lat="45.84449" lon="4.64464">
        <ele>287.60000610352</ele>
        <time>2020-10-09T07:15:06.279Z</time>
      </trkpt>
      <trkpt lat="45.84449" lon="4.64464">
        <ele>287.79998779297</ele>
        <time>2020-10-09T07:15:10.681Z</time>
      </trkpt>
      <trkpt lat="45.84449" lon="4.64464">
        <ele>288.20001220703</ele>
        <time>2020-10-09T07:15:15.083Z</time>
      </trkpt>
      <trkpt lat="45.84449" lon="4.64464">
        <ele>288</ele>
        <time>2020-10-09T07:15:19.485Z</time>
      </trkpt>
      <trkpt lat="45.84448" lon="4.64463">
        <ele>287.79998779297</ele>
        <time>2020-10-09T07:15:23.887Z</time>
      </trkpt>
      <trkpt lat="45.84448" lon="4.64463">
        <ele>288</ele>
        <time>2020-10-09T07:15:28.289Z</time>
      </trkpt>
      <trkpt lat="45.84448" lon="4.64464">
        <ele>288.20001220703</ele>
        <time>2020-10-09T07:15:32.691Z</time>
      </trkpt>
      <trkpt lat="45.84448" lon="4.64464">
        <ele>288.39999389648</ele>
        <time>2020-10-09T07:15:37.093Z</time>
      </trkpt>
      <trkpt lat="45.84448" lon="4.64464">
        <ele>288.60000610352</ele>
        <time>2020-10-09T07:15:41.495Z</time>
      </trkpt>
      <trkpt lat="45.84448" lon="4.64465">
        <ele>288.79998779297</ele>
        <time>2020-10-09T07:15:45.898Z</time>
      </trkpt>
      <trkpt lat="45.84448" lon="4.64466">
        <ele>289</ele>
        <time>2020-10-09T07:15:50.301Z</time>
      </trkpt>
      <trkpt lat="45.84448" lon="4.64465">
        <ele>289.20001220703</ele>
        <time>2020-10-09T07:15:54.704Z</time>
      </trkpt>
      <trkpt lat="45.84447" lon="4.64466">
        <ele>289.60000610352</ele>
        <time>2020-10-09T07:15:59.107Z</time>
      </trkpt>
      <trkpt lat="45.84444" lon="4.64467">
        <ele>289.60000610352</ele>
        <time>2020-10-09T07:16:03.512Z</time>
      </trkpt>
      <trkpt lat="45.84433" lon="4.64468">
        <ele>289.79998779297</ele>
        <time>2020-10-09T07:16:07.922Z</time>
      </trkpt>
      <trkpt lat="45.84412" lon="4.6447">
        <ele>290</ele>
        <time>2020-10-09T07:16:12.340Z</time>
      </trkpt>
      <trkpt lat="45.84409" lon="4.6447">
        <ele>290</ele>
        <time>2020-10-09T07:16:16.760Z</time>
      </trkpt>
      <trkpt lat="45.84392" lon="4.64465">
        <ele>291</ele>
        <time>2020-10-09T07:16:21.187Z</time>
      </trkpt>
      <trkpt lat="45.84389" lon="4.64463">
        <ele>291.20001220703</ele>
        <time>2020-10-09T07:16:25.615Z</time>
      </trkpt>
      <trkpt lat="45.8438" lon="4.64455">
        <ele>291.79998779297</ele>
        <time>2020-10-09T07:16:30.048Z</time>
      </trkpt>
      <trkpt lat="45.84372" lon="4.64445">
        <ele>292.20001220703</ele>
        <time>2020-10-09T07:16:34.486Z</time>
      </trkpt>
      <trkpt lat="45.84366" lon="4.64435">
        <ele>292.79998779297</ele>
        <time>2020-10-09T07:16:38.927Z</time>
      </trkpt>
      <trkpt lat="45.84362" lon="4.64429">
        <ele>293.20001220703</ele>
        <time>2020-10-09T07:16:43.371Z</time>
      </trkpt>
      <trkpt lat="45.84354" lon="4.64414">
        <ele>294</ele>
        <time>2020-10-09T07:16:47.820Z</time>
      </trkpt>
      <trkpt lat="45.84334" lon="4.64382">
        <ele>294.20001220703</ele>
        <time>2020-10-09T07:16:52.282Z</time>
      </trkpt>
      <trkpt lat="45.84332" lon="4.64377">
        <ele>294.20001220703</ele>
        <time>2020-10-09T07:16:56.746Z</time>
      </trkpt>
      <trkpt lat="45.84332" lon="4.64377">
        <ele>294.39999389648</ele>
        <time>2020-10-09T07:17:01.210Z</time>
      </trkpt>
      <trkpt lat="45.84328" lon="4.6437">
        <ele>294.60000610352</ele>
        <time>2020-10-09T07:17:05.677Z</time>
      </trkpt>
      <trkpt lat="45.84318" lon="4.64348">
        <ele>294.60000610352</ele>
        <time>2020-10-09T07:17:10.151Z</time>
      </trkpt>
      <trkpt lat="45.84314" lon="4.64338">
        <ele>294.60000610352</ele>
        <time>2020-10-09T07:17:14.629Z</time>
      </trkpt>
      <trkpt lat="45.84305" lon="4.64324">
        <ele>294.39999389648</ele>
        <time>2020-10-09T07:17:19.113Z</time>
      </trkpt>
      <trkpt lat="45.8428" lon="4.64288">
        <ele>294</ele>
        <time>2020-10-09T07:17:23.612Z</time>
      </trkpt>
      <trkpt lat="45.84278" lon="4.64283">
        <ele>294</ele>
        <time>2020-10-09T07:17:28.113Z</time>
      </trkpt>
      <trkpt lat="45.84272" lon="4.64273">
        <ele>294</ele>
        <time>2020-10-09T07:17:32.617Z</time>
      </trkpt>
      <trkpt lat="45.84258" lon="4.64255">
        <ele>293.79998779297</ele>
        <time>2020-10-09T07:17:37.129Z</time>
      </trkpt>
      <trkpt lat="45.84248" lon="4.64243">
        <ele>293.79998779297</ele>
        <time>2020-10-09T07:17:41.647Z</time>
      </trkpt>
      <trkpt lat="45.84235" lon="4.64228">
        <ele>293.79998779297</ele>
        <time>2020-10-09T07:17:46.172Z</time>
      </trkpt>
      <trkpt lat="45.8421" lon="4.64195">
        <ele>294.60000610352</ele>
        <time>2020-10-09T07:17:50.712Z</time>
      </trkpt>
      <trkpt lat="45.84189" lon="4.6417">
        <ele>295.20001220703</ele>
        <time>2020-10-09T07:17:55.263Z</time>
      </trkpt>
      <trkpt lat="45.8418" lon="4.64167">
        <ele>295.79998779297</ele>
        <time>2020-10-09T07:17:59.818Z</time>
      </trkpt>
      <trkpt lat="45.84177" lon="4.64168">
        <ele>296</ele>
        <time>2020-10-09T07:18:04.374Z</time>
      </trkpt>
      <trkpt lat="45.8417" lon="4.64171">
        <ele>296.79998779297</ele>
        <time>2020-10-09T07:18:08.934Z</time>
      </trkpt>
      <trkpt lat="45.84164" lon="4.64174">
        <ele>297.79998779297</ele>
        <time>2020-10-09T07:18:13.496Z</time>
      </trkpt>
      <trkpt lat="45.84161" lon="4.64175">
        <ele>298.39999389648</ele>
        <time>2020-10-09T07:18:18.059Z</time>
      </trkpt>
      <trkpt lat="45.84152" lon="4.64182">
        <ele>299.39999389648</ele>
        <time>2020-10-09T07:18:22.627Z</time>
      </trkpt>
      <trkpt lat="45.84148" lon="4.64185">
        <ele>299.39999389648</ele>
        <time>2020-10-09T07:18:27.197Z</time>
      </trkpt>
      <trkpt lat="45.84141" lon="4.64184">
        <ele>299.60000610352</ele>
        <time>2020-10-09T07:18:31.770Z</time>
      </trkpt>
      <trkpt lat="45.84135" lon="4.64177">
        <ele>299.60000610352</ele>
        <time>2020-10-09T07:18:36.346Z</time>
      </trkpt>
      <trkpt lat="45.84128" lon="4.64166">
        <ele>299.79998779297</ele>
        <time>2020-10-09T07:18:40.927Z</time>
      </trkpt>
      <trkpt lat="45.84117" lon="4.64155">
        <ele>300.39999389648</ele>
        <time>2020-10-09T07:18:45.513Z</time>
      </trkpt>
      <trkpt lat="45.84107" lon="4.64148">
        <ele>301.39999389648</ele>
        <time>2020-10-09T07:18:50.104Z</time>
      </trkpt>
      <trkpt lat="45.84104" lon="4.64145">
        <ele>301.60000610352</ele>
        <time>2020-10-09T07:18:54.696Z</time>
      </trkpt>
      <trkpt lat="45.84092" lon="4.64135">
        <ele>302.79998779297</ele>
        <time>2020-10-09T07:18:59.294Z</time>
      </trkpt>
      <trkpt lat="45.84086" lon="4.64131">
        <ele>303.20001220703</ele>
        <time>2020-10-09T07:19:03.895Z</time>
      </trkpt>
      <trkpt lat="45.8408" lon="4.64127">
        <ele>303.79998779297</ele>
        <time>2020-10-09T07:19:08.499Z</time>
      </trkpt>
      <trkpt lat="45.84069" lon="4.64118">
        <ele>304.60000610352</ele>
        <time>2020-10-09T07:19:13.108Z</time>
      </trkpt>
      <trkpt lat="45.84066" lon="4.64116">
        <ele>304.79998779297</ele>
        <time>2020-10-09T07:19:17.719Z</time>
      </trkpt>
      <trkpt lat="45.84055" lon="4.64108">
        <ele>306</ele>
        <time>2020-10-09T07:19:22.335Z</time>
      </trkpt>
      <trkpt lat="45.84042" lon="4.641">
        <ele>307.20001220703</ele>
        <time>2020-10-09T07:19:26.957Z</time>
      </trkpt>
      <trkpt lat="45.84037" lon="4.641">
        <ele>307.39999389648</ele>
        <time>2020-10-09T07:19:31.581Z</time>
      </trkpt>
      <trkpt lat="45.84033" lon="4.64099">
        <ele>307.60000610352</ele>
        <time>2020-10-09T07:19:36.207Z</time>
      </trkpt>
      <trkpt lat="45.8402" lon="4.64098">
        <ele>308.20001220703</ele>
        <time>2020-10-09T07:19:40.839Z</time>
      </trkpt>
      <trkpt lat="45.84" lon="4.64098">
        <ele>309.39999389648</ele>
        <time>2020-10-09T07:19:45.479Z</time>
      </trkpt>
      <trkpt lat="45.83985" lon="4.64097">
        <ele>310.79998779297</ele>
        <time>2020-10-09T07:19:50.126Z</time>
      </trkpt>
      <trkpt lat="45.83977" lon="4.64095">
        <ele>311.79998779297</ele>
        <time>2020-10-09T07:19:54.776Z</time>
      </trkpt>
      <trkpt lat="45.83971" lon="4.64092">
        <ele>312.60000610352</ele>
        <time>2020-10-09T07:19:59.429Z</time>
      </trkpt>
      <trkpt lat="45.83968" lon="4.6409">
        <ele>313.20001220703</ele>
        <time>2020-10-09T07:20:04.083Z</time>
      </trkpt>
      <trkpt lat="45.83955" lon="4.6408">
        <ele>314.39999389648</ele>
        <time>2020-10-09T07:20:08.743Z</time>
      </trkpt>
      <trkpt lat="45.83949" lon="4.64075">
        <ele>315.20001220703</ele>
        <time>2020-10-09T07:20:13.406Z</time>
      </trkpt>
      <trkpt lat="45.83946" lon="4.64072">
        <ele>315.79998779297</ele>
        <time>2020-10-09T07:20:18.071Z</time>
      </trkpt>
      <trkpt lat="45.83935" lon="4.64064">
        <ele>317.20001220703</ele>
        <time>2020-10-09T07:20:22.741Z</time>
      </trkpt>
      <trkpt lat="45.83926" lon="4.64056">
        <ele>318.39999389648</ele>
        <time>2020-10-09T07:20:27.416Z</time>
      </trkpt>
      <trkpt lat="45.83917" lon="4.64049">
        <ele>319.39999389648</ele>
        <time>2020-10-09T07:20:32.095Z</time>
      </trkpt>
      <trkpt lat="45.83907" lon="4.64041">
        <ele>320.60000610352</ele>
        <time>2020-10-09T07:20:36.779Z</time>
      </trkpt>
      <trkpt lat="45.83901" lon="4.64036">
        <ele>321.39999389648</ele>
        <time>2020-10-09T07:20:41.466Z</time>
      </trkpt>
      <trkpt lat="45.83899" lon="4.64033">
        <ele>321.60000610352</ele>
        <time>2020-10-09T07:20:46.154Z</time>
      </trkpt>
      <trkpt lat="45.83891" lon="4.64021">
        <ele>322.79998779297</ele>
        <time>2020-10-09T07:20:50.847Z</time>
      </trkpt>
      <trkpt lat="45.83887" lon="4.64017">
        <ele>323</ele>
        <time>2020-10-09T07:20:55.542Z</time>
      </trkpt>
      <trkpt lat="45.83867" lon="4.63996">
        <ele>323.20001220703</ele>
        <time>2020-10-09T07:21:00.248Z</time>
      </trkpt>
      <trkpt lat="45.83844" lon="4.63973">
        <ele>323</ele>
        <time>2020-10-09T07:21:04.966Z</time>
      </trkpt>
      <trkpt lat="45.8383" lon="4.63958">
        <ele>322.79998779297</ele>
        <time>2020-10-09T07:21:09.691Z</time>
      </trkpt>
      <trkpt lat="45.83828" lon="4.63954">
        <ele>322.79998779297</ele>
        <time>2020-10-09T07:21:14.418Z</time>
      </trkpt>
      <trkpt lat="45.83806" lon="4.63927">
        <ele>322.60000610352</ele>
        <time>2020-10-09T07:21:19.157Z</time>
      </trkpt>
      <trkpt lat="45.83777" lon="4.63902">
        <ele>323</ele>
        <time>2020-10-09T07:21:23.910Z</time>
      </trkpt>
      <trkpt lat="45.8376" lon="4.63889">
        <ele>323.60000610352</ele>
        <time>2020-10-09T07:21:28.671Z</time>
      </trkpt>
      <trkpt lat="45.83755" lon="4.63885">
        <ele>323.79998779297</ele>
        <time>2020-10-09T07:21:33.435Z</time>
      </trkpt>
      <trkpt lat="45.83741" lon="4.63872">
        <ele>324.39999389648</ele>
        <time>2020-10-09T07:21:38.206Z</time>
      </trkpt>
      <trkpt lat="45.83734" lon="4.63864">
        <ele>324.79998779297</ele>
        <time>2020-10-09T07:21:42.981Z</time>
      </trkpt>
      <trkpt lat="45.8372" lon="4.63849">
        <ele>325.79998779297</ele>
        <time>2020-10-09T07:21:47.763Z</time>
      </trkpt>
      <trkpt lat="45.83717" lon="4.63846">
        <ele>326</ele>
        <time>2020-10-09T07:21:52.547Z</time>
      </trkpt>
      <trkpt lat="45.83697" lon="4.63825">
        <ele>326.39999389648</ele>
        <time>2020-10-09T07:21:57.341Z</time>
      </trkpt>
      <trkpt lat="45.83677" lon="4.63806">
        <ele>326.39999389648</ele>
        <time>2020-10-09T07:22:02.146Z</time>
      </trkpt>
      <trkpt lat="45.83654" lon="4.63778">
        <ele>326.39999389648</ele>
        <time>2020-10-09T07:22:06.963Z</time>
      </trkpt>
      <trkpt lat="45.83638" lon="4.63749">
        <ele>326</ele>
        <time>2020-10-09T07:22:11.792Z</time>
      </trkpt>
      <trkpt lat="45.83622" lon="4.63718">
        <ele>325.39999389648</ele>
        <time>2020-10-09T07:22:16.632Z</time>
      </trkpt>
      <trkpt lat="45.83615" lon="4.63703">
        <ele>325.39999389648</ele>
        <time>2020-10-09T07:22:21.477Z</time>
      </trkpt>
      <trkpt lat="45.8361" lon="4.63687">
        <ele>325.60000610352</ele>
        <time>2020-10-09T07:22:26.328Z</time>
      </trkpt>
      <trkpt lat="45.83601" lon="4.63666">
        <ele>325.60000610352</ele>
        <time>2020-10-09T07:22:31.186Z</time>
      </trkpt>
      <trkpt lat="45.83581" lon="4.63642">
        <ele>325.60000610352</ele>
        <time>2020-10-09T07:22:36.055Z</time>
      </trkpt>
      <trkpt lat="45.83566" lon="4.63614">
        <ele>325.60000610352</ele>
        <time>2020-10-09T07:22:40.935Z</time>
      </trkpt>
      <trkpt lat="45.83563" lon="4.63608">
        <ele>325.39999389648</ele>
        <time>2020-10-09T07:22:45.817Z</time>
      </trkpt>
      <trkpt lat="45.83539" lon="4.63563">
        <ele>325.20001220703</ele>
        <time>2020-10-09T07:22:50.716Z</time>
      </trkpt>
      <trkpt lat="45.83521" lon="4.6353">
        <ele>323.79998779297</ele>
        <time>2020-10-09T07:22:55.627Z</time>
      </trkpt>
      <trkpt lat="45.83518" lon="4.63524">
        <ele>323.60000610352</ele>
        <time>2020-10-09T07:23:00.540Z</time>
      </trkpt>
      <trkpt lat="45.83513" lon="4.63513">
        <ele>323.39999389648</ele>
        <time>2020-10-09T07:23:05.457Z</time>
      </trkpt>
      <trkpt lat="45.83509" lon="4.63494">
        <ele>323</ele>
        <time>2020-10-09T07:23:10.380Z</time>
      </trkpt>
      <trkpt lat="45.8351" lon="4.63481">
        <ele>322.79998779297</ele>
        <time>2020-10-09T07:23:15.307Z</time>
      </trkpt>
      <trkpt lat="45.83515" lon="4.63463">
        <ele>322.60000610352</ele>
        <time>2020-10-09T07:23:20.240Z</time>
      </trkpt>
      <trkpt lat="45.8352" lon="4.63452">
        <ele>322.60000610352</ele>
        <time>2020-10-09T07:23:25.177Z</time>
      </trkpt>
      <trkpt lat="45.83531" lon="4.6343">
        <ele>322.39999389648</ele>
        <time>2020-10-09T07:23:30.122Z</time>
      </trkpt>
      <trkpt lat="45.83548" lon="4.63387">
        <ele>322.20001220703</ele>
        <time>2020-10-09T07:23:35.082Z</time>
      </trkpt>
      <trkpt lat="45.83563" lon="4.63345">
        <ele>322</ele>
        <time>2020-10-09T07:23:40.055Z</time>
      </trkpt>
      <trkpt lat="45.83572" lon="4.63329">
        <ele>321.79998779297</ele>
        <time>2020-10-09T07:23:45.035Z</time>
      </trkpt>
      <trkpt lat="45.83583" lon="4.63303">
        <ele>320.60000610352</ele>
        <time>2020-10-09T07:23:50.024Z</time>
      </trkpt>
      <trkpt lat="45.8359" lon="4.63285">
        <ele>318.60000610352</ele>
        <time>2020-10-09T07:23:55.019Z</time>
      </trkpt>
      <trkpt lat="45.83594" lon="4.63264">
        <ele>317.39999389648</ele>
        <time>2020-10-09T07:24:00.020Z</time>
      </trkpt>
      <trkpt lat="45.83595" lon="4.63242">
        <ele>316</ele>
        <time>2020-10-09T07:24:05.028Z</time>
      </trkpt>
      <trkpt lat="45.83592" lon="4.63221">
        <ele>314.60000610352</ele>
        <time>2020-10-09T07:24:10.042Z</time>
      </trkpt>
      <trkpt lat="45.83587" lon="4.63201">
        <ele>313.20001220703</ele>
        <time>2020-10-09T07:24:15.062Z</time>
      </trkpt>
      <trkpt lat="45.83582" lon="4.63181">
        <ele>311.79998779297</ele>
        <time>2020-10-09T07:24:20.089Z</time>
      </trkpt>
      <trkpt lat="45.83577" lon="4.63162">
        <ele>310.60000610352</ele>
        <time>2020-10-09T07:24:25.122Z</time>
      </trkpt>
      <trkpt lat="45.8357" lon="4.63138">
        <ele>309</ele>
        <time>2020-10-09T07:24:30.163Z</time>
      </trkpt>
      <trkpt lat="45.83564" lon="4.63121">
        <ele>307.60000610352</ele>
        <time>2020-10-09T07:24:35.209Z</time>
      </trkpt>
      <trkpt lat="45.83561" lon="4.63112">
        <ele>306.60000610352</ele>
        <time>2020-10-09T07:24:40.258Z</time>
      </trkpt>
      <trkpt lat="45.83558" lon="4.63104">
        <ele>306</ele>
        <time>2020-10-09T07:24:45.310Z</time>
      </trkpt>
      <trkpt lat="45.83551" lon="4.63087">
        <ele>304.79998779297</ele>
        <time>2020-10-09T07:24:50.368Z</time>
      </trkpt>
      <trkpt lat="45.83545" lon="4.6307">
        <ele>303.79998779297</ele>
        <time>2020-10-09T07:24:55.432Z</time>
      </trkpt>
      <trkpt lat="45.83538" lon="4.63051">
        <ele>302.60000610352</ele>
        <time>2020-10-09T07:25:00.502Z</time>
      </trkpt>
      <trkpt lat="45.83535" lon="4.63041">
        <ele>302</ele>
        <time>2020-10-09T07:25:05.575Z</time>
      </trkpt>
      <trkpt lat="45.83533" lon="4.6302">
        <ele>301.39999389648</ele>
        <time>2020-10-09T07:25:10.654Z</time>
      </trkpt>
      <trkpt lat="45.83534" lon="4.62998">
        <ele>299.79998779297</ele>
        <time>2020-10-09T07:25:15.740Z</time>
      </trkpt>
      <trkpt lat="45.83535" lon="4.62977">
        <ele>299</ele>
        <time>2020-10-09T07:25:20.832Z</time>
      </trkpt>
      <trkpt lat="45.83534" lon="4.62967">
        <ele>298.39999389648</ele>
        <time>2020-10-09T07:25:25.927Z</time>
      </trkpt>
      <trkpt lat="45.83533" lon="4.62947">
        <ele>297.39999389648</ele>
        <time>2020-10-09T07:25:31.028Z</time>
      </trkpt>
      <trkpt lat="45.83531" lon="4.62929">
        <ele>296.60000610352</ele>
        <time>2020-10-09T07:25:36.135Z</time>
      </trkpt>
      <trkpt lat="45.83523" lon="4.62889">
        <ele>296.39999389648</ele>
        <time>2020-10-09T07:25:41.254Z</time>
      </trkpt>
      <trkpt lat="45.8352" lon="4.62882">
        <ele>296.39999389648</ele>
        <time>2020-10-09T07:25:46.375Z</time>
      </trkpt>
      <trkpt lat="45.83514" lon="4.6287">
        <ele>296.39999389648</ele>
        <time>2020-10-09T07:25:51.501Z</time>
      </trkpt>
      <trkpt lat="45.83503" lon="4.62854">
        <ele>296.39999389648</ele>
        <time>2020-10-09T07:25:56.633Z</time>
      </trkpt>
      <trkpt lat="45.83477" lon="4.62827">
        <ele>297.20001220703</ele>
        <time>2020-10-09T07:26:01.779Z</time>
      </trkpt>
      <trkpt lat="45.83449" lon="4.62803">
        <ele>298.20001220703</ele>
        <time>2020-10-09T07:26:06.939Z</time>
      </trkpt>
      <trkpt lat="45.83437" lon="4.62793">
        <ele>298.39999389648</ele>
        <time>2020-10-09T07:26:12.105Z</time>
      </trkpt>
      <trkpt lat="45.83426" lon="4.62781">
        <ele>298.79998779297</ele>
        <time>2020-10-09T07:26:17.277Z</time>
      </trkpt>
      <trkpt lat="45.83423" lon="4.62776">
        <ele>299</ele>
        <time>2020-10-09T07:26:22.451Z</time>
      </trkpt>
      <trkpt lat="45.83414" lon="4.62761">
        <ele>299.60000610352</ele>
        <time>2020-10-09T07:26:27.631Z</time>
      </trkpt>
      <trkpt lat="45.83412" lon="4.62758">
        <ele>299.79998779297</ele>
        <time>2020-10-09T07:26:32.812Z</time>
      </trkpt>
      <trkpt lat="45.83412" lon="4.62758">
        <ele>300.39999389648</ele>
        <time>2020-10-09T07:26:37.993Z</time>
      </trkpt>
      <trkpt lat="45.83411" lon="4.62758">
        <ele>300.39999389648</ele>
        <time>2020-10-09T07:26:43.175Z</time>
      </trkpt>
      <trkpt lat="45.83408" lon="4.62759">
        <ele>300.39999389648</ele>
        <time>2020-10-09T07:26:48.358Z</time>
      </trkpt>
      <trkpt lat="45.83405" lon="4.62772">
        <ele>300.39999389648</ele>
        <time>2020-10-09T07:26:53.545Z</time>
      </trkpt>
      <trkpt lat="45.83408" lon="4.62792">
        <ele>300.39999389648</ele>
        <time>2020-10-09T07:26:58.738Z</time>
      </trkpt>
      <trkpt lat="45.83409" lon="4.62797">
        <ele>300.39999389648</ele>
        <time>2020-10-09T07:27:03.933Z</time>
      </trkpt>
      <trkpt lat="45.8341" lon="4.62802">
        <ele>300.60000610352</ele>
        <time>2020-10-09T07:27:09.129Z</time>
      </trkpt>
      <trkpt lat="45.83417" lon="4.62836">
        <ele>301.39999389648</ele>
        <time>2020-10-09T07:27:14.336Z</time>
      </trkpt>
      <trkpt lat="45.83419" lon="4.62847">
        <ele>301.79998779297</ele>
        <time>2020-10-09T07:27:19.546Z</time>
      </trkpt>
      <trkpt lat="45.83425" lon="4.62876">
        <ele>303</ele>
        <time>2020-10-09T07:27:24.765Z</time>
      </trkpt>
      <trkpt lat="45.83427" lon="4.62882">
        <ele>303.20001220703</ele>
        <time>2020-10-09T07:27:29.986Z</time>
      </trkpt>
      <trkpt lat="45.83433" lon="4.6291">
        <ele>304.39999389648</ele>
        <time>2020-10-09T07:27:35.216Z</time>
      </trkpt>
      <trkpt lat="45.83434" lon="4.62916">
        <ele>304.79998779297</ele>
        <time>2020-10-09T07:27:40.448Z</time>
      </trkpt>
      <trkpt lat="45.83436" lon="4.62926">
        <ele>305.60000610352</ele>
        <time>2020-10-09T07:27:45.683Z</time>
      </trkpt>
      <trkpt lat="45.83439" lon="4.62943">
        <ele>306.79998779297</ele>
        <time>2020-10-09T07:27:50.923Z</time>
      </trkpt>
      <trkpt lat="45.8344" lon="4.62959">
        <ele>307.39999389648</ele>
        <time>2020-10-09T07:27:56.168Z</time>
      </trkpt>
      <trkpt lat="45.83439" lon="4.62972">
        <ele>307.79998779297</ele>
        <time>2020-10-09T07:28:01.417Z</time>
      </trkpt>
      <trkpt lat="45.83437" lon="4.62984">
        <ele>308.60000610352</ele>
        <time>2020-10-09T07:28:06.669Z</time>
      </trkpt>
      <trkpt lat="45.83434" lon="4.62995">
        <ele>309</ele>
        <time>2020-10-09T07:28:11.925Z</time>
      </trkpt>
      <trkpt lat="45.83422" lon="4.63017">
        <ele>310</ele>
        <time>2020-10-09T07:28:17.189Z</time>
      </trkpt>
      <trkpt lat="45.83419" lon="4.6302">
        <ele>310.39999389648</ele>
        <time>2020-10-09T07:28:22.455Z</time>
      </trkpt>
      <trkpt lat="45.83409" lon="4.63024">
        <ele>311.60000610352</ele>
        <time>2020-10-09T07:28:27.725Z</time>
      </trkpt>
      <trkpt lat="45.83406" lon="4.63025">
        <ele>312</ele>
        <time>2020-10-09T07:28:32.997Z</time>
      </trkpt>
      <trkpt lat="45.83398" lon="4.63025">
        <ele>312.79998779297</ele>
        <time>2020-10-09T07:28:38.272Z</time>
      </trkpt>
      <trkpt lat="45.83388" lon="4.63024">
        <ele>314</ele>
        <time>2020-10-09T07:28:43.551Z</time>
      </trkpt>
      <trkpt lat="45.83381" lon="4.63023">
        <ele>315.20001220703</ele>
        <time>2020-10-09T07:28:48.833Z</time>
      </trkpt>
      <trkpt lat="45.83377" lon="4.63022">
        <ele>315.39999389648</ele>
        <time>2020-10-09T07:28:54.117Z</time>
      </trkpt>
      <trkpt lat="45.83367" lon="4.63021">
        <ele>316.39999389648</ele>
        <time>2020-10-09T07:28:59.405Z</time>
      </trkpt>
      <trkpt lat="45.83357" lon="4.6302">
        <ele>317.60000610352</ele>
        <time>2020-10-09T07:29:04.698Z</time>
      </trkpt>
      <trkpt lat="45.83347" lon="4.6302">
        <ele>318.39999389648</ele>
        <time>2020-10-09T07:29:09.995Z</time>
      </trkpt>
      <trkpt lat="45.83344" lon="4.6302">
        <ele>318.79998779297</ele>
        <time>2020-10-09T07:29:15.293Z</time>
      </trkpt>
      <trkpt lat="45.8333" lon="4.63023">
        <ele>320</ele>
        <time>2020-10-09T07:29:20.597Z</time>
      </trkpt>
      <trkpt lat="45.83321" lon="4.63026">
        <ele>321.39999389648</ele>
        <time>2020-10-09T07:29:25.905Z</time>
      </trkpt>
      <trkpt lat="45.83314" lon="4.63028">
        <ele>322.20001220703</ele>
        <time>2020-10-09T07:29:31.216Z</time>
      </trkpt>
      <trkpt lat="45.83311" lon="4.63029">
        <ele>322.39999389648</ele>
        <time>2020-10-09T07:29:36.528Z</time>
      </trkpt>
      <trkpt lat="45.83302" lon="4.63031">
        <ele>323.60000610352</ele>
        <time>2020-10-09T07:29:41.844Z</time>
      </trkpt>
      <trkpt lat="45.83289" lon="4.63036">
        <ele>324.79998779297</ele>
        <time>2020-10-09T07:29:47.166Z</time>
      </trkpt>
      <trkpt lat="45.83274" lon="4.63041">
        <ele>326</ele>
        <time>2020-10-09T07:29:52.495Z</time>
      </trkpt>
      <trkpt lat="45.83265" lon="4.63045">
        <ele>327</ele>
        <time>2020-10-09T07:29:57.828Z</time>
      </trkpt>
      <trkpt lat="45.83255" lon="4.63049">
        <ele>327.79998779297</ele>
        <time>2020-10-09T07:30:03.165Z</time>
      </trkpt>
      <trkpt lat="45.83252" lon="4.6305">
        <ele>328.20001220703</ele>
        <time>2020-10-09T07:30:08.503Z</time>
      </trkpt>
      <trkpt lat="45.83237" lon="4.63057">
        <ele>329.20001220703</ele>
        <time>2020-10-09T07:30:13.848Z</time>
      </trkpt>
      <trkpt lat="45.83228" lon="4.63061">
        <ele>330.20001220703</ele>
        <time>2020-10-09T07:30:19.197Z</time>
      </trkpt>
      <trkpt lat="45.83225" lon="4.63062">
        <ele>330.79998779297</ele>
        <time>2020-10-09T07:30:24.547Z</time>
      </trkpt>
      <trkpt lat="45.83213" lon="4.63068">
        <ele>332</ele>
        <time>2020-10-09T07:30:29.903Z</time>
      </trkpt>
      <trkpt lat="45.83201" lon="4.63073">
        <ele>333</ele>
        <time>2020-10-09T07:30:35.264Z</time>
      </trkpt>
      <trkpt lat="45.83192" lon="4.63078">
        <ele>334.20001220703</ele>
        <time>2020-10-09T07:30:40.629Z</time>
      </trkpt>
      <trkpt lat="45.8318" lon="4.63085">
        <ele>335.20001220703</ele>
        <time>2020-10-09T07:30:46.000Z</time>
      </trkpt>
      <trkpt lat="45.83171" lon="4.6309">
        <ele>336.20001220703</ele>
        <time>2020-10-09T07:30:51.375Z</time>
      </trkpt>
      <trkpt lat="45.83168" lon="4.63092">
        <ele>336.60000610352</ele>
        <time>2020-10-09T07:30:56.751Z</time>
      </trkpt>
      <trkpt lat="45.83159" lon="4.63099">
        <ele>337.60000610352</ele>
        <time>2020-10-09T07:31:02.132Z</time>
      </trkpt>
      <trkpt lat="45.83152" lon="4.63109">
        <ele>338.39999389648</ele>
        <time>2020-10-09T07:31:07.517Z</time>
      </trkpt>
      <trkpt lat="45.8315" lon="4.63112">
        <ele>338.79998779297</ele>
        <time>2020-10-09T07:31:12.903Z</time>
      </trkpt>
      <trkpt lat="45.83146" lon="4.63125">
        <ele>339.79998779297</ele>
        <time>2020-10-09T07:31:18.293Z</time>
      </trkpt>
      <trkpt lat="45.83145" lon="4.63134">
        <ele>340.60000610352</ele>
        <time>2020-10-09T07:31:23.686Z</time>
      </trkpt>
      <trkpt lat="45.83144" lon="4.63138">
        <ele>341</ele>
        <time>2020-10-09T07:31:29.080Z</time>
      </trkpt>
      <trkpt lat="45.83138" lon="4.63141">
        <ele>341.60000610352</ele>
        <time>2020-10-09T07:31:34.477Z</time>
      </trkpt>
      <trkpt lat="45.83133" lon="4.63137">
        <ele>342.60000610352</ele>
        <time>2020-10-09T07:31:39.876Z</time>
      </trkpt>
      <trkpt lat="45.8313" lon="4.63134">
        <ele>343</ele>
        <time>2020-10-09T07:31:45.277Z</time>
      </trkpt>
      <trkpt lat="45.83127" lon="4.6313">
        <ele>343.20001220703</ele>
        <time>2020-10-09T07:31:50.679Z</time>
      </trkpt>
      <trkpt lat="45.83118" lon="4.6312">
        <ele>343.60000610352</ele>
        <time>2020-10-09T07:31:56.087Z</time>
      </trkpt>
      <trkpt lat="45.83109" lon="4.63109">
        <ele>344.20001220703</ele>
        <time>2020-10-09T07:32:01.499Z</time>
      </trkpt>
      <trkpt lat="45.831" lon="4.631">
        <ele>344.60000610352</ele>
        <time>2020-10-09T07:32:06.916Z</time>
      </trkpt>
      <trkpt lat="45.83095" lon="4.63105">
        <ele>344.79998779297</ele>
        <time>2020-10-09T07:32:12.336Z</time>
      </trkpt>
      <trkpt lat="45.83091" lon="4.63113">
        <ele>345</ele>
        <time>2020-10-09T07:32:17.759Z</time>
      </trkpt>
      <trkpt lat="45.83075" lon="4.63145">
        <ele>345.20001220703</ele>
        <time>2020-10-09T07:32:23.193Z</time>
      </trkpt>
      <trkpt lat="45.83069" lon="4.63157">
        <ele>346</ele>
        <time>2020-10-09T07:32:28.632Z</time>
      </trkpt>
      <trkpt lat="45.8306" lon="4.63171">
        <ele>346.60000610352</ele>
        <time>2020-10-09T07:32:34.076Z</time>
      </trkpt>
      <trkpt lat="45.83052" lon="4.63185">
        <ele>347</ele>
        <time>2020-10-09T07:32:39.526Z</time>
      </trkpt>
      <trkpt lat="45.83043" lon="4.63198">
        <ele>348.20001220703</ele>
        <time>2020-10-09T07:32:44.981Z</time>
      </trkpt>
      <trkpt lat="45.83034" lon="4.6321">
        <ele>349.20001220703</ele>
        <time>2020-10-09T07:32:50.442Z</time>
      </trkpt>
      <trkpt lat="45.83023" lon="4.63226">
        <ele>350</ele>
        <time>2020-10-09T07:32:55.909Z</time>
      </trkpt>
      <trkpt lat="45.83019" lon="4.63232">
        <ele>350.20001220703</ele>
        <time>2020-10-09T07:33:01.379Z</time>
      </trkpt>
      <trkpt lat="45.8301" lon="4.63245">
        <ele>351.39999389648</ele>
        <time>2020-10-09T07:33:06.854Z</time>
      </trkpt>
      <trkpt lat="45.83004" lon="4.63252">
        <ele>352.39999389648</ele>
        <time>2020-10-09T07:33:12.332Z</time>
      </trkpt>
      <trkpt lat="45.82991" lon="4.63261">
        <ele>353.60000610352</ele>
        <time>2020-10-09T07:33:17.816Z</time>
      </trkpt>
      <trkpt lat="45.82989" lon="4.63262">
        <ele>354</ele>
        <time>2020-10-09T07:33:23.302Z</time>
      </trkpt>
      <trkpt lat="45.82983" lon="4.63265">
        <ele>354.79998779297</ele>
        <time>2020-10-09T07:33:28.790Z</time>
      </trkpt>
      <trkpt lat="45.82971" lon="4.63272">
        <ele>356</ele>
        <time>2020-10-09T07:33:34.284Z</time>
      </trkpt>
      <trkpt lat="45.82959" lon="4.63278">
        <ele>356.79998779297</ele>
        <time>2020-10-09T07:33:39.783Z</time>
      </trkpt>
      <trkpt lat="45.82956" lon="4.6328">
        <ele>357</ele>
        <time>2020-10-09T07:33:45.283Z</time>
      </trkpt>
      <trkpt lat="45.82945" lon="4.63286">
        <ele>358</ele>
        <time>2020-10-09T07:33:50.789Z</time>
      </trkpt>
      <trkpt lat="45.8293" lon="4.63292">
        <ele>359.20001220703</ele>
        <time>2020-10-09T07:33:56.301Z</time>
      </trkpt>
      <trkpt lat="45.82927" lon="4.63293">
        <ele>359.39999389648</ele>
        <time>2020-10-09T07:34:01.814Z</time>
      </trkpt>
      <trkpt lat="45.82919" lon="4.63297">
        <ele>360.20001220703</ele>
        <time>2020-10-09T07:34:07.331Z</time>
      </trkpt>
      <trkpt lat="45.82908" lon="4.63302">
        <ele>361.39999389648</ele>
        <time>2020-10-09T07:34:12.853Z</time>
      </trkpt>
      <trkpt lat="45.82893" lon="4.63306">
        <ele>362.60000610352</ele>
        <time>2020-10-09T07:34:18.382Z</time>
      </trkpt>
      <trkpt lat="45.82887" lon="4.63307">
        <ele>363</ele>
        <time>2020-10-09T07:34:23.913Z</time>
      </trkpt>
      <trkpt lat="45.82881" lon="4.63309">
        <ele>363.60000610352</ele>
        <time>2020-10-09T07:34:29.447Z</time>
      </trkpt>
      <trkpt lat="45.82865" lon="4.63313">
        <ele>364.79998779297</ele>
        <time>2020-10-09T07:34:34.988Z</time>
      </trkpt>
      <trkpt lat="45.82855" lon="4.63315">
        <ele>365.39999389648</ele>
        <time>2020-10-09T07:34:40.533Z</time>
      </trkpt>
      <trkpt lat="45.82842" lon="4.63318">
        <ele>365.79998779297</ele>
        <time>2020-10-09T07:34:46.084Z</time>
      </trkpt>
      <trkpt lat="45.82829" lon="4.6332">
        <ele>366.79998779297</ele>
        <time>2020-10-09T07:34:51.640Z</time>
      </trkpt>
      <trkpt lat="45.82806" lon="4.6333">
        <ele>367.79998779297</ele>
        <time>2020-10-09T07:34:57.206Z</time>
      </trkpt>
      <trkpt lat="45.82803" lon="4.63331">
        <ele>368</ele>
        <time>2020-10-09T07:35:02.774Z</time>
      </trkpt>
      <trkpt lat="45.82782" lon="4.63345">
        <ele>369</ele>
        <time>2020-10-09T07:35:08.352Z</time>
      </trkpt>
      <trkpt lat="45.82778" lon="4.63347">
        <ele>369.20001220703</ele>
        <time>2020-10-09T07:35:13.931Z</time>
      </trkpt>
      <trkpt lat="45.82756" lon="4.63362">
        <ele>370</ele>
        <time>2020-10-09T07:35:19.521Z</time>
      </trkpt>
      <trkpt lat="45.82745" lon="4.6337">
        <ele>370.20001220703</ele>
        <time>2020-10-09T07:35:25.116Z</time>
      </trkpt>
      <trkpt lat="45.82728" lon="4.63381">
        <ele>371</ele>
        <time>2020-10-09T07:35:30.719Z</time>
      </trkpt>
      <trkpt lat="45.82721" lon="4.63386">
        <ele>371.60000610352</ele>
        <time>2020-10-09T07:35:36.325Z</time>
      </trkpt>
      <trkpt lat="45.82715" lon="4.63392">
        <ele>372</ele>
        <time>2020-10-09T07:35:41.934Z</time>
      </trkpt>
      <trkpt lat="45.82699" lon="4.63408">
        <ele>373</ele>
        <time>2020-10-09T07:35:47.552Z</time>
      </trkpt>
      <trkpt lat="45.82686" lon="4.63433">
        <ele>374.20001220703</ele>
        <time>2020-10-09T07:35:53.179Z</time>
      </trkpt>
      <trkpt lat="45.82685" lon="4.63437">
        <ele>374.60000610352</ele>
        <time>2020-10-09T07:35:58.807Z</time>
      </trkpt>
      <trkpt lat="45.82681" lon="4.6345">
        <ele>375.60000610352</ele>
        <time>2020-10-09T07:36:04.439Z</time>
      </trkpt>
      <trkpt lat="45.82676" lon="4.63466">
        <ele>377</ele>
        <time>2020-10-09T07:36:10.077Z</time>
      </trkpt>
      <trkpt lat="45.82675" lon="4.63471">
        <ele>377</ele>
        <time>2020-10-09T07:36:15.716Z</time>
      </trkpt>
      <trkpt lat="45.82672" lon="4.63488">
        <ele>378</ele>
        <time>2020-10-09T07:36:21.361Z</time>
      </trkpt>
      <trkpt lat="45.82669" lon="4.63506">
        <ele>379.20001220703</ele>
        <time>2020-10-09T07:36:27.011Z</time>
      </trkpt>
      <trkpt lat="45.82669" lon="4.6351">
        <ele>379.60000610352</ele>
        <time>2020-10-09T07:36:32.662Z</time>
      </trkpt>
      <trkpt lat="45.82668" lon="4.63519">
        <ele>380.60000610352</ele>
        <time>2020-10-09T07:36:38.316Z</time>
      </trkpt>
      <trkpt lat="45.82668" lon="4.63538">
        <ele>381.79998779297</ele>
        <time>2020-10-09T07:36:43.975Z</time>
      </trkpt>
      <trkpt lat="45.82668" lon="4.63546">
        <ele>382.20001220703</ele>
        <time>2020-10-09T07:36:49.637Z</time>
      </trkpt>
      <trkpt lat="45.82668" lon="4.63552">
        <ele>382.60000610352</ele>
        <time>2020-10-09T07:36:55.301Z</time>
      </trkpt>
      <trkpt lat="45.82666" lon="4.63556">
        <ele>383</ele>
        <time>2020-10-09T07:37:00.966Z</time>
      </trkpt>
      <trkpt lat="45.82666" lon="4.63556">
        <ele>383.39999389648</ele>
        <time>2020-10-09T07:37:06.631Z</time>
      </trkpt>
      <trkpt lat="45.82666" lon="4.63556">
        <ele>384.20001220703</ele>
        <time>2020-10-09T07:37:12.296Z</time>
      </trkpt>
      <trkpt lat="45.82666" lon="4.63556">
        <ele>384.79998779297</ele>
        <time>2020-10-09T07:37:17.961Z</time>
      </trkpt>
      <trkpt lat="45.82665" lon="4.63557">
        <ele>384.79998779297</ele>
        <time>2020-10-09T07:37:23.627Z</time>
      </trkpt>
      <trkpt lat="45.82661" lon="4.63557">
        <ele>384.79998779297</ele>
        <time>2020-10-09T07:37:29.294Z</time>
      </trkpt>
      <trkpt lat="45.82658" lon="4.63554">
        <ele>384.79998779297</ele>
        <time>2020-10-09T07:37:34.963Z</time>
      </trkpt>
      <trkpt lat="45.82649" lon="4.63548">
        <ele>384.60000610352</ele>
        <time>2020-10-09T07:37:40.636Z</time>
      </trkpt>
      <trkpt lat="45.82638" lon="4.63539">
        <ele>384.39999389648</ele>
        <time>2020-10-09T07:37:46.315Z</time>
      </trkpt>
      <trkpt lat="45.82629" lon="4.63532">
        <ele>384.20001220703</ele>
        <time>2020-10-09T07:37:51.998Z</time>
      </trkpt>
      <trkpt lat="45.8262" lon="4.63525">
        <ele>384</ele>
        <time>2020-10-09T07:37:57.685Z</time>
      </trkpt>
      <trkpt lat="45.82604" lon="4.63515">
        <ele>382.79998779297</ele>
        <time>2020-10-09T07:38:03.380Z</time>
      </trkpt>
      <trkpt lat="45.82599" lon="4.63511">
        <ele>382.39999389648</ele>
        <time>2020-10-09T07:38:09.077Z</time>
      </trkpt>
      <trkpt lat="45.82577" lon="4.63494">
        <ele>381.60000610352</ele>
        <time>2020-10-09T07:38:14.785Z</time>
      </trkpt>
      <trkpt lat="45.8256" lon="4.63482">
        <ele>380.39999389648</ele>
        <time>2020-10-09T07:38:20.501Z</time>
      </trkpt>
      <trkpt lat="45.82539" lon="4.63467">
        <ele>379.20001220703</ele>
        <time>2020-10-09T07:38:26.227Z</time>
      </trkpt>
      <trkpt lat="45.82523" lon="4.63457">
        <ele>378</ele>
        <time>2020-10-09T07:38:31.960Z</time>
      </trkpt>
      <trkpt lat="45.82507" lon="4.63446">
        <ele>377.20001220703</ele>
        <time>2020-10-09T07:38:37.701Z</time>
      </trkpt>
      <trkpt lat="45.82497" lon="4.63439">
        <ele>377</ele>
        <time>2020-10-09T07:38:43.447Z</time>
      </trkpt>
      <trkpt lat="45.82477" lon="4.63426">
        <ele>376.79998779297</ele>
        <time>2020-10-09T07:38:49.202Z</time>
      </trkpt>
      <trkpt lat="45.82469" lon="4.63419">
        <ele>376.79998779297</ele>
        <time>2020-10-09T07:38:54.961Z</time>
      </trkpt>
      <trkpt lat="45.82442" lon="4.63402">
        <ele>377</ele>
        <time>2020-10-09T07:39:00.732Z</time>
      </trkpt>
      <trkpt lat="45.82423" lon="4.63392">
        <ele>377.20001220703</ele>
        <time>2020-10-09T07:39:06.512Z</time>
      </trkpt>
      <trkpt lat="45.82416" lon="4.6339">
        <ele>377.60000610352</ele>
        <time>2020-10-09T07:39:12.295Z</time>
      </trkpt>
      <trkpt lat="45.82402" lon="4.63382">
        <ele>378</ele>
        <time>2020-10-09T07:39:18.085Z</time>
      </trkpt>
      <trkpt lat="45.82395" lon="4.63378">
        <ele>378.39999389648</ele>
        <time>2020-10-09T07:39:23.878Z</time>
      </trkpt>
      <trkpt lat="45.82385" lon="4.63374">
        <ele>379</ele>
        <time>2020-10-09T07:39:29.675Z</time>
      </trkpt>
      <trkpt lat="45.82372" lon="4.63369">
        <ele>380.20001220703</ele>
        <time>2020-10-09T07:39:35.478Z</time>
      </trkpt>
      <trkpt lat="45.82368" lon="4.63367">
        <ele>380.20001220703</ele>
        <time>2020-10-09T07:39:41.283Z</time>
      </trkpt>
      <trkpt lat="45.82358" lon="4.63363">
        <ele>381.39999389648</ele>
        <time>2020-10-09T07:39:47.092Z</time>
      </trkpt>
      <trkpt lat="45.82339" lon="4.63355">
        <ele>382.20001220703</ele>
        <time>2020-10-09T07:39:52.910Z</time>
      </trkpt>
      <trkpt lat="45.82336" lon="4.63353">
        <ele>382.39999389648</ele>
        <time>2020-10-09T07:39:58.729Z</time>
      </trkpt>
      <trkpt lat="45.82316" lon="4.63344">
        <ele>383.20001220703</ele>
        <time>2020-10-09T07:40:04.557Z</time>
      </trkpt>
      <trkpt lat="45.82312" lon="4.63341">
        <ele>383.20001220703</ele>
        <time>2020-10-09T07:40:10.387Z</time>
      </trkpt>
      <trkpt lat="45.82271" lon="4.63309">
        <ele>383.39999389648</ele>
        <time>2020-10-09T07:40:16.237Z</time>
      </trkpt>
      <trkpt lat="45.82223" lon="4.63271">
        <ele>381.79998779297</ele>
        <time>2020-10-09T07:40:22.110Z</time>
      </trkpt>
      <trkpt lat="45.82218" lon="4.63267">
        <ele>381.60000610352</ele>
        <time>2020-10-09T07:40:27.985Z</time>
      </trkpt>
      <trkpt lat="45.82209" lon="4.6326">
        <ele>381.39999389648</ele>
        <time>2020-10-09T07:40:33.865Z</time>
      </trkpt>
      <trkpt lat="45.8219" lon="4.63241">
        <ele>381.39999389648</ele>
        <time>2020-10-09T07:40:39.755Z</time>
      </trkpt>
      <trkpt lat="45.82187" lon="4.63237">
        <ele>381.20001220703</ele>
        <time>2020-10-09T07:40:45.647Z</time>
      </trkpt>
      <trkpt lat="45.82178" lon="4.63227">
        <ele>381.20001220703</ele>
        <time>2020-10-09T07:40:51.543Z</time>
      </trkpt>
      <trkpt lat="45.82174" lon="4.63226">
        <ele>381.20001220703</ele>
        <time>2020-10-09T07:40:57.441Z</time>
      </trkpt>
      <trkpt lat="45.82161" lon="4.63234">
        <ele>381.79998779297</ele>
        <time>2020-10-09T07:41:03.345Z</time>
      </trkpt>
      <trkpt lat="45.82157" lon="4.63238">
        <ele>382.20001220703</ele>
        <time>2020-10-09T07:41:09.251Z</time>
      </trkpt>
      <trkpt lat="45.82153" lon="4.63242">
        <ele>382.79998779297</ele>
        <time>2020-10-09T07:41:15.159Z</time>
      </trkpt>
      <trkpt lat="45.82133" lon="4.6326">
        <ele>383.79998779297</ele>
        <time>2020-10-09T07:41:21.077Z</time>
      </trkpt>
      <trkpt lat="45.82129" lon="4.63263">
        <ele>383.79998779297</ele>
        <time>2020-10-09T07:41:26.997Z</time>
      </trkpt>
      <trkpt lat="45.82091" lon="4.63285">
        <ele>384.60000610352</ele>
        <time>2020-10-09T07:41:32.935Z</time>
      </trkpt>
      <trkpt lat="45.82071" lon="4.63292">
        <ele>384.60000610352</ele>
        <time>2020-10-09T07:41:38.882Z</time>
      </trkpt>
      <trkpt lat="45.82061" lon="4.63297">
        <ele>384.39999389648</ele>
        <time>2020-10-09T07:41:44.833Z</time>
      </trkpt>
      <trkpt lat="45.82056" lon="4.633">
        <ele>384.20001220703</ele>
        <time>2020-10-09T07:41:50.786Z</time>
      </trkpt>
      <trkpt lat="45.82034" lon="4.6332">
        <ele>384</ele>
        <time>2020-10-09T07:41:56.750Z</time>
      </trkpt>
      <trkpt lat="45.8202" lon="4.63351">
        <ele>384</ele>
        <time>2020-10-09T07:42:02.726Z</time>
      </trkpt>
      <trkpt lat="45.82016" lon="4.63366">
        <ele>384</ele>
        <time>2020-10-09T07:42:08.706Z</time>
      </trkpt>
      <trkpt lat="45.82011" lon="4.63396">
        <ele>384</ele>
        <time>2020-10-09T07:42:14.695Z</time>
      </trkpt>
      <trkpt lat="45.82006" lon="4.63438">
        <ele>384.20001220703</ele>
        <time>2020-10-09T07:42:20.697Z</time>
      </trkpt>
      <trkpt lat="45.82006" lon="4.63452">
        <ele>384.20001220703</ele>
        <time>2020-10-09T07:42:26.703Z</time>
      </trkpt>
      <trkpt lat="45.82006" lon="4.63458">
        <ele>384.20001220703</ele>
        <time>2020-10-09T07:42:32.711Z</time>
      </trkpt>
      <trkpt lat="45.82008" lon="4.63484">
        <ele>384.79998779297</ele>
        <time>2020-10-09T07:42:38.727Z</time>
      </trkpt>
      <trkpt lat="45.8201" lon="4.63497">
        <ele>385</ele>
        <time>2020-10-09T07:42:44.747Z</time>
      </trkpt>
      <trkpt lat="45.82017" lon="4.6353">
        <ele>386</ele>
        <time>2020-10-09T07:42:50.777Z</time>
      </trkpt>
      <trkpt lat="45.82021" lon="4.6355">
        <ele>387.20001220703</ele>
        <time>2020-10-09T07:42:56.813Z</time>
      </trkpt>
      <trkpt lat="45.82025" lon="4.63569">
        <ele>388.39999389648</ele>
        <time>2020-10-09T07:43:02.855Z</time>
      </trkpt>
      <trkpt lat="45.8203" lon="4.63589">
        <ele>389.60000610352</ele>
        <time>2020-10-09T07:43:08.904Z</time>
      </trkpt>
      <trkpt lat="45.82033" lon="4.63617">
        <ele>390.39999389648</ele>
        <time>2020-10-09T07:43:14.961Z</time>
      </trkpt>
      <trkpt lat="45.82033" lon="4.63623">
        <ele>390.79998779297</ele>
        <time>2020-10-09T07:43:21.020Z</time>
      </trkpt>
      <trkpt lat="45.82035" lon="4.63644">
        <ele>392.20001220703</ele>
        <time>2020-10-09T07:43:27.085Z</time>
      </trkpt>
      <trkpt lat="45.82038" lon="4.63685">
        <ele>393.60000610352</ele>
        <time>2020-10-09T07:43:33.162Z</time>
      </trkpt>
      <trkpt lat="45.82041" lon="4.63712">
        <ele>395</ele>
        <time>2020-10-09T07:43:39.247Z</time>
      </trkpt>
      <trkpt lat="45.82044" lon="4.63738">
        <ele>396.39999389648</ele>
        <time>2020-10-09T07:43:45.340Z</time>
      </trkpt>
      <trkpt lat="45.82047" lon="4.63751">
        <ele>396.79998779297</ele>
        <time>2020-10-09T07:43:51.437Z</time>
      </trkpt>
      <trkpt lat="45.8205" lon="4.63764">
        <ele>397.60000610352</ele>
        <time>2020-10-09T07:43:57.538Z</time>
      </trkpt>
      <trkpt lat="45.82056" lon="4.63784">
        <ele>398.79998779297</ele>
        <time>2020-10-09T07:44:03.646Z</time>
      </trkpt>
      <trkpt lat="45.82063" lon="4.63811">
        <ele>399.60000610352</ele>
        <time>2020-10-09T07:44:09.762Z</time>
      </trkpt>
      <trkpt lat="45.82064" lon="4.63817">
        <ele>399.79998779297</ele>
        <time>2020-10-09T07:44:15.880Z</time>
      </trkpt>
      <trkpt lat="45.82069" lon="4.63847">
        <ele>401</ele>
        <time>2020-10-09T07:44:22.007Z</time>
      </trkpt>
      <trkpt lat="45.82069" lon="4.63855">
        <ele>401.39999389648</ele>
        <time>2020-10-09T07:44:28.137Z</time>
      </trkpt>
      <trkpt lat="45.82069" lon="4.63879">
        <ele>402.20001220703</ele>
        <time>2020-10-09T07:44:34.274Z</time>
      </trkpt>
      <trkpt lat="45.82068" lon="4.63886">
        <ele>402.39999389648</ele>
        <time>2020-10-09T07:44:40.413Z</time>
      </trkpt>
      <trkpt lat="45.82065" lon="4.63902">
        <ele>402.79998779297</ele>
        <time>2020-10-09T07:44:46.557Z</time>
      </trkpt>
      <trkpt lat="45.82062" lon="4.63926">
        <ele>403.20001220703</ele>
        <time>2020-10-09T07:44:52.708Z</time>
      </trkpt>
      <trkpt lat="45.82053" lon="4.63971">
        <ele>403.79998779297</ele>
        <time>2020-10-09T07:44:58.873Z</time>
      </trkpt>
      <trkpt lat="45.82044" lon="4.63992">
        <ele>404.20001220703</ele>
        <time>2020-10-09T07:45:05.046Z</time>
      </trkpt>
      <trkpt lat="45.82032" lon="4.6402">
        <ele>404.79998779297</ele>
        <time>2020-10-09T07:45:11.228Z</time>
      </trkpt>
      <trkpt lat="45.82025" lon="4.64033">
        <ele>405.20001220703</ele>
        <time>2020-10-09T07:45:17.415Z</time>
      </trkpt>
      <trkpt lat="45.82003" lon="4.64071">
        <ele>405.60000610352</ele>
        <time>2020-10-09T07:45:23.617Z</time>
      </trkpt>
      <trkpt lat="45.81966" lon="4.64121">
        <ele>406.20001220703</ele>
        <time>2020-10-09T07:45:29.841Z</time>
      </trkpt>
      <trkpt lat="45.81962" lon="4.64126">
        <ele>406.20001220703</ele>
        <time>2020-10-09T07:45:36.067Z</time>
      </trkpt>
      <trkpt lat="45.81944" lon="4.64152">
        <ele>406.60000610352</ele>
        <time>2020-10-09T07:45:42.304Z</time>
      </trkpt>
      <trkpt lat="45.81939" lon="4.64166">
        <ele>406.79998779297</ele>
        <time>2020-10-09T07:45:48.545Z</time>
      </trkpt>
      <trkpt lat="45.8194" lon="4.64174">
        <ele>406.60000610352</ele>
        <time>2020-10-09T07:45:54.789Z</time>
      </trkpt>
      <trkpt lat="45.8194" lon="4.64174">
        <ele>406.60000610352</ele>
        <time>2020-10-09T07:46:01.033Z</time>
      </trkpt>
      <trkpt lat="45.8194" lon="4.64177">
        <ele>406.60000610352</ele>
        <time>2020-10-09T07:46:07.278Z</time>
      </trkpt>
      <trkpt lat="45.81939" lon="4.64179">
        <ele>406.60000610352</ele>
        <time>2020-10-09T07:46:13.523Z</time>
      </trkpt>
      <trkpt lat="45.81938" lon="4.64182">
        <ele>406.39999389648</ele>
        <time>2020-10-09T07:46:19.769Z</time>
      </trkpt>
      <trkpt lat="45.81938" lon="4.64185">
        <ele>405.79998779297</ele>
        <time>2020-10-09T07:46:26.016Z</time>
      </trkpt>
      <trkpt lat="45.81937" lon="4.64187">
        <ele>405.20001220703</ele>
        <time>2020-10-09T07:46:32.264Z</time>
      </trkpt>
      <trkpt lat="45.81937" lon="4.64187">
        <ele>404.79998779297</ele>
        <time>2020-10-09T07:46:38.512Z</time>
      </trkpt>
      <trkpt lat="45.81936" lon="4.64194">
        <ele>404.60000610352</ele>
        <time>2020-10-09T07:46:44.762Z</time>
      </trkpt>
      <trkpt lat="45.81934" lon="4.642">
        <ele>404</ele>
        <time>2020-10-09T07:46:51.014Z</time>
      </trkpt>
      <trkpt lat="45.81934" lon="4.64201">
        <ele>404</ele>
        <time>2020-10-09T07:46:57.267Z</time>
      </trkpt>
      <trkpt lat="45.81933" lon="4.64205">
        <ele>403</ele>
        <time>2020-10-09T07:47:03.521Z</time>
      </trkpt>
      <trkpt lat="45.81933" lon="4.64211">
        <ele>402</ele>
        <time>2020-10-09T07:47:09.776Z</time>
      </trkpt>
      <trkpt lat="45.81932" lon="4.64217">
        <ele>401.60000610352</ele>
        <time>2020-10-09T07:47:16.033Z</time>
      </trkpt>
      <trkpt lat="45.81931" lon="4.64222">
        <ele>401.39999389648</ele>
        <time>2020-10-09T07:47:22.292Z</time>
      </trkpt>
      <trkpt lat="45.81932" lon="4.6423">
        <ele>401.20001220703</ele>
        <time>2020-10-09T07:47:28.553Z</time>
      </trkpt>
      <trkpt lat="45.81933" lon="4.64236">
        <ele>400.79998779297</ele>
        <time>2020-10-09T07:47:34.816Z</time>
      </trkpt>
      <trkpt lat="45.81939" lon="4.6425">
        <ele>399.79998779297</ele>
        <time>2020-10-09T07:47:41.084Z</time>
      </trkpt>
      <trkpt lat="45.81941" lon="4.64256">
        <ele>399.60000610352</ele>
        <time>2020-10-09T07:47:47.354Z</time>
      </trkpt>
      <trkpt lat="45.81944" lon="4.64284">
        <ele>399</ele>
        <time>2020-10-09T07:47:53.633Z</time>
      </trkpt>
      <trkpt lat="45.81945" lon="4.64291">
        <ele>398.60000610352</ele>
        <time>2020-10-09T07:47:59.914Z</time>
      </trkpt>
      <trkpt lat="45.81946" lon="4.64303">
        <ele>397</ele>
        <time>2020-10-09T07:48:06.198Z</time>
      </trkpt>
      <trkpt lat="45.81946" lon="4.64317">
        <ele>395.79998779297</ele>
        <time>2020-10-09T07:48:12.486Z</time>
      </trkpt>
      <trkpt lat="45.81947" lon="4.64332">
        <ele>394.20001220703</ele>
        <time>2020-10-09T07:48:18.779Z</time>
      </trkpt>
      <trkpt lat="45.81946" lon="4.6435">
        <ele>392.79998779297</ele>
        <time>2020-10-09T07:48:25.077Z</time>
      </trkpt>
      <trkpt lat="45.81945" lon="4.64358">
        <ele>392.39999389648</ele>
        <time>2020-10-09T07:48:31.378Z</time>
      </trkpt>
      <trkpt lat="45.81943" lon="4.64365">
        <ele>392.20001220703</ele>
        <time>2020-10-09T07:48:37.681Z</time>
      </trkpt>
      <trkpt lat="45.8194" lon="4.64379">
        <ele>391.39999389648</ele>
        <time>2020-10-09T07:48:43.988Z</time>
      </trkpt>
      <trkpt lat="45.8194" lon="4.64386">
        <ele>390</ele>
        <time>2020-10-09T07:48:50.298Z</time>
      </trkpt>
      <trkpt lat="45.81938" lon="4.64401">
        <ele>388.20001220703</ele>
        <time>2020-10-09T07:48:56.612Z</time>
      </trkpt>
      <trkpt lat="45.81936" lon="4.64423">
        <ele>387</ele>
        <time>2020-10-09T07:49:02.932Z</time>
      </trkpt>
      <trkpt lat="45.81933" lon="4.64456">
        <ele>385.60000610352</ele>
        <time>2020-10-09T07:49:09.262Z</time>
      </trkpt>
      <trkpt lat="45.81929" lon="4.64471">
        <ele>384.60000610352</ele>
        <time>2020-10-09T07:49:15.597Z</time>
      </trkpt>
      <trkpt lat="45.81929" lon="4.64472">
        <ele>384</ele>
        <time>2020-10-09T07:49:21.933Z</time>
      </trkpt>
      <trkpt lat="45.81929" lon="4.64472">
        <ele>384</ele>
        <time>2020-10-09T07:49:28.269Z</time>
      </trkpt>
      <trkpt lat="45.81928" lon="4.64483">
        <ele>383.79998779297</ele>
        <time>2020-10-09T07:49:34.608Z</time>
      </trkpt>
      <trkpt lat="45.81923" lon="4.64512">
        <ele>383.79998779297</ele>
        <time>2020-10-09T07:49:40.956Z</time>
      </trkpt>
      <trkpt lat="45.8192" lon="4.6454">
        <ele>383.39999389648</ele>
        <time>2020-10-09T07:49:47.312Z</time>
      </trkpt>
      <trkpt lat="45.81917" lon="4.64562">
        <ele>382</ele>
        <time>2020-10-09T07:49:53.675Z</time>
      </trkpt>
      <trkpt lat="45.81916" lon="4.64569">
        <ele>381</ele>
        <time>2020-10-09T07:50:00.040Z</time>
      </trkpt>
      <trkpt lat="45.81915" lon="4.64576">
        <ele>380</ele>
        <time>2020-10-09T07:50:06.407Z</time>
      </trkpt>
      <trkpt lat="45.81912" lon="4.64597">
        <ele>378.79998779297</ele>
        <time>2020-10-09T07:50:12.781Z</time>
      </trkpt>
      <trkpt lat="45.81908" lon="4.64618">
        <ele>377.60000610352</ele>
        <time>2020-10-09T07:50:19.161Z</time>
      </trkpt>
      <trkpt lat="45.81906" lon="4.64625">
        <ele>377.20001220703</ele>
        <time>2020-10-09T07:50:25.543Z</time>
      </trkpt>
      <trkpt lat="45.81901" lon="4.6464">
        <ele>376.39999389648</ele>
        <time>2020-10-09T07:50:31.930Z</time>
      </trkpt>
      <trkpt lat="45.81889" lon="4.64667">
        <ele>375.20001220703</ele>
        <time>2020-10-09T07:50:38.327Z</time>
      </trkpt>
      <trkpt lat="45.81876" lon="4.64695">
        <ele>373.79998779297</ele>
        <time>2020-10-09T07:50:44.734Z</time>
      </trkpt>
      <trkpt lat="45.81864" lon="4.64723">
        <ele>373</ele>
        <time>2020-10-09T07:50:51.151Z</time>
      </trkpt>
      <trkpt lat="45.81861" lon="4.6473">
        <ele>372.79998779297</ele>
        <time>2020-10-09T07:50:57.570Z</time>
      </trkpt>
      <trkpt lat="45.81848" lon="4.64752">
        <ele>371.39999389648</ele>
        <time>2020-10-09T07:51:03.997Z</time>
      </trkpt>
      <trkpt lat="45.81845" lon="4.64756">
        <ele>370.79998779297</ele>
        <time>2020-10-09T07:51:10.426Z</time>
      </trkpt>
      <trkpt lat="45.81843" lon="4.64762">
        <ele>370.39999389648</ele>
        <time>2020-10-09T07:51:16.857Z</time>
      </trkpt>
      <trkpt lat="45.8184" lon="4.64769">
        <ele>369.39999389648</ele>
        <time>2020-10-09T07:51:23.291Z</time>
      </trkpt>
      <trkpt lat="45.81834" lon="4.64783">
        <ele>368.39999389648</ele>
        <time>2020-10-09T07:51:29.730Z</time>
      </trkpt>
      <trkpt lat="45.81822" lon="4.64811">
        <ele>367.20001220703</ele>
        <time>2020-10-09T07:51:36.178Z</time>
      </trkpt>
      <trkpt lat="45.81815" lon="4.64826">
        <ele>366</ele>
        <time>2020-10-09T07:51:42.632Z</time>
      </trkpt>
      <trkpt lat="45.81805" lon="4.64849">
        <ele>364.20001220703</ele>
        <time>2020-10-09T07:51:49.094Z</time>
      </trkpt>
      <trkpt lat="45.81797" lon="4.64863">
        <ele>363.20001220703</ele>
        <time>2020-10-09T07:51:55.561Z</time>
      </trkpt>
      <trkpt lat="45.81793" lon="4.6487">
        <ele>363</ele>
        <time>2020-10-09T07:52:02.031Z</time>
      </trkpt>
      <trkpt lat="45.81781" lon="4.64893">
        <ele>362.20001220703</ele>
        <time>2020-10-09T07:52:08.509Z</time>
      </trkpt>
      <trkpt lat="45.81774" lon="4.64906">
        <ele>361.79998779297</ele>
        <time>2020-10-09T07:52:14.992Z</time>
      </trkpt>
      <trkpt lat="45.81767" lon="4.64916">
        <ele>360.79998779297</ele>
        <time>2020-10-09T07:52:21.480Z</time>
      </trkpt>
      <trkpt lat="45.81757" lon="4.64933">
        <ele>359.39999389648</ele>
        <time>2020-10-09T07:52:27.974Z</time>
      </trkpt>
      <trkpt lat="45.81751" lon="4.64943">
        <ele>358.79998779297</ele>
        <time>2020-10-09T07:52:34.472Z</time>
      </trkpt>
      <trkpt lat="45.81747" lon="4.64952">
        <ele>358.20001220703</ele>
        <time>2020-10-09T07:52:40.973Z</time>
      </trkpt>
      <trkpt lat="45.81742" lon="4.64965">
        <ele>356.79998779297</ele>
        <time>2020-10-09T07:52:47.479Z</time>
      </trkpt>
      <trkpt lat="45.8174" lon="4.64974">
        <ele>355.79998779297</ele>
        <time>2020-10-09T07:52:53.988Z</time>
      </trkpt>
      <trkpt lat="45.8174" lon="4.64983">
        <ele>354.39999389648</ele>
        <time>2020-10-09T07:53:00.499Z</time>
      </trkpt>
      <trkpt lat="45.81741" lon="4.64997">
        <ele>353.20001220703</ele>
        <time>2020-10-09T07:53:07.014Z</time>
      </trkpt>
      <trkpt lat="45.8174" lon="4.65011">
        <ele>352</ele>
        <time>2020-10-09T07:53:13.534Z</time>
      </trkpt>
      <trkpt lat="45.81739" lon="4.65023">
        <ele>350.79998779297</ele>
        <time>2020-10-09T07:53:20.057Z</time>
      </trkpt>
      <trkpt lat="45.8174" lon="4.6503">
        <ele>350.20001220703</ele>
        <time>2020-10-09T07:53:26.582Z</time>
      </trkpt>
      <trkpt lat="45.8174" lon="4.65038">
        <ele>349.79998779297</ele>
        <time>2020-10-09T07:53:33.110Z</time>
      </trkpt>
      <trkpt lat="45.81741" lon="4.65046">
        <ele>349.39999389648</ele>
        <time>2020-10-09T07:53:39.640Z</time>
      </trkpt>
      <trkpt lat="45.81741" lon="4.65062">
        <ele>348.60000610352</ele>
        <time>2020-10-09T07:53:46.175Z</time>
      </trkpt>
      <trkpt lat="45.81739" lon="4.65071">
        <ele>348</ele>
        <time>2020-10-09T07:53:52.712Z</time>
      </trkpt>
      <trkpt lat="45.81737" lon="4.65079">
        <ele>347.39999389648</ele>
        <time>2020-10-09T07:53:59.252Z</time>
      </trkpt>
      <trkpt lat="45.81735" lon="4.65087">
        <ele>346.79998779297</ele>
        <time>2020-10-09T07:54:05.795Z</time>
      </trkpt>
      <trkpt lat="45.81731" lon="4.65102">
        <ele>345.39999389648</ele>
        <time>2020-10-09T07:54:12.342Z</time>
      </trkpt>
      <trkpt lat="45.81726" lon="4.65114">
        <ele>344.20001220703</ele>
        <time>2020-10-09T07:54:18.894Z</time>
      </trkpt>
      <trkpt lat="45.81723" lon="4.6512">
        <ele>343.39999389648</ele>
        <time>2020-10-09T07:54:25.448Z</time>
      </trkpt>
      <trkpt lat="45.8172" lon="4.65125">
        <ele>341.79998779297</ele>
        <time>2020-10-09T07:54:32.004Z</time>
      </trkpt>
      <trkpt lat="45.81712" lon="4.65135">
        <ele>339.79998779297</ele>
        <time>2020-10-09T07:54:38.564Z</time>
      </trkpt>
      <trkpt lat="45.81708" lon="4.6514">
        <ele>339</ele>
        <time>2020-10-09T07:54:45.127Z</time>
      </trkpt>
      <trkpt lat="45.81703" lon="4.65145">
        <ele>338.20001220703</ele>
        <time>2020-10-09T07:54:51.692Z</time>
      </trkpt>
      <trkpt lat="45.81692" lon="4.65155">
        <ele>336.60000610352</ele>
        <time>2020-10-09T07:54:58.263Z</time>
      </trkpt>
      <trkpt lat="45.81682" lon="4.65166">
        <ele>335</ele>
        <time>2020-10-09T07:55:04.839Z</time>
      </trkpt>
      <trkpt lat="45.81671" lon="4.65178">
        <ele>333.20001220703</ele>
        <time>2020-10-09T07:55:11.421Z</time>
      </trkpt>
      <trkpt lat="45.81661" lon="4.6519">
        <ele>331.60000610352</ele>
        <time>2020-10-09T07:55:18.008Z</time>
      </trkpt>
      <trkpt lat="45.81653" lon="4.652">
        <ele>329.79998779297</ele>
        <time>2020-10-09T07:55:24.600Z</time>
      </trkpt>
      <trkpt lat="45.81645" lon="4.65212">
        <ele>328.60000610352</ele>
        <time>2020-10-09T07:55:31.197Z</time>
      </trkpt>
      <trkpt lat="45.81639" lon="4.65223">
        <ele>327.20001220703</ele>
        <time>2020-10-09T07:55:37.798Z</time>
      </trkpt>
      <trkpt lat="45.81637" lon="4.65228">
        <ele>326.60000610352</ele>
        <time>2020-10-09T07:55:44.401Z</time>
      </trkpt>
      <trkpt lat="45.81635" lon="4.65233">
        <ele>326</ele>
        <time>2020-10-09T07:55:51.006Z</time>
      </trkpt>
      <trkpt lat="45.81632" lon="4.65237">
        <ele>325.39999389648</ele>
        <time>2020-10-09T07:55:57.612Z</time>
      </trkpt>
      <trkpt lat="45.81628" lon="4.65247">
        <ele>324.79998779297</ele>
        <time>2020-10-09T07:56:04.222Z</time>
      </trkpt>
      <trkpt lat="45.81623" lon="4.6526">
        <ele>323.60000610352</ele>
        <time>2020-10-09T07:56:10.836Z</time>
      </trkpt>
      <trkpt lat="45.8161" lon="4.65283">
        <ele>321.79998779297</ele>
        <time>2020-10-09T07:56:17.459Z</time>
      </trkpt>
      <trkpt lat="45.81604" lon="4.65293">
        <ele>321.39999389648</ele>
        <time>2020-10-09T07:56:24.086Z</time>
      </trkpt>
      <trkpt lat="45.81592" lon="4.65313">
        <ele>320.60000610352</ele>
        <time>2020-10-09T07:56:30.721Z</time>
      </trkpt>
      <trkpt lat="45.8158" lon="4.65332">
        <ele>318.79998779297</ele>
        <time>2020-10-09T07:56:37.363Z</time>
      </trkpt>
      <trkpt lat="45.8157" lon="4.65348">
        <ele>317.20001220703</ele>
        <time>2020-10-09T07:56:44.012Z</time>
      </trkpt>
      <trkpt lat="45.81566" lon="4.65355">
        <ele>315.79998779297</ele>
        <time>2020-10-09T07:56:50.664Z</time>
      </trkpt>
      <trkpt lat="45.81562" lon="4.65361">
        <ele>313.60000610352</ele>
        <time>2020-10-09T07:56:57.318Z</time>
      </trkpt>
      <trkpt lat="45.81558" lon="4.65367">
        <ele>311.39999389648</ele>
        <time>2020-10-09T07:57:03.974Z</time>
      </trkpt>
      <trkpt lat="45.81555" lon="4.65373">
        <ele>310.39999389648</ele>
        <time>2020-10-09T07:57:10.632Z</time>
      </trkpt>
      <trkpt lat="45.81551" lon="4.65388">
        <ele>309.20001220703</ele>
        <time>2020-10-09T07:57:17.295Z</time>
      </trkpt>
      <trkpt lat="45.81549" lon="4.65396">
        <ele>309.20001220703</ele>
        <time>2020-10-09T07:57:23.961Z</time>
      </trkpt>
      <trkpt lat="45.81548" lon="4.65405">
        <ele>309.20001220703</ele>
        <time>2020-10-09T07:57:30.630Z</time>
      </trkpt>
      <trkpt lat="45.81546" lon="4.65419">
        <ele>310.20001220703</ele>
        <time>2020-10-09T07:57:37.303Z</time>
      </trkpt>
      <trkpt lat="45.81545" lon="4.65425">
        <ele>310.79998779297</ele>
        <time>2020-10-09T07:57:43.978Z</time>
      </trkpt>
      <trkpt lat="45.81543" lon="4.65428">
        <ele>311.39999389648</ele>
        <time>2020-10-09T07:57:50.654Z</time>
      </trkpt>
      <trkpt lat="45.81543" lon="4.65428">
        <ele>311.60000610352</ele>
        <time>2020-10-09T07:57:57.330Z</time>
      </trkpt>
      <trkpt lat="45.81542" lon="4.6543">
        <ele>312.20001220703</ele>
        <time>2020-10-09T07:58:04.007Z</time>
      </trkpt>
      <trkpt lat="45.81543" lon="4.65433">
        <ele>312.20001220703</ele>
        <time>2020-10-09T07:58:10.684Z</time>
      </trkpt>
      <trkpt lat="45.81542" lon="4.65431">
        <ele>312</ele>
        <time>2020-10-09T07:58:17.362Z</time>
      </trkpt>
      <trkpt lat="45.8154" lon="4.65429">
        <ele>312</ele>
        <time>2020-10-09T07:58:24.041Z</time>
      </trkpt>
      <trkpt lat="45.81527" lon="4.65414">
        <ele>312</ele>
        <time>2020-10-09T07:58:30.727Z</time>
      </trkpt>
      <trkpt lat="45.81513" lon="4.65399">
        <ele>312.79998779297</ele>
        <time>2020-10-09T07:58:37.421Z</time>
      </trkpt>
      <trkpt lat="45.8151" lon="4.65396">
        <ele>313</ele>
        <time>2020-10-09T07:58:44.116Z</time>
      </trkpt>
      <trkpt lat="45.81499" lon="4.65384">
        <ele>314</ele>
        <time>2020-10-09T07:58:50.817Z</time>
      </trkpt>
      <trkpt lat="45.81487" lon="4.65372">
        <ele>314.79998779297</ele>
        <time>2020-10-09T07:58:57.524Z</time>
      </trkpt>
      <trkpt lat="45.81484" lon="4.65369">
        <ele>315.20001220703</ele>
        <time>2020-10-09T07:59:04.233Z</time>
      </trkpt>
      <trkpt lat="45.81472" lon="4.65359">
        <ele>316.39999389648</ele>
        <time>2020-10-09T07:59:10.948Z</time>
      </trkpt>
      <trkpt lat="45.81466" lon="4.65353">
        <ele>316.60000610352</ele>
        <time>2020-10-09T07:59:17.666Z</time>
      </trkpt>
      <trkpt lat="45.81456" lon="4.65346">
        <ele>317.60000610352</ele>
        <time>2020-10-09T07:59:24.389Z</time>
      </trkpt>
      <trkpt lat="45.81436" lon="4.65333">
        <ele>318.39999389648</ele>
        <time>2020-10-09T07:59:31.121Z</time>
      </trkpt>
      <trkpt lat="45.81433" lon="4.65331">
        <ele>318.60000610352</ele>
        <time>2020-10-09T07:59:37.855Z</time>
      </trkpt>
      <trkpt lat="45.81412" lon="4.65317">
        <ele>320</ele>
        <time>2020-10-09T07:59:44.598Z</time>
      </trkpt>
      <trkpt lat="45.81406" lon="4.65312">
        <ele>320.60000610352</ele>
        <time>2020-10-09T07:59:51.345Z</time>
      </trkpt>
      <trkpt lat="45.81396" lon="4.65308">
        <ele>321</ele>
        <time>2020-10-09T07:59:58.096Z</time>
      </trkpt>
      <trkpt lat="45.8139" lon="4.65304">
        <ele>321.39999389648</ele>
        <time>2020-10-09T08:00:04.850Z</time>
      </trkpt>
      <trkpt lat="45.81377" lon="4.65297">
        <ele>322</ele>
        <time>2020-10-09T08:00:11.610Z</time>
      </trkpt>
      <trkpt lat="45.81369" lon="4.65294">
        <ele>322.79998779297</ele>
        <time>2020-10-09T08:00:18.373Z</time>
      </trkpt>
      <trkpt lat="45.81364" lon="4.65292">
        <ele>323.39999389648</ele>
        <time>2020-10-09T08:00:25.138Z</time>
      </trkpt>
      <trkpt lat="45.81355" lon="4.65285">
        <ele>324.20001220703</ele>
        <time>2020-10-09T08:00:31.908Z</time>
      </trkpt>
      <trkpt lat="45.81352" lon="4.65282">
        <ele>324.60000610352</ele>
        <time>2020-10-09T08:00:38.679Z</time>
      </trkpt>
      <trkpt lat="45.81344" lon="4.65276">
        <ele>325.60000610352</ele>
        <time>2020-10-09T08:00:45.454Z</time>
      </trkpt>
      <trkpt lat="45.81341" lon="4.65273">
        <ele>325.79998779297</ele>
        <time>2020-10-09T08:00:52.231Z</time>
      </trkpt>
      <trkpt lat="45.81327" lon="4.65259">
        <ele>326.79998779297</ele>
        <time>2020-10-09T08:00:59.015Z</time>
      </trkpt>
      <trkpt lat="45.81317" lon="4.65244">
        <ele>328.20001220703</ele>
        <time>2020-10-09T08:01:05.805Z</time>
      </trkpt>
      <trkpt lat="45.81306" lon="4.65226">
        <ele>329.39999389648</ele>
        <time>2020-10-09T08:01:12.602Z</time>
      </trkpt>
      <trkpt lat="45.81298" lon="4.65213">
        <ele>330.39999389648</ele>
        <time>2020-10-09T08:01:19.405Z</time>
      </trkpt>
      <trkpt lat="45.8128" lon="4.65187">
        <ele>331.20001220703</ele>
        <time>2020-10-09T08:01:26.218Z</time>
      </trkpt>
      <trkpt lat="45.81257" lon="4.65153">
        <ele>331.39999389648</ele>
        <time>2020-10-09T08:01:33.045Z</time>
      </trkpt>
      <trkpt lat="45.81251" lon="4.65142">
        <ele>331.39999389648</ele>
        <time>2020-10-09T08:01:39.877Z</time>
      </trkpt>
      <trkpt lat="45.8124" lon="4.65125">
        <ele>331.39999389648</ele>
        <time>2020-10-09T08:01:46.716Z</time>
      </trkpt>
      <trkpt lat="45.81207" lon="4.6508">
        <ele>330.79998779297</ele>
        <time>2020-10-09T08:01:53.574Z</time>
      </trkpt>
      <trkpt lat="45.81194" lon="4.65063">
        <ele>330.39999389648</ele>
        <time>2020-10-09T08:02:00.439Z</time>
      </trkpt>
      <trkpt lat="45.81187" lon="4.65053">
        <ele>330.39999389648</ele>
        <time>2020-10-09T08:02:07.309Z</time>
      </trkpt>
      <trkpt lat="45.81184" lon="4.65047">
        <ele>330.39999389648</ele>
        <time>2020-10-09T08:02:14.181Z</time>
      </trkpt>
      <trkpt lat="45.81177" lon="4.65031">
        <ele>330.39999389648</ele>
        <time>2020-10-09T08:02:21.059Z</time>
      </trkpt>
      <trkpt lat="45.81166" lon="4.65004">
        <ele>330.39999389648</ele>
        <time>2020-10-09T08:02:27.946Z</time>
      </trkpt>
      <trkpt lat="45.81164" lon="4.64996">
        <ele>330.39999389648</ele>
        <time>2020-10-09T08:02:34.835Z</time>
      </trkpt>
      <trkpt lat="45.81162" lon="4.6497">
        <ele>330.39999389648</ele>
        <time>2020-10-09T08:02:41.732Z</time>
      </trkpt>
      <trkpt lat="45.81154" lon="4.6495">
        <ele>330.39999389648</ele>
        <time>2020-10-09T08:02:48.636Z</time>
      </trkpt>
      <trkpt lat="45.81149" lon="4.64939">
        <ele>330.79998779297</ele>
        <time>2020-10-09T08:02:55.544Z</time>
      </trkpt>
      <trkpt lat="45.81148" lon="4.64937">
        <ele>331.39999389648</ele>
        <time>2020-10-09T08:03:02.453Z</time>
      </trkpt>
      <trkpt lat="45.81147" lon="4.64936">
        <ele>331.79998779297</ele>
        <time>2020-10-09T08:03:09.362Z</time>
      </trkpt>
      <trkpt lat="45.81146" lon="4.64932">
        <ele>332.60000610352</ele>
        <time>2020-10-09T08:03:16.272Z</time>
      </trkpt>
      <trkpt lat="45.81145" lon="4.64928">
        <ele>333.39999389648</ele>
        <time>2020-10-09T08:03:23.184Z</time>
      </trkpt>
      <trkpt lat="45.81144" lon="4.64925">
        <ele>333.60000610352</ele>
        <time>2020-10-09T08:03:30.097Z</time>
      </trkpt>
      <trkpt lat="45.81143" lon="4.64914">
        <ele>335</ele>
        <time>2020-10-09T08:03:37.013Z</time>
      </trkpt>
      <trkpt lat="45.81141" lon="4.64907">
        <ele>336</ele>
        <time>2020-10-09T08:03:43.931Z</time>
      </trkpt>
      <trkpt lat="45.8114" lon="4.64903">
        <ele>336.39999389648</ele>
        <time>2020-10-09T08:03:50.850Z</time>
      </trkpt>
      <trkpt lat="45.81136" lon="4.64888">
        <ele>337.39999389648</ele>
        <time>2020-10-09T08:03:57.774Z</time>
      </trkpt>
      <trkpt lat="45.81134" lon="4.6488">
        <ele>338.20001220703</ele>
        <time>2020-10-09T08:04:04.701Z</time>
      </trkpt>
      <trkpt lat="45.81133" lon="4.64876">
        <ele>338.60000610352</ele>
        <time>2020-10-09T08:04:11.629Z</time>
      </trkpt>
      <trkpt lat="45.81127" lon="4.6485">
        <ele>339.39999389648</ele>
        <time>2020-10-09T08:04:18.565Z</time>
      </trkpt>
      <trkpt lat="45.81126" lon="4.64846">
        <ele>339.79998779297</ele>
        <time>2020-10-09T08:04:25.502Z</time>
      </trkpt>
      <trkpt lat="45.81121" lon="4.64827">
        <ele>340.60000610352</ele>
        <time>2020-10-09T08:04:32.445Z</time>
      </trkpt>
      <trkpt lat="45.8112" lon="4.64824">
        <ele>340.79998779297</ele>
        <time>2020-10-09T08:04:39.390Z</time>
      </trkpt>
      <trkpt lat="45.81116" lon="4.6481">
        <ele>341.39999389648</ele>
        <time>2020-10-09T08:04:46.339Z</time>
      </trkpt>
      <trkpt lat="45.81113" lon="4.64804">
        <ele>341.79998779297</ele>
        <time>2020-10-09T08:04:53.290Z</time>
      </trkpt>
      <trkpt lat="45.81109" lon="4.64794">
        <ele>342.39999389648</ele>
        <time>2020-10-09T08:05:00.245Z</time>
      </trkpt>
      <trkpt lat="45.81106" lon="4.64789">
        <ele>343</ele>
        <time>2020-10-09T08:05:07.202Z</time>
      </trkpt>
      <trkpt lat="45.811" lon="4.64779">
        <ele>343.79998779297</ele>
        <time>2020-10-09T08:05:14.162Z</time>
      </trkpt>
      <trkpt lat="45.81099" lon="4.64777">
        <ele>344</ele>
        <time>2020-10-09T08:05:21.123Z</time>
      </trkpt>
      <trkpt lat="45.8109" lon="4.64763">
        <ele>345.20001220703</ele>
        <time>2020-10-09T08:05:28.090Z</time>
      </trkpt>
      <trkpt lat="45.81088" lon="4.6476">
        <ele>345.60000610352</ele>
        <time>2020-10-09T08:05:35.058Z</time>
      </trkpt>
      <trkpt lat="45.81081" lon="4.64749">
        <ele>346.20001220703</ele>
        <time>2020-10-09T08:05:42.031Z</time>
      </trkpt>
      <trkpt lat="45.81077" lon="4.64742">
        <ele>346.39999389648</ele>
        <time>2020-10-09T08:05:49.006Z</time>
      </trkpt>
      <trkpt lat="45.81068" lon="4.6473">
        <ele>347.20001220703</ele>
        <time>2020-10-09T08:05:55.986Z</time>
      </trkpt>
      <trkpt lat="45.81067" lon="4.64727">
        <ele>347.39999389648</ele>
        <time>2020-10-09T08:06:02.967Z</time>
      </trkpt>
      <trkpt lat="45.81056" lon="4.64709">
        <ele>348.60000610352</ele>
        <time>2020-10-09T08:06:09.956Z</time>
      </trkpt>
      <trkpt lat="45.81048" lon="4.64697">
        <ele>349.60000610352</ele>
        <time>2020-10-09T08:06:16.950Z</time>
      </trkpt>
      <trkpt lat="45.81039" lon="4.64685">
        <ele>350.60000610352</ele>
        <time>2020-10-09T08:06:23.949Z</time>
      </trkpt>
      <trkpt lat="45.81037" lon="4.64682">
        <ele>351</ele>
        <time>2020-10-09T08:06:30.949Z</time>
      </trkpt>
      <trkpt lat="45.81023" lon="4.64661">
        <ele>352</ele>
        <time>2020-10-09T08:06:37.958Z</time>
      </trkpt>
      <trkpt lat="45.8101" lon="4.64643">
        <ele>353.20001220703</ele>
        <time>2020-10-09T08:06:44.974Z</time>
      </trkpt>
      <trkpt lat="45.81006" lon="4.64637">
        <ele>353.60000610352</ele>
        <time>2020-10-09T08:06:51.993Z</time>
      </trkpt>
      <trkpt lat="45.81" lon="4.64628">
        <ele>354.20001220703</ele>
        <time>2020-10-09T08:06:59.016Z</time>
      </trkpt>
      <trkpt lat="45.80992" lon="4.64616">
        <ele>355</ele>
        <time>2020-10-09T08:07:06.043Z</time>
      </trkpt>
      <trkpt lat="45.80989" lon="4.6461">
        <ele>355.60000610352</ele>
        <time>2020-10-09T08:07:13.073Z</time>
      </trkpt>
      <trkpt lat="45.80981" lon="4.64599">
        <ele>356.79998779297</ele>
        <time>2020-10-09T08:07:20.107Z</time>
      </trkpt>
      <trkpt lat="45.80977" lon="4.64594">
        <ele>358</ele>
        <time>2020-10-09T08:07:27.144Z</time>
      </trkpt>
      <trkpt lat="45.80971" lon="4.64587">
        <ele>359</ele>
        <time>2020-10-09T08:07:34.184Z</time>
      </trkpt>
      <trkpt lat="45.80962" lon="4.64578">
        <ele>360</ele>
        <time>2020-10-09T08:07:41.229Z</time>
      </trkpt>
      <trkpt lat="45.8096" lon="4.64576">
        <ele>360.20001220703</ele>
        <time>2020-10-09T08:07:48.275Z</time>
      </trkpt>
      <trkpt lat="45.80948" lon="4.64566">
        <ele>361.39999389648</ele>
        <time>2020-10-09T08:07:55.326Z</time>
      </trkpt>
      <trkpt lat="45.80943" lon="4.64559">
        <ele>362</ele>
        <time>2020-10-09T08:08:02.381Z</time>
      </trkpt>
      <trkpt lat="45.80935" lon="4.64548">
        <ele>362.60000610352</ele>
        <time>2020-10-09T08:08:09.440Z</time>
      </trkpt>
      <trkpt lat="45.80932" lon="4.64541">
        <ele>363</ele>
        <time>2020-10-09T08:08:16.502Z</time>
      </trkpt>
      <trkpt lat="45.80927" lon="4.6453">
        <ele>363.79998779297</ele>
        <time>2020-10-09T08:08:23.567Z</time>
      </trkpt>
      <trkpt lat="45.80922" lon="4.64521">
        <ele>364.20001220703</ele>
        <time>2020-10-09T08:08:30.636Z</time>
      </trkpt>
      <trkpt lat="45.80917" lon="4.64513">
        <ele>364.79998779297</ele>
        <time>2020-10-09T08:08:37.708Z</time>
      </trkpt>
      <trkpt lat="45.80915" lon="4.64507">
        <ele>365.20001220703</ele>
        <time>2020-10-09T08:08:44.782Z</time>
      </trkpt>
      <trkpt lat="45.8091" lon="4.64498">
        <ele>366</ele>
        <time>2020-10-09T08:08:51.859Z</time>
      </trkpt>
      <trkpt lat="45.8091" lon="4.64498">
        <ele>366.20001220703</ele>
        <time>2020-10-09T08:08:58.937Z</time>
      </trkpt>
      <trkpt lat="45.8091" lon="4.64498">
        <ele>367.20001220703</ele>
        <time>2020-10-09T08:09:06.015Z</time>
      </trkpt>
      <trkpt lat="45.8091" lon="4.64498">
        <ele>367.39999389648</ele>
        <time>2020-10-09T08:09:13.093Z</time>
      </trkpt>
      <trkpt lat="45.8091" lon="4.64498">
        <ele>367.39999389648</ele>
        <time>2020-10-09T08:09:20.171Z</time>
      </trkpt>
      <trkpt lat="45.80904" lon="4.64492">
        <ele>367.60000610352</ele>
        <time>2020-10-09T08:09:27.252Z</time>
      </trkpt>
      <trkpt lat="45.80898" lon="4.6448">
        <ele>367.60000610352</ele>
        <time>2020-10-09T08:09:34.337Z</time>
      </trkpt>
      <trkpt lat="45.80895" lon="4.64473">
        <ele>367.60000610352</ele>
        <time>2020-10-09T08:09:41.425Z</time>
      </trkpt>
      <trkpt lat="45.80888" lon="4.64458">
        <ele>368</ele>
        <time>2020-10-09T08:09:48.518Z</time>
      </trkpt>
      <trkpt lat="45.80883" lon="4.64452">
        <ele>368.39999389648</ele>
        <time>2020-10-09T08:09:55.614Z</time>
      </trkpt>
      <trkpt lat="45.80871" lon="4.64439">
        <ele>369.39999389648</ele>
        <time>2020-10-09T08:10:02.716Z</time>
      </trkpt>
      <trkpt lat="45.80864" lon="4.64432">
        <ele>370.39999389648</ele>
        <time>2020-10-09T08:10:09.822Z</time>
      </trkpt>
      <trkpt lat="45.80859" lon="4.64423">
        <ele>371.39999389648</ele>
        <time>2020-10-09T08:10:16.931Z</time>
      </trkpt>
      <trkpt lat="45.80858" lon="4.6442">
        <ele>372</ele>
        <time>2020-10-09T08:10:24.041Z</time>
      </trkpt>
      <trkpt lat="45.80854" lon="4.64415">
        <ele>372.79998779297</ele>
        <time>2020-10-09T08:10:31.154Z</time>
      </trkpt>
      <trkpt lat="45.80846" lon="4.64405">
        <ele>373.79998779297</ele>
        <time>2020-10-09T08:10:38.271Z</time>
      </trkpt>
      <trkpt lat="45.80844" lon="4.64402">
        <ele>374</ele>
        <time>2020-10-09T08:10:45.389Z</time>
      </trkpt>
      <trkpt lat="45.80839" lon="4.64395">
        <ele>375</ele>
        <time>2020-10-09T08:10:52.510Z</time>
      </trkpt>
      <trkpt lat="45.80832" lon="4.64387">
        <ele>375.60000610352</ele>
        <time>2020-10-09T08:10:59.635Z</time>
      </trkpt>
      <trkpt lat="45.80828" lon="4.64382">
        <ele>376</ele>
        <time>2020-10-09T08:11:06.762Z</time>
      </trkpt>
      <trkpt lat="45.8082" lon="4.64373">
        <ele>377</ele>
        <time>2020-10-09T08:11:13.894Z</time>
      </trkpt>
      <trkpt lat="45.80812" lon="4.64363">
        <ele>378.39999389648</ele>
        <time>2020-10-09T08:11:21.030Z</time>
      </trkpt>
      <trkpt lat="45.80807" lon="4.64359">
        <ele>379</ele>
        <time>2020-10-09T08:11:28.169Z</time>
      </trkpt>
      <trkpt lat="45.80805" lon="4.64357">
        <ele>379.39999389648</ele>
        <time>2020-10-09T08:11:35.309Z</time>
      </trkpt>
      <trkpt lat="45.80802" lon="4.64355">
        <ele>379.79998779297</ele>
        <time>2020-10-09T08:11:42.450Z</time>
      </trkpt>
      <trkpt lat="45.80798" lon="4.6435">
        <ele>380.79998779297</ele>
        <time>2020-10-09T08:11:49.593Z</time>
      </trkpt>
      <trkpt lat="45.80795" lon="4.64347">
        <ele>381.39999389648</ele>
        <time>2020-10-09T08:11:56.738Z</time>
      </trkpt>
      <trkpt lat="45.80792" lon="4.64345">
        <ele>381.79998779297</ele>
        <time>2020-10-09T08:12:03.884Z</time>
      </trkpt>
      <trkpt lat="45.80786" lon="4.64336">
        <ele>383</ele>
        <time>2020-10-09T08:12:11.034Z</time>
      </trkpt>
      <trkpt lat="45.80782" lon="4.64329">
        <ele>383.60000610352</ele>
        <time>2020-10-09T08:12:18.186Z</time>
      </trkpt>
      <trkpt lat="45.8078" lon="4.64325">
        <ele>384</ele>
        <time>2020-10-09T08:12:25.340Z</time>
      </trkpt>
      <trkpt lat="45.80772" lon="4.64313">
        <ele>385.20001220703</ele>
        <time>2020-10-09T08:12:32.499Z</time>
      </trkpt>
      <trkpt lat="45.80767" lon="4.64305">
        <ele>386</ele>
        <time>2020-10-09T08:12:39.661Z</time>
      </trkpt>
      <trkpt lat="45.80765" lon="4.64302">
        <ele>386.20001220703</ele>
        <time>2020-10-09T08:12:46.824Z</time>
      </trkpt>
      <trkpt lat="45.80759" lon="4.6429">
        <ele>387.39999389648</ele>
        <time>2020-10-09T08:12:53.992Z</time>
      </trkpt>
      <trkpt lat="45.80755" lon="4.64282">
        <ele>389.20001220703</ele>
        <time>2020-10-09T08:13:01.163Z</time>
      </trkpt>
      <trkpt lat="45.8075" lon="4.64272">
        <ele>390.39999389648</ele>
        <time>2020-10-09T08:13:08.337Z</time>
      </trkpt>
      <trkpt lat="45.80747" lon="4.64267">
        <ele>391</ele>
        <time>2020-10-09T08:13:15.513Z</time>
      </trkpt>
      <trkpt lat="45.80744" lon="4.64262">
        <ele>391.79998779297</ele>
        <time>2020-10-09T08:13:22.691Z</time>
      </trkpt>
      <trkpt lat="45.8074" lon="4.64255">
        <ele>392.79998779297</ele>
        <time>2020-10-09T08:13:29.872Z</time>
      </trkpt>
      <trkpt lat="45.80739" lon="4.64253">
        <ele>393.39999389648</ele>
        <time>2020-10-09T08:13:37.054Z</time>
      </trkpt>
      <trkpt lat="45.80736" lon="4.64248">
        <ele>394.39999389648</ele>
        <time>2020-10-09T08:13:44.238Z</time>
      </trkpt>
      <trkpt lat="45.80732" lon="4.64238">
        <ele>395.60000610352</ele>
        <time>2020-10-09T08:13:51.425Z</time>
      </trkpt>
      <trkpt lat="45.80728" lon="4.6423">
        <ele>396.79998779297</ele>
        <time>2020-10-09T08:13:58.615Z</time>
      </trkpt>
      <trkpt lat="45.80727" lon="4.64226">
        <ele>398</ele>
        <time>2020-10-09T08:14:05.806Z</time>
      </trkpt>
      <trkpt lat="45.80727" lon="4.64225">
        <ele>398.60000610352</ele>
        <time>2020-10-09T08:14:12.998Z</time>
      </trkpt>
      <trkpt lat="45.80726" lon="4.64224">
        <ele>399</ele>
        <time>2020-10-09T08:14:20.190Z</time>
      </trkpt>
      <trkpt lat="45.80726" lon="4.64224">
        <ele>400</ele>
        <time>2020-10-09T08:14:27.382Z</time>
      </trkpt>
      <trkpt lat="45.80726" lon="4.64223">
        <ele>400</ele>
        <time>2020-10-09T08:14:34.574Z</time>
      </trkpt>
      <trkpt lat="45.80726" lon="4.64222">
        <ele>400</ele>
        <time>2020-10-09T08:14:41.767Z</time>
      </trkpt>
      <trkpt lat="45.80726" lon="4.64218">
        <ele>400</ele>
        <time>2020-10-09T08:14:48.961Z</time>
      </trkpt>
      <trkpt lat="45.80728" lon="4.64213">
        <ele>400</ele>
        <time>2020-10-09T08:14:56.157Z</time>
      </trkpt>
      <trkpt lat="45.80733" lon="4.64198">
        <ele>400</ele>
        <time>2020-10-09T08:15:03.357Z</time>
      </trkpt>
      <trkpt lat="45.80734" lon="4.64195">
        <ele>400</ele>
        <time>2020-10-09T08:15:10.559Z</time>
      </trkpt>
      <trkpt lat="45.80742" lon="4.64166">
        <ele>400.60000610352</ele>
        <time>2020-10-09T08:15:17.770Z</time>
      </trkpt>
      <trkpt lat="45.80747" lon="4.64149">
        <ele>401</ele>
        <time>2020-10-09T08:15:24.986Z</time>
      </trkpt>
      <trkpt lat="45.80752" lon="4.64132">
        <ele>401.79998779297</ele>
        <time>2020-10-09T08:15:32.208Z</time>
      </trkpt>
      <trkpt lat="45.80756" lon="4.6412">
        <ele>402.20001220703</ele>
        <time>2020-10-09T08:15:39.434Z</time>
      </trkpt>
      <trkpt lat="45.8076" lon="4.64099">
        <ele>403.39999389648</ele>
        <time>2020-10-09T08:15:46.666Z</time>
      </trkpt>
      <trkpt lat="45.8076" lon="4.64095">
        <ele>403.79998779297</ele>
        <time>2020-10-09T08:15:53.900Z</time>
      </trkpt>
      <trkpt lat="45.80762" lon="4.64086">
        <ele>404.39999389648</ele>
        <time>2020-10-09T08:16:01.136Z</time>
      </trkpt>
      <trkpt lat="45.80765" lon="4.64066">
        <ele>405.60000610352</ele>
        <time>2020-10-09T08:16:08.378Z</time>
      </trkpt>
      <trkpt lat="45.80767" lon="4.64055">
        <ele>406.79998779297</ele>
        <time>2020-10-09T08:16:15.624Z</time>
      </trkpt>
      <trkpt lat="45.8077" lon="4.64039">
        <ele>408.20001220703</ele>
        <time>2020-10-09T08:16:22.875Z</time>
      </trkpt>
      <trkpt lat="45.80773" lon="4.64027">
        <ele>409.20001220703</ele>
        <time>2020-10-09T08:16:30.129Z</time>
      </trkpt>
      <trkpt lat="45.80774" lon="4.6402">
        <ele>409.79998779297</ele>
        <time>2020-10-09T08:16:37.386Z</time>
      </trkpt>
      <trkpt lat="45.80776" lon="4.64012">
        <ele>410.39999389648</ele>
        <time>2020-10-09T08:16:44.645Z</time>
      </trkpt>
      <trkpt lat="45.80778" lon="4.63992">
        <ele>411.60000610352</ele>
        <time>2020-10-09T08:16:51.910Z</time>
      </trkpt>
      <trkpt lat="45.80779" lon="4.63984">
        <ele>412</ele>
        <time>2020-10-09T08:16:59.177Z</time>
      </trkpt>
      <trkpt lat="45.80779" lon="4.6398">
        <ele>412.60000610352</ele>
        <time>2020-10-09T08:17:06.446Z</time>
      </trkpt>
      <trkpt lat="45.80778" lon="4.6396">
        <ele>414</ele>
        <time>2020-10-09T08:17:13.721Z</time>
      </trkpt>
      <trkpt lat="45.80777" lon="4.63948">
        <ele>415</ele>
        <time>2020-10-09T08:17:20.999Z</time>
      </trkpt>
      <trkpt lat="45.80777" lon="4.63944">
        <ele>415.20001220703</ele>
        <time>2020-10-09T08:17:28.278Z</time>
      </trkpt>
      <trkpt lat="45.80778" lon="4.63928">
        <ele>416.60000610352</ele>
        <time>2020-10-09T08:17:35.562Z</time>
      </trkpt>
      <trkpt lat="45.80778" lon="4.63919">
        <ele>417.20001220703</ele>
        <time>2020-10-09T08:17:42.849Z</time>
      </trkpt>
      <trkpt lat="45.80779" lon="4.63911">
        <ele>417.79998779297</ele>
        <time>2020-10-09T08:17:50.138Z</time>
      </trkpt>
      <trkpt lat="45.80781" lon="4.63885">
        <ele>419</ele>
        <time>2020-10-09T08:17:57.435Z</time>
      </trkpt>
      <trkpt lat="45.80782" lon="4.63868">
        <ele>420.20001220703</ele>
        <time>2020-10-09T08:18:04.737Z</time>
      </trkpt>
      <trkpt lat="45.80782" lon="4.63864">
        <ele>420.39999389648</ele>
        <time>2020-10-09T08:18:12.040Z</time>
      </trkpt>
      <trkpt lat="45.80783" lon="4.63851">
        <ele>421.39999389648</ele>
        <time>2020-10-09T08:18:19.347Z</time>
      </trkpt>
      <trkpt lat="45.80782" lon="4.63829">
        <ele>422.60000610352</ele>
        <time>2020-10-09T08:18:26.661Z</time>
      </trkpt>
      <trkpt lat="45.80782" lon="4.63808">
        <ele>423.79998779297</ele>
        <time>2020-10-09T08:18:33.981Z</time>
      </trkpt>
      <trkpt lat="45.80782" lon="4.63794">
        <ele>424.39999389648</ele>
        <time>2020-10-09T08:18:41.305Z</time>
      </trkpt>
      <trkpt lat="45.80782" lon="4.63784">
        <ele>424.79998779297</ele>
        <time>2020-10-09T08:18:48.632Z</time>
      </trkpt>
      <trkpt lat="45.8078" lon="4.63753">
        <ele>425.79998779297</ele>
        <time>2020-10-09T08:18:55.969Z</time>
      </trkpt>
      <trkpt lat="45.8078" lon="4.63748">
        <ele>425.79998779297</ele>
        <time>2020-10-09T08:19:03.307Z</time>
      </trkpt>
      <trkpt lat="45.80784" lon="4.63716">
        <ele>426.79998779297</ele>
        <time>2020-10-09T08:19:10.655Z</time>
      </trkpt>
      <trkpt lat="45.80792" lon="4.63689">
        <ele>427.79998779297</ele>
        <time>2020-10-09T08:19:18.011Z</time>
      </trkpt>
      <trkpt lat="45.80795" lon="4.63668">
        <ele>429</ele>
        <time>2020-10-09T08:19:25.374Z</time>
      </trkpt>
      <trkpt lat="45.80796" lon="4.63661">
        <ele>429.60000610352</ele>
        <time>2020-10-09T08:19:32.739Z</time>
      </trkpt>
      <trkpt lat="45.80797" lon="4.6365">
        <ele>430.20001220703</ele>
        <time>2020-10-09T08:19:40.107Z</time>
      </trkpt>
      <trkpt lat="45.80799" lon="4.6364">
        <ele>431.39999389648</ele>
        <time>2020-10-09T08:19:47.478Z</time>
      </trkpt>
      <trkpt lat="45.808" lon="4.6363">
        <ele>432.39999389648</ele>
        <time>2020-10-09T08:19:54.852Z</time>
      </trkpt>
      <trkpt lat="45.808" lon="4.63621">
        <ele>433.60000610352</ele>
        <time>2020-10-09T08:20:02.229Z</time>
      </trkpt>
      <trkpt lat="45.80801" lon="4.63607">
        <ele>435</ele>
        <time>2020-10-09T08:20:09.610Z</time>
      </trkpt>
      <trkpt lat="45.80802" lon="4.63597">
        <ele>436.20001220703</ele>
        <time>2020-10-09T08:20:16.994Z</time>
      </trkpt>
      <trkpt lat="45.80802" lon="4.63591">
        <ele>436.79998779297</ele>
        <time>2020-10-09T08:20:24.380Z</time>
      </trkpt>
      <trkpt lat="45.80802" lon="4.63584">
        <ele>437.60000610352</ele>
        <time>2020-10-09T08:20:31.768Z</time>
      </trkpt>
      <trkpt lat="45.80802" lon="4.63574">
        <ele>438.79998779297</ele>
        <time>2020-10-09T08:20:39.159Z</time>
      </trkpt>
      <trkpt lat="45.80801" lon="4.63568">
        <ele>439.60000610352</ele>
        <time>2020-10-09T08:20:46.552Z</time>
      </trkpt>
      <trkpt lat="45.80801" lon="4.63564">
        <ele>440</ele>
        <time>2020-10-09T08:20:53.946Z</time>
      </trkpt>
      <trkpt lat="45.808" lon="4.63554">
        <ele>441</ele>
        <time>2020-10-09T08:21:01.343Z</time>
      </trkpt>
      <trkpt lat="45.80799" lon="4.63542">
        <ele>442.39999389648</ele>
        <time>2020-10-09T08:21:08.744Z</time>
      </trkpt>
      <trkpt lat="45.80799" lon="4.63538">
        <ele>443</ele>
        <time>2020-10-09T08:21:16.146Z</time>
      </trkpt>
      <trkpt lat="45.80798" lon="4.63535">
        <ele>443.60000610352</ele>
        <time>2020-10-09T08:21:23.549Z</time>
      </trkpt>
      <trkpt lat="45.80798" lon="4.6353">
        <ele>445</ele>
        <time>2020-10-09T08:21:30.953Z</time>
      </trkpt>
      <trkpt lat="45.80797" lon="4.6352">
        <ele>446</ele>
        <time>2020-10-09T08:21:38.360Z</time>
      </trkpt>
      <trkpt lat="45.80797" lon="4.63517">
        <ele>446.20001220703</ele>
        <time>2020-10-09T08:21:45.768Z</time>
      </trkpt>
      <trkpt lat="45.80796" lon="4.63507">
        <ele>447</ele>
        <time>2020-10-09T08:21:53.179Z</time>
      </trkpt>
      <trkpt lat="45.80792" lon="4.63492">
        <ele>448.20001220703</ele>
        <time>2020-10-09T08:22:00.595Z</time>
      </trkpt>
      <trkpt lat="45.80788" lon="4.63479">
        <ele>449.39999389648</ele>
        <time>2020-10-09T08:22:08.015Z</time>
      </trkpt>
      <trkpt lat="45.80786" lon="4.63469">
        <ele>450</ele>
        <time>2020-10-09T08:22:15.438Z</time>
      </trkpt>
      <trkpt lat="45.80785" lon="4.63462">
        <ele>450.39999389648</ele>
        <time>2020-10-09T08:22:22.864Z</time>
      </trkpt>
      <trkpt lat="45.80781" lon="4.63445">
        <ele>451.20001220703</ele>
        <time>2020-10-09T08:22:30.295Z</time>
      </trkpt>
      <trkpt lat="45.8078" lon="4.63442">
        <ele>451.39999389648</ele>
        <time>2020-10-09T08:22:37.727Z</time>
      </trkpt>
      <trkpt lat="45.80778" lon="4.63431">
        <ele>452.39999389648</ele>
        <time>2020-10-09T08:22:45.162Z</time>
      </trkpt>
      <trkpt lat="45.80777" lon="4.63422">
        <ele>453.20001220703</ele>
        <time>2020-10-09T08:22:52.600Z</time>
      </trkpt>
      <trkpt lat="45.80777" lon="4.63419">
        <ele>453.60000610352</ele>
        <time>2020-10-09T08:23:00.039Z</time>
      </trkpt>
      <trkpt lat="45.80778" lon="4.63406">
        <ele>454.60000610352</ele>
        <time>2020-10-09T08:23:07.481Z</time>
      </trkpt>
      <trkpt lat="45.80778" lon="4.63404">
        <ele>455</ele>
        <time>2020-10-09T08:23:14.924Z</time>
      </trkpt>
      <trkpt lat="45.8078" lon="4.63395">
        <ele>455.79998779297</ele>
        <time>2020-10-09T08:23:22.370Z</time>
      </trkpt>
      <trkpt lat="45.80781" lon="4.63389">
        <ele>456.39999389648</ele>
        <time>2020-10-09T08:23:29.818Z</time>
      </trkpt>
      <trkpt lat="45.80782" lon="4.63386">
        <ele>456.79998779297</ele>
        <time>2020-10-09T08:23:37.267Z</time>
      </trkpt>
      <trkpt lat="45.80783" lon="4.63375">
        <ele>458</ele>
        <time>2020-10-09T08:23:44.719Z</time>
      </trkpt>
      <trkpt lat="45.80784" lon="4.63369">
        <ele>458.79998779297</ele>
        <time>2020-10-09T08:23:52.173Z</time>
      </trkpt>
      <trkpt lat="45.80784" lon="4.63365">
        <ele>459.20001220703</ele>
        <time>2020-10-09T08:23:59.628Z</time>
      </trkpt>
      <trkpt lat="45.80785" lon="4.63355">
        <ele>460.39999389648</ele>
        <time>2020-10-09T08:24:07.086Z</time>
      </trkpt>
      <trkpt lat="45.80785" lon="4.63351">
        <ele>460.60000610352</ele>
        <time>2020-10-09T08:24:14.545Z</time>
      </trkpt>
      <trkpt lat="45.80785" lon="4.63344">
        <ele>461.60000610352</ele>
        <time>2020-10-09T08:24:22.006Z</time>
      </trkpt>
      <trkpt lat="45.80789" lon="4.63323">
        <ele>462.39999389648</ele>
        <time>2020-10-09T08:24:29.474Z</time>
      </trkpt>
      <trkpt lat="45.8079" lon="4.63319">
        <ele>462.79998779297</ele>
        <time>2020-10-09T08:24:36.943Z</time>
      </trkpt>
      <trkpt lat="45.80797" lon="4.63294">
        <ele>463.60000610352</ele>
        <time>2020-10-09T08:24:44.420Z</time>
      </trkpt>
      <trkpt lat="45.80798" lon="4.63289">
        <ele>463.79998779297</ele>
        <time>2020-10-09T08:24:51.899Z</time>
      </trkpt>
      <trkpt lat="45.80802" lon="4.63271">
        <ele>464.79998779297</ele>
        <time>2020-10-09T08:24:59.383Z</time>
      </trkpt>
      <trkpt lat="45.80803" lon="4.63258">
        <ele>465.20001220703</ele>
        <time>2020-10-09T08:25:06.871Z</time>
      </trkpt>
      <trkpt lat="45.80804" lon="4.63236">
        <ele>465.79998779297</ele>
        <time>2020-10-09T08:25:14.366Z</time>
      </trkpt>
      <trkpt lat="45.80803" lon="4.63232">
        <ele>465.79998779297</ele>
        <time>2020-10-09T08:25:21.862Z</time>
      </trkpt>
      <trkpt lat="45.80799" lon="4.63206">
        <ele>467</ele>
        <time>2020-10-09T08:25:29.366Z</time>
      </trkpt>
      <trkpt lat="45.80793" lon="4.63174">
        <ele>468.20001220703</ele>
        <time>2020-10-09T08:25:36.880Z</time>
      </trkpt>
      <trkpt lat="45.80786" lon="4.63149">
        <ele>469.20001220703</ele>
        <time>2020-10-09T08:25:44.402Z</time>
      </trkpt>
      <trkpt lat="45.80785" lon="4.63145">
        <ele>469.39999389648</ele>
        <time>2020-10-09T08:25:51.925Z</time>
      </trkpt>
      <trkpt lat="45.80776" lon="4.63127">
        <ele>470.39999389648</ele>
        <time>2020-10-09T08:25:59.455Z</time>
      </trkpt>
      <trkpt lat="45.80773" lon="4.63124">
        <ele>470.79998779297</ele>
        <time>2020-10-09T08:26:06.986Z</time>
      </trkpt>
      <trkpt lat="45.80762" lon="4.63112">
        <ele>471.79998779297</ele>
        <time>2020-10-09T08:26:14.523Z</time>
      </trkpt>
      <trkpt lat="45.80756" lon="4.63107">
        <ele>472.20001220703</ele>
        <time>2020-10-09T08:26:22.063Z</time>
      </trkpt>
      <trkpt lat="45.80743" lon="4.63095">
        <ele>473.20001220703</ele>
        <time>2020-10-09T08:26:29.610Z</time>
      </trkpt>
      <trkpt lat="45.80732" lon="4.63085">
        <ele>474</ele>
        <time>2020-10-09T08:26:37.162Z</time>
      </trkpt>
      <trkpt lat="45.80722" lon="4.63073">
        <ele>474.20001220703</ele>
        <time>2020-10-09T08:26:44.720Z</time>
      </trkpt>
      <trkpt lat="45.80708" lon="4.63053">
        <ele>474.39999389648</ele>
        <time>2020-10-09T08:26:52.286Z</time>
      </trkpt>
      <trkpt lat="45.80699" lon="4.63032">
        <ele>475</ele>
        <time>2020-10-09T08:26:59.860Z</time>
      </trkpt>
      <trkpt lat="45.80699" lon="4.63029">
        <ele>475.20001220703</ele>
        <time>2020-10-09T08:27:07.435Z</time>
      </trkpt>
      <trkpt lat="45.807" lon="4.63026">
        <ele>475.39999389648</ele>
        <time>2020-10-09T08:27:15.011Z</time>
      </trkpt>
      <trkpt lat="45.80701" lon="4.63024">
        <ele>475.60000610352</ele>
        <time>2020-10-09T08:27:22.587Z</time>
      </trkpt>
      <trkpt lat="45.80707" lon="4.63024">
        <ele>476.20001220703</ele>
        <time>2020-10-09T08:27:30.166Z</time>
      </trkpt>
      <trkpt lat="45.8071" lon="4.63025">
        <ele>476.79998779297</ele>
        <time>2020-10-09T08:27:37.746Z</time>
      </trkpt>
      <trkpt lat="45.80717" lon="4.63028">
        <ele>478</ele>
        <time>2020-10-09T08:27:45.330Z</time>
      </trkpt>
      <trkpt lat="45.80728" lon="4.63032">
        <ele>479</ele>
        <time>2020-10-09T08:27:52.918Z</time>
      </trkpt>
      <trkpt lat="45.80731" lon="4.63033">
        <ele>479.20001220703</ele>
        <time>2020-10-09T08:28:00.508Z</time>
      </trkpt>
      <trkpt lat="45.80746" lon="4.63039">
        <ele>480.39999389648</ele>
        <time>2020-10-09T08:28:08.104Z</time>
      </trkpt>
      <trkpt lat="45.80751" lon="4.63041">
        <ele>480.79998779297</ele>
        <time>2020-10-09T08:28:15.703Z</time>
      </trkpt>
      <trkpt lat="45.8076" lon="4.63045">
        <ele>481.79998779297</ele>
        <time>2020-10-09T08:28:23.305Z</time>
      </trkpt>
      <trkpt lat="45.80776" lon="4.63051">
        <ele>482.79998779297</ele>
        <time>2020-10-09T08:28:30.915Z</time>
      </trkpt>
      <trkpt lat="45.80779" lon="4.63052">
        <ele>483</ele>
        <time>2020-10-09T08:28:38.526Z</time>
      </trkpt>
      <trkpt lat="45.80786" lon="4.63054">
        <ele>484</ele>
        <time>2020-10-09T08:28:46.140Z</time>
      </trkpt>
      <trkpt lat="45.80795" lon="4.63058">
        <ele>485.20001220703</ele>
        <time>2020-10-09T08:28:53.758Z</time>
      </trkpt>
      <trkpt lat="45.808" lon="4.63059">
        <ele>485.79998779297</ele>
        <time>2020-10-09T08:29:01.378Z</time>
      </trkpt>
      <trkpt lat="45.80804" lon="4.63061">
        <ele>486.39999389648</ele>
        <time>2020-10-09T08:29:09.000Z</time>
      </trkpt>
      <trkpt lat="45.80812" lon="4.63065">
        <ele>487.79998779297</ele>
        <time>2020-10-09T08:29:16.625Z</time>
      </trkpt>
      <trkpt lat="45.80813" lon="4.63066">
        <ele>488.20001220703</ele>
        <time>2020-10-09T08:29:24.251Z</time>
      </trkpt>
      <trkpt lat="45.80817" lon="4.63068">
        <ele>489</ele>
        <time>2020-10-09T08:29:31.879Z</time>
      </trkpt>
      <trkpt lat="45.80822" lon="4.63072">
        <ele>490</ele>
        <time>2020-10-09T08:29:39.509Z</time>
      </trkpt>
      <trkpt lat="45.80824" lon="4.63073">
        <ele>490.39999389648</ele>
        <time>2020-10-09T08:29:47.140Z</time>
      </trkpt>
      <trkpt lat="45.8083" lon="4.63077">
        <ele>491.39999389648</ele>
        <time>2020-10-09T08:29:54.774Z</time>
      </trkpt>
      <trkpt lat="45.80836" lon="4.63079">
        <ele>492.39999389648</ele>
        <time>2020-10-09T08:30:02.411Z</time>
      </trkpt>
      <trkpt lat="45.8084" lon="4.63082">
        <ele>493.39999389648</ele>
        <time>2020-10-09T08:30:10.049Z</time>
      </trkpt>
      <trkpt lat="45.80842" lon="4.63083">
        <ele>493.79998779297</ele>
        <time>2020-10-09T08:30:17.688Z</time>
      </trkpt>
      <trkpt lat="45.80846" lon="4.63086">
        <ele>495.20001220703</ele>
        <time>2020-10-09T08:30:25.329Z</time>
      </trkpt>
      <trkpt lat="45.80853" lon="4.63089">
        <ele>496.20001220703</ele>
        <time>2020-10-09T08:30:32.973Z</time>
      </trkpt>
      <trkpt lat="45.80856" lon="4.63092">
        <ele>497</ele>
        <time>2020-10-09T08:30:40.619Z</time>
      </trkpt>
      <trkpt lat="45.80858" lon="4.63093">
        <ele>497.39999389648</ele>
        <time>2020-10-09T08:30:48.266Z</time>
      </trkpt>
      <trkpt lat="45.80864" lon="4.63099">
        <ele>498.39999389648</ele>
        <time>2020-10-09T08:30:55.916Z</time>
      </trkpt>
      <trkpt lat="45.80866" lon="4.631">
        <ele>498.79998779297</ele>
        <time>2020-10-09T08:31:03.567Z</time>
      </trkpt>
      <trkpt lat="45.80875" lon="4.63102">
        <ele>499.79998779297</ele>
        <time>2020-10-09T08:31:11.222Z</time>
      </trkpt>
      <trkpt lat="45.80879" lon="4.631">
        <ele>500.39999389648</ele>
        <time>2020-10-09T08:31:18.878Z</time>
      </trkpt>
      <trkpt lat="45.80884" lon="4.63094">
        <ele>501.20001220703</ele>
        <time>2020-10-09T08:31:26.537Z</time>
      </trkpt>
      <trkpt lat="45.80888" lon="4.63088">
        <ele>502.20001220703</ele>
        <time>2020-10-09T08:31:34.199Z</time>
      </trkpt>
      <trkpt lat="45.80889" lon="4.63085">
        <ele>502.60000610352</ele>
        <time>2020-10-09T08:31:41.862Z</time>
      </trkpt>
      <trkpt lat="45.80891" lon="4.6308">
        <ele>503.39999389648</ele>
        <time>2020-10-09T08:31:49.526Z</time>
      </trkpt>
      <trkpt lat="45.80894" lon="4.63077">
        <ele>504.60000610352</ele>
        <time>2020-10-09T08:31:57.192Z</time>
      </trkpt>
      <trkpt lat="45.80896" lon="4.63076">
        <ele>505</ele>
        <time>2020-10-09T08:32:04.859Z</time>
      </trkpt>
      <trkpt lat="45.80899" lon="4.63074">
        <ele>505.79998779297</ele>
        <time>2020-10-09T08:32:12.527Z</time>
      </trkpt>
      <trkpt lat="45.80903" lon="4.6307">
        <ele>507</ele>
        <time>2020-10-09T08:32:20.197Z</time>
      </trkpt>
      <trkpt lat="45.80904" lon="4.63068">
        <ele>507.39999389648</ele>
        <time>2020-10-09T08:32:27.868Z</time>
      </trkpt>
      <trkpt lat="45.80907" lon="4.63063">
        <ele>508.20001220703</ele>
        <time>2020-10-09T08:32:35.541Z</time>
      </trkpt>
      <trkpt lat="45.80908" lon="4.63062">
        <ele>508.39999389648</ele>
        <time>2020-10-09T08:32:43.215Z</time>
      </trkpt>
      <trkpt lat="45.80908" lon="4.63062">
        <ele>508.60000610352</ele>
        <time>2020-10-09T08:32:50.889Z</time>
      </trkpt>
      <trkpt lat="45.80908" lon="4.63062">
        <ele>509.20001220703</ele>
        <time>2020-10-09T08:32:58.563Z</time>
      </trkpt>
      <trkpt lat="45.80908" lon="4.63062">
        <ele>509.79998779297</ele>
        <time>2020-10-09T08:33:06.237Z</time>
      </trkpt>
      <trkpt lat="45.80908" lon="4.63062">
        <ele>509.79998779297</ele>
        <time>2020-10-09T08:33:13.911Z</time>
      </trkpt>
      <trkpt lat="45.80908" lon="4.63061">
        <ele>509.79998779297</ele>
        <time>2020-10-09T08:33:21.585Z</time>
      </trkpt>
      <trkpt lat="45.80908" lon="4.63061">
        <ele>509.60000610352</ele>
        <time>2020-10-09T08:33:29.259Z</time>
      </trkpt>
      <trkpt lat="45.80908" lon="4.63061">
        <ele>509.39999389648</ele>
        <time>2020-10-09T08:33:36.933Z</time>
      </trkpt>
      <trkpt lat="45.80908" lon="4.63061">
        <ele>509.39999389648</ele>
        <time>2020-10-09T08:33:44.607Z</time>
      </trkpt>
      <trkpt lat="45.80911" lon="4.63057">
        <ele>509.39999389648</ele>
        <time>2020-10-09T08:33:52.283Z</time>
      </trkpt>
      <trkpt lat="45.80917" lon="4.63049">
        <ele>509.39999389648</ele>
        <time>2020-10-09T08:33:59.962Z</time>
      </trkpt>
      <trkpt lat="45.80917" lon="4.63049">
        <ele>509.60000610352</ele>
        <time>2020-10-09T08:34:07.641Z</time>
      </trkpt>
      <trkpt lat="45.80917" lon="4.63049">
        <ele>509.60000610352</ele>
        <time>2020-10-09T08:34:15.320Z</time>
      </trkpt>
      <trkpt lat="45.80916" lon="4.63049">
        <ele>509.60000610352</ele>
        <time>2020-10-09T08:34:22.999Z</time>
      </trkpt>
      <trkpt lat="45.80917" lon="4.63048">
        <ele>509.39999389648</ele>
        <time>2020-10-09T08:34:30.678Z</time>
      </trkpt>
      <trkpt lat="45.80917" lon="4.63047">
        <ele>509.39999389648</ele>
        <time>2020-10-09T08:34:38.358Z</time>
      </trkpt>
      <trkpt lat="45.80918" lon="4.63045">
        <ele>509.39999389648</ele>
        <time>2020-10-09T08:34:46.039Z</time>
      </trkpt>
      <trkpt lat="45.80918" lon="4.63044">
        <ele>509.39999389648</ele>
        <time>2020-10-09T08:34:53.720Z</time>
      </trkpt>
      <trkpt lat="45.80918" lon="4.63039">
        <ele>509.39999389648</ele>
        <time>2020-10-09T08:35:01.402Z</time>
      </trkpt>
      <trkpt lat="45.80915" lon="4.63026">
        <ele>509.39999389648</ele>
        <time>2020-10-09T08:35:09.088Z</time>
      </trkpt>
      <trkpt lat="45.80911" lon="4.63023">
        <ele>509.39999389648</ele>
        <time>2020-10-09T08:35:16.776Z</time>
      </trkpt>
      <trkpt lat="45.80906" lon="4.63023">
        <ele>509.39999389648</ele>
        <time>2020-10-09T08:35:24.466Z</time>
      </trkpt>
      <trkpt lat="45.80903" lon="4.63024">
        <ele>509.39999389648</ele>
        <time>2020-10-09T08:35:32.158Z</time>
      </trkpt>
      <trkpt lat="45.80903" lon="4.63024">
        <ele>509.60000610352</ele>
        <time>2020-10-09T08:35:39.850Z</time>
      </trkpt>
      <trkpt lat="45.80902" lon="4.63024">
        <ele>509.60000610352</ele>
        <time>2020-10-09T08:35:47.542Z</time>
      </trkpt>
      <trkpt lat="45.80902" lon="4.63024">
        <ele>509.39999389648</ele>
        <time>2020-10-09T08:35:55.234Z</time>
      </trkpt>
      <trkpt lat="45.80902" lon="4.63024">
        <ele>509.39999389648</ele>
        <time>2020-10-09T08:36:02.926Z</time>
      </trkpt>
      <trkpt lat="45.80901" lon="4.63025">
        <ele>509.20001220703</ele>
        <time>2020-10-09T08:36:10.619Z</time>
      </trkpt>
      <trkpt lat="45.80901" lon="4.63026">
        <ele>509.20001220703</ele>
        <time>2020-10-09T08:36:18.312Z</time>
      </trkpt>
      <trkpt lat="45.80899" lon="4.63036">
        <ele>509.20001220703</ele>
        <time>2020-10-09T08:36:26.008Z</time>
      </trkpt>
      <trkpt lat="45.80897" lon="4.63059">
        <ele>508.39999389648</ele>
        <time>2020-10-09T08:36:33.711Z</time>
      </trkpt>
      <trkpt lat="45.80896" lon="4.63066">
        <ele>508.20001220703</ele>
        <time>2020-10-09T08:36:41.416Z</time>
      </trkpt>
      <trkpt lat="45.80888" lon="4.63092">
        <ele>507.39999389648</ele>
        <time>2020-10-09T08:36:49.130Z</time>
      </trkpt>
      <trkpt lat="45.80886" lon="4.63095">
        <ele>507.20001220703</ele>
        <time>2020-10-09T08:36:56.845Z</time>
      </trkpt>
      <trkpt lat="45.80878" lon="4.63103">
        <ele>506.79998779297</ele>
        <time>2020-10-09T08:37:04.564Z</time>
      </trkpt>
      <trkpt lat="45.80875" lon="4.63104">
        <ele>506.39999389648</ele>
        <time>2020-10-09T08:37:12.284Z</time>
      </trkpt>
      <trkpt lat="45.80871" lon="4.63102">
        <ele>505</ele>
        <time>2020-10-09T08:37:20.006Z</time>
      </trkpt>
      <trkpt lat="45.80869" lon="4.63101">
        <ele>504.39999389648</ele>
        <time>2020-10-09T08:37:27.729Z</time>
      </trkpt>
      <trkpt lat="45.80867" lon="4.63101">
        <ele>504</ele>
        <time>2020-10-09T08:37:35.453Z</time>
      </trkpt>
      <trkpt lat="45.80865" lon="4.63104">
        <ele>503</ele>
        <time>2020-10-09T08:37:43.178Z</time>
      </trkpt>
      <trkpt lat="45.80869" lon="4.63112">
        <ele>502</ele>
        <time>2020-10-09T08:37:50.906Z</time>
      </trkpt>
      <trkpt lat="45.80871" lon="4.63116">
        <ele>501.60000610352</ele>
        <time>2020-10-09T08:37:58.636Z</time>
      </trkpt>
      <trkpt lat="45.8088" lon="4.63131">
        <ele>500.79998779297</ele>
        <time>2020-10-09T08:38:06.372Z</time>
      </trkpt>
      <trkpt lat="45.80882" lon="4.63133">
        <ele>500.60000610352</ele>
        <time>2020-10-09T08:38:14.108Z</time>
      </trkpt>
      <trkpt lat="45.80893" lon="4.6315">
        <ele>500.39999389648</ele>
        <time>2020-10-09T08:38:21.851Z</time>
      </trkpt>
      <trkpt lat="45.80906" lon="4.6317">
        <ele>501.20001220703</ele>
        <time>2020-10-09T08:38:29.603Z</time>
      </trkpt>
      <trkpt lat="45.80915" lon="4.63187">
        <ele>501.79998779297</ele>
        <time>2020-10-09T08:38:37.361Z</time>
      </trkpt>
      <trkpt lat="45.80916" lon="4.6319">
        <ele>501.79998779297</ele>
        <time>2020-10-09T08:38:45.120Z</time>
      </trkpt>
      <trkpt lat="45.80926" lon="4.63209">
        <ele>502.20001220703</ele>
        <time>2020-10-09T08:38:52.886Z</time>
      </trkpt>
      <trkpt lat="45.80938" lon="4.63226">
        <ele>502.20001220703</ele>
        <time>2020-10-09T08:39:00.659Z</time>
      </trkpt>
      <trkpt lat="45.80949" lon="4.63242">
        <ele>502.60000610352</ele>
        <time>2020-10-09T08:39:08.439Z</time>
      </trkpt>
      <trkpt lat="45.80953" lon="4.63249">
        <ele>503</ele>
        <time>2020-10-09T08:39:16.222Z</time>
      </trkpt>
      <trkpt lat="45.80963" lon="4.63264">
        <ele>503.79998779297</ele>
        <time>2020-10-09T08:39:24.011Z</time>
      </trkpt>
      <trkpt lat="45.80982" lon="4.63291">
        <ele>503.79998779297</ele>
        <time>2020-10-09T08:39:31.811Z</time>
      </trkpt>
      <trkpt lat="45.81001" lon="4.63297">
        <ele>503.79998779297</ele>
        <time>2020-10-09T08:39:39.620Z</time>
      </trkpt>
      <trkpt lat="45.81021" lon="4.63306">
        <ele>504</ele>
        <time>2020-10-09T08:39:47.437Z</time>
      </trkpt>
      <trkpt lat="45.8104" lon="4.63314">
        <ele>503.79998779297</ele>
        <time>2020-10-09T08:39:55.263Z</time>
      </trkpt>
      <trkpt lat="45.81066" lon="4.63324">
        <ele>503.60000610352</ele>
        <time>2020-10-09T08:40:03.100Z</time>
      </trkpt>
      <trkpt lat="45.8108" lon="4.63329">
        <ele>502.79998779297</ele>
        <time>2020-10-09T08:40:10.943Z</time>
      </trkpt>
      <trkpt lat="45.81091" lon="4.63334">
        <ele>502</ele>
        <time>2020-10-09T08:40:18.791Z</time>
      </trkpt>
      <trkpt lat="45.81098" lon="4.63337">
        <ele>500.79998779297</ele>
        <time>2020-10-09T08:40:26.642Z</time>
      </trkpt>
      <trkpt lat="45.81105" lon="4.63339">
        <ele>499.60000610352</ele>
        <time>2020-10-09T08:40:34.496Z</time>
      </trkpt>
      <trkpt lat="45.81111" lon="4.63341">
        <ele>498</ele>
        <time>2020-10-09T08:40:42.353Z</time>
      </trkpt>
      <trkpt lat="45.81115" lon="4.63342">
        <ele>497</ele>
        <time>2020-10-09T08:40:50.212Z</time>
      </trkpt>
      <trkpt lat="45.81118" lon="4.63343">
        <ele>496.20001220703</ele>
        <time>2020-10-09T08:40:58.072Z</time>
      </trkpt>
      <trkpt lat="45.81122" lon="4.63346">
        <ele>495.60000610352</ele>
        <time>2020-10-09T08:41:05.934Z</time>
      </trkpt>
      <trkpt lat="45.81129" lon="4.63351">
        <ele>494.20001220703</ele>
        <time>2020-10-09T08:41:13.800Z</time>
      </trkpt>
      <trkpt lat="45.81137" lon="4.63359">
        <ele>493.20001220703</ele>
        <time>2020-10-09T08:41:21.670Z</time>
      </trkpt>
      <trkpt lat="45.81145" lon="4.63371">
        <ele>492.20001220703</ele>
        <time>2020-10-09T08:41:29.544Z</time>
      </trkpt>
      <trkpt lat="45.81149" lon="4.63376">
        <ele>491.39999389648</ele>
        <time>2020-10-09T08:41:37.421Z</time>
      </trkpt>
      <trkpt lat="45.81153" lon="4.63383">
        <ele>490.79998779297</ele>
        <time>2020-10-09T08:41:45.300Z</time>
      </trkpt>
      <trkpt lat="45.81162" lon="4.63395">
        <ele>489.39999389648</ele>
        <time>2020-10-09T08:41:53.185Z</time>
      </trkpt>
      <trkpt lat="45.81169" lon="4.63405">
        <ele>487.79998779297</ele>
        <time>2020-10-09T08:42:01.074Z</time>
      </trkpt>
      <trkpt lat="45.81176" lon="4.63409">
        <ele>486.39999389648</ele>
        <time>2020-10-09T08:42:08.966Z</time>
      </trkpt>
      <trkpt lat="45.81179" lon="4.63409">
        <ele>485.79998779297</ele>
        <time>2020-10-09T08:42:16.860Z</time>
      </trkpt>
      <trkpt lat="45.81183" lon="4.6341">
        <ele>485.39999389648</ele>
        <time>2020-10-09T08:42:24.755Z</time>
      </trkpt>
      <trkpt lat="45.81197" lon="4.63419">
        <ele>484.79998779297</ele>
        <time>2020-10-09T08:42:32.657Z</time>
      </trkpt>
      <trkpt lat="45.81201" lon="4.63423">
        <ele>484.60000610352</ele>
        <time>2020-10-09T08:42:40.561Z</time>
      </trkpt>
      <trkpt lat="45.81226" lon="4.63448">
        <ele>484.20001220703</ele>
        <time>2020-10-09T08:42:48.478Z</time>
      </trkpt>
      <trkpt lat="45.81242" lon="4.6345">
        <ele>483.20001220703</ele>
        <time>2020-10-09T08:42:56.402Z</time>
      </trkpt>
      <trkpt lat="45.81253" lon="4.63437">
        <ele>482.20001220703</ele>
        <time>2020-10-09T08:43:04.332Z</time>
      </trkpt>
      <trkpt lat="45.81256" lon="4.63431">
        <ele>482</ele>
        <time>2020-10-09T08:43:12.264Z</time>
      </trkpt>
      <trkpt lat="45.81274" lon="4.63399">
        <ele>481.79998779297</ele>
        <time>2020-10-09T08:43:20.208Z</time>
      </trkpt>
      <trkpt lat="45.81291" lon="4.63357">
        <ele>481.39999389648</ele>
        <time>2020-10-09T08:43:28.167Z</time>
      </trkpt>
      <trkpt lat="45.81294" lon="4.63349">
        <ele>481</ele>
        <time>2020-10-09T08:43:36.128Z</time>
      </trkpt>
      <trkpt lat="45.813" lon="4.6333">
        <ele>479.60000610352</ele>
        <time>2020-10-09T08:43:44.096Z</time>
      </trkpt>
      <trkpt lat="45.81302" lon="4.63325">
        <ele>479.20001220703</ele>
        <time>2020-10-09T08:43:52.065Z</time>
      </trkpt>
      <trkpt lat="45.81305" lon="4.63317">
        <ele>478.20001220703</ele>
        <time>2020-10-09T08:44:00.037Z</time>
      </trkpt>
      <trkpt lat="45.81307" lon="4.63311">
        <ele>477</ele>
        <time>2020-10-09T08:44:08.011Z</time>
      </trkpt>
      <trkpt lat="45.81311" lon="4.63303">
        <ele>475.20001220703</ele>
        <time>2020-10-09T08:44:15.988Z</time>
      </trkpt>
      <trkpt lat="45.81313" lon="4.63301">
        <ele>475</ele>
        <time>2020-10-09T08:44:23.966Z</time>
      </trkpt>
      <trkpt lat="45.81314" lon="4.63301">
        <ele>474.39999389648</ele>
        <time>2020-10-09T08:44:31.944Z</time>
      </trkpt>
      <trkpt lat="45.81316" lon="4.63301">
        <ele>474</ele>
        <time>2020-10-09T08:44:39.923Z</time>
      </trkpt>
      <trkpt lat="45.81322" lon="4.63293">
        <ele>473.20001220703</ele>
        <time>2020-10-09T08:44:47.906Z</time>
      </trkpt>
      <trkpt lat="45.81325" lon="4.63289">
        <ele>472.79998779297</ele>
        <time>2020-10-09T08:44:55.890Z</time>
      </trkpt>
      <trkpt lat="45.8133" lon="4.6328">
        <ele>471.60000610352</ele>
        <time>2020-10-09T08:45:03.878Z</time>
      </trkpt>
      <trkpt lat="45.81331" lon="4.63278">
        <ele>471</ele>
        <time>2020-10-09T08:45:11.867Z</time>
      </trkpt>
      <trkpt lat="45.81333" lon="4.63277">
        <ele>470.60000610352</ele>
        <time>2020-10-09T08:45:19.856Z</time>
      </trkpt>
      <trkpt lat="45.81334" lon="4.63279">
        <ele>470</ele>
        <time>2020-10-09T08:45:27.846Z</time>
      </trkpt>
      <trkpt lat="45.81337" lon="4.63284">
        <ele>468.79998779297</ele>
        <time>2020-10-09T08:45:35.838Z</time>
      </trkpt>
      <trkpt lat="45.81339" lon="4.63288">
        <ele>468</ele>
        <time>2020-10-09T08:45:43.831Z</time>
      </trkpt>
      <trkpt lat="45.81341" lon="4.63291">
        <ele>467.39999389648</ele>
        <time>2020-10-09T08:45:51.826Z</time>
      </trkpt>
      <trkpt lat="45.81343" lon="4.63295">
        <ele>467.20001220703</ele>
        <time>2020-10-09T08:45:59.822Z</time>
      </trkpt>
      <trkpt lat="45.81351" lon="4.63309">
        <ele>466.79998779297</ele>
        <time>2020-10-09T08:46:07.824Z</time>
      </trkpt>
      <trkpt lat="45.81359" lon="4.63303">
        <ele>466.39999389648</ele>
        <time>2020-10-09T08:46:15.829Z</time>
      </trkpt>
      <trkpt lat="45.81363" lon="4.63295">
        <ele>466.20001220703</ele>
        <time>2020-10-09T08:46:23.837Z</time>
      </trkpt>
      <trkpt lat="45.81371" lon="4.63282">
        <ele>466</ele>
        <time>2020-10-09T08:46:31.850Z</time>
      </trkpt>
      <trkpt lat="45.81382" lon="4.63264">
        <ele>465</ele>
        <time>2020-10-09T08:46:39.870Z</time>
      </trkpt>
      <trkpt lat="45.81387" lon="4.63257">
        <ele>463.39999389648</ele>
        <time>2020-10-09T08:46:47.894Z</time>
      </trkpt>
      <trkpt lat="45.8139" lon="4.63257">
        <ele>462.39999389648</ele>
        <time>2020-10-09T08:46:55.919Z</time>
      </trkpt>
      <trkpt lat="45.81393" lon="4.63257">
        <ele>461.60000610352</ele>
        <time>2020-10-09T08:47:03.945Z</time>
      </trkpt>
      <trkpt lat="45.814" lon="4.63261">
        <ele>460</ele>
        <time>2020-10-09T08:47:11.974Z</time>
      </trkpt>
      <trkpt lat="45.81408" lon="4.63265">
        <ele>458.39999389648</ele>
        <time>2020-10-09T08:47:20.007Z</time>
      </trkpt>
      <trkpt lat="45.81422" lon="4.63271">
        <ele>457.20001220703</ele>
        <time>2020-10-09T08:47:28.046Z</time>
      </trkpt>
      <trkpt lat="45.81426" lon="4.63274">
        <ele>457</ele>
        <time>2020-10-09T08:47:36.087Z</time>
      </trkpt>
      <trkpt lat="45.8145" lon="4.63286">
        <ele>456</ele>
        <time>2020-10-09T08:47:44.139Z</time>
      </trkpt>
      <trkpt lat="45.81465" lon="4.63282">
        <ele>454.79998779297</ele>
        <time>2020-10-09T08:47:52.197Z</time>
      </trkpt>
      <trkpt lat="45.81468" lon="4.63283">
        <ele>454.39999389648</ele>
        <time>2020-10-09T08:48:00.257Z</time>
      </trkpt>
      <trkpt lat="45.81476" lon="4.63287">
        <ele>454.20001220703</ele>
        <time>2020-10-09T08:48:08.320Z</time>
      </trkpt>
      <trkpt lat="45.81485" lon="4.63297">
        <ele>453.79998779297</ele>
        <time>2020-10-09T08:48:16.388Z</time>
      </trkpt>
      <trkpt lat="45.81488" lon="4.63301">
        <ele>453.60000610352</ele>
        <time>2020-10-09T08:48:24.458Z</time>
      </trkpt>
      <trkpt lat="45.81496" lon="4.63308">
        <ele>452.20001220703</ele>
        <time>2020-10-09T08:48:32.532Z</time>
      </trkpt>
      <trkpt lat="45.81503" lon="4.63308">
        <ele>451.60000610352</ele>
        <time>2020-10-09T08:48:40.609Z</time>
      </trkpt>
      <trkpt lat="45.8151" lon="4.63307">
        <ele>451</ele>
        <time>2020-10-09T08:48:48.689Z</time>
      </trkpt>
      <trkpt lat="45.81521" lon="4.63307">
        <ele>450.39999389648</ele>
        <time>2020-10-09T08:48:56.774Z</time>
      </trkpt>
      <trkpt lat="45.81528" lon="4.63307">
        <ele>449.60000610352</ele>
        <time>2020-10-09T08:49:04.862Z</time>
      </trkpt>
      <trkpt lat="45.81532" lon="4.63305">
        <ele>448.79998779297</ele>
        <time>2020-10-09T08:49:12.951Z</time>
      </trkpt>
      <trkpt lat="45.81534" lon="4.63302">
        <ele>448.20001220703</ele>
        <time>2020-10-09T08:49:21.042Z</time>
      </trkpt>
      <trkpt lat="45.8154" lon="4.63295">
        <ele>446.39999389648</ele>
        <time>2020-10-09T08:49:29.136Z</time>
      </trkpt>
      <trkpt lat="45.81546" lon="4.63286">
        <ele>445.20001220703</ele>
        <time>2020-10-09T08:49:37.233Z</time>
      </trkpt>
      <trkpt lat="45.81548" lon="4.63282">
        <ele>444.60000610352</ele>
        <time>2020-10-09T08:49:45.332Z</time>
      </trkpt>
      <trkpt lat="45.81551" lon="4.63278">
        <ele>444</ele>
        <time>2020-10-09T08:49:53.433Z</time>
      </trkpt>
      <trkpt lat="45.81558" lon="4.63271">
        <ele>442.39999389648</ele>
        <time>2020-10-09T08:50:01.537Z</time>
      </trkpt>
      <trkpt lat="45.81565" lon="4.63264">
        <ele>441.20001220703</ele>
        <time>2020-10-09T08:50:09.645Z</time>
      </trkpt>
      <trkpt lat="45.81573" lon="4.63257">
        <ele>439.79998779297</ele>
        <time>2020-10-09T08:50:17.757Z</time>
      </trkpt>
      <trkpt lat="45.81582" lon="4.63249">
        <ele>438.79998779297</ele>
        <time>2020-10-09T08:50:25.873Z</time>
      </trkpt>
      <trkpt lat="45.81591" lon="4.63241">
        <ele>437.39999389648</ele>
        <time>2020-10-09T08:50:33.994Z</time>
      </trkpt>
      <trkpt lat="45.816" lon="4.63233">
        <ele>436</ele>
        <time>2020-10-09T08:50:42.120Z</time>
      </trkpt>
      <trkpt lat="45.8161" lon="4.63224">
        <ele>434.39999389648</ele>
        <time>2020-10-09T08:50:50.251Z</time>
      </trkpt>
      <trkpt lat="45.81619" lon="4.63215">
        <ele>433.39999389648</ele>
        <time>2020-10-09T08:50:58.386Z</time>
      </trkpt>
      <trkpt lat="45.81624" lon="4.63211">
        <ele>433</ele>
        <time>2020-10-09T08:51:06.524Z</time>
      </trkpt>
      <trkpt lat="45.81634" lon="4.63201">
        <ele>431.79998779297</ele>
        <time>2020-10-09T08:51:14.667Z</time>
      </trkpt>
      <trkpt lat="45.81645" lon="4.6319">
        <ele>430.60000610352</ele>
        <time>2020-10-09T08:51:22.816Z</time>
      </trkpt>
      <trkpt lat="45.81648" lon="4.63187">
        <ele>430.20001220703</ele>
        <time>2020-10-09T08:51:30.966Z</time>
      </trkpt>
      <trkpt lat="45.81652" lon="4.63184">
        <ele>429.39999389648</ele>
        <time>2020-10-09T08:51:39.118Z</time>
      </trkpt>
      <trkpt lat="45.81652" lon="4.63184">
        <ele>429</ele>
        <time>2020-10-09T08:51:47.270Z</time>
      </trkpt>
      <trkpt lat="45.81653" lon="4.63184">
        <ele>428.60000610352</ele>
        <time>2020-10-09T08:51:55.423Z</time>
      </trkpt>
      <trkpt lat="45.81653" lon="4.63184">
        <ele>428.79998779297</ele>
        <time>2020-10-09T08:52:03.576Z</time>
      </trkpt>
      <trkpt lat="45.81654" lon="4.63182">
        <ele>428.79998779297</ele>
        <time>2020-10-09T08:52:11.729Z</time>
      </trkpt>
      <trkpt lat="45.81653" lon="4.63179">
        <ele>428.79998779297</ele>
        <time>2020-10-09T08:52:19.883Z</time>
      </trkpt>
      <trkpt lat="45.81649" lon="4.63157">
        <ele>428.79998779297</ele>
        <time>2020-10-09T08:52:28.044Z</time>
      </trkpt>
      <trkpt lat="45.81643" lon="4.63133">
        <ele>428.39999389648</ele>
        <time>2020-10-09T08:52:36.213Z</time>
      </trkpt>
      <trkpt lat="45.81642" lon="4.63127">
        <ele>428.39999389648</ele>
        <time>2020-10-09T08:52:44.383Z</time>
      </trkpt>
      <trkpt lat="45.81631" lon="4.63081">
        <ele>427.39999389648</ele>
        <time>2020-10-09T08:52:52.568Z</time>
      </trkpt>
      <trkpt lat="45.8163" lon="4.63074">
        <ele>427.20001220703</ele>
        <time>2020-10-09T08:53:00.755Z</time>
      </trkpt>
      <trkpt lat="45.81626" lon="4.63048">
        <ele>426.79998779297</ele>
        <time>2020-10-09T08:53:08.950Z</time>
      </trkpt>
      <trkpt lat="45.81626" lon="4.63036">
        <ele>426.20001220703</ele>
        <time>2020-10-09T08:53:17.148Z</time>
      </trkpt>
      <trkpt lat="45.81625" lon="4.63031">
        <ele>426</ele>
        <time>2020-10-09T08:53:25.348Z</time>
      </trkpt>
      <trkpt lat="45.81622" lon="4.63002">
        <ele>424.79998779297</ele>
        <time>2020-10-09T08:53:33.557Z</time>
      </trkpt>
      <trkpt lat="45.81619" lon="4.62952">
        <ele>423.79998779297</ele>
        <time>2020-10-09T08:53:41.781Z</time>
      </trkpt>
      <trkpt lat="45.81619" lon="4.62922">
        <ele>422.39999389648</ele>
        <time>2020-10-09T08:53:50.014Z</time>
      </trkpt>
      <trkpt lat="45.81618" lon="4.62902">
        <ele>421.20001220703</ele>
        <time>2020-10-09T08:53:58.253Z</time>
      </trkpt>
      <trkpt lat="45.81618" lon="4.62892">
        <ele>420.79998779297</ele>
        <time>2020-10-09T08:54:06.494Z</time>
      </trkpt>
      <trkpt lat="45.81619" lon="4.62874">
        <ele>420</ele>
        <time>2020-10-09T08:54:14.741Z</time>
      </trkpt>
      <trkpt lat="45.8162" lon="4.62854">
        <ele>418.60000610352</ele>
        <time>2020-10-09T08:54:22.994Z</time>
      </trkpt>
      <trkpt lat="45.81619" lon="4.62832">
        <ele>418</ele>
        <time>2020-10-09T08:54:31.253Z</time>
      </trkpt>
      <trkpt lat="45.81618" lon="4.62821">
        <ele>417.39999389648</ele>
        <time>2020-10-09T08:54:39.516Z</time>
      </trkpt>
      <trkpt lat="45.81614" lon="4.62789">
        <ele>416.39999389648</ele>
        <time>2020-10-09T08:54:47.788Z</time>
      </trkpt>
      <trkpt lat="45.81613" lon="4.62778">
        <ele>415.79998779297</ele>
        <time>2020-10-09T08:54:56.064Z</time>
      </trkpt>
      <trkpt lat="45.81613" lon="4.62766">
        <ele>415.39999389648</ele>
        <time>2020-10-09T08:55:04.343Z</time>
      </trkpt>
      <trkpt lat="45.81615" lon="4.62742">
        <ele>413.79998779297</ele>
        <time>2020-10-09T08:55:12.630Z</time>
      </trkpt>
      <trkpt lat="45.81617" lon="4.6273">
        <ele>413</ele>
        <time>2020-10-09T08:55:20.920Z</time>
      </trkpt>
      <trkpt lat="45.81618" lon="4.62718">
        <ele>412.39999389648</ele>
        <time>2020-10-09T08:55:29.214Z</time>
      </trkpt>
      <trkpt lat="45.81619" lon="4.62695">
        <ele>410.79998779297</ele>
        <time>2020-10-09T08:55:37.515Z</time>
      </trkpt>
      <trkpt lat="45.81617" lon="4.62683">
        <ele>410</ele>
        <time>2020-10-09T08:55:45.819Z</time>
      </trkpt>
      <trkpt lat="45.81615" lon="4.62673">
        <ele>409.20001220703</ele>
        <time>2020-10-09T08:55:54.127Z</time>
      </trkpt>
      <trkpt lat="45.81609" lon="4.62652">
        <ele>408.20001220703</ele>
        <time>2020-10-09T08:56:02.441Z</time>
      </trkpt>
      <trkpt lat="45.81606" lon="4.62643">
        <ele>408</ele>
        <time>2020-10-09T08:56:10.758Z</time>
      </trkpt>
      <trkpt lat="45.81596" lon="4.62602">
        <ele>407.60000610352</ele>
        <time>2020-10-09T08:56:19.088Z</time>
      </trkpt>
      <trkpt lat="45.81592" lon="4.62576">
        <ele>407.60000610352</ele>
        <time>2020-10-09T08:56:27.426Z</time>
      </trkpt>
      <trkpt lat="45.8159" lon="4.62562">
        <ele>408</ele>
        <time>2020-10-09T08:56:35.768Z</time>
      </trkpt>
      <trkpt lat="45.81588" lon="4.62536">
        <ele>409.39999389648</ele>
        <time>2020-10-09T08:56:44.118Z</time>
      </trkpt>
      <trkpt lat="45.81586" lon="4.62523">
        <ele>410.39999389648</ele>
        <time>2020-10-09T08:56:52.472Z</time>
      </trkpt>
      <trkpt lat="45.81577" lon="4.62478">
        <ele>410.79998779297</ele>
        <time>2020-10-09T08:57:00.840Z</time>
      </trkpt>
      <trkpt lat="45.81572" lon="4.62429">
        <ele>410.79998779297</ele>
        <time>2020-10-09T08:57:09.223Z</time>
      </trkpt>
      <trkpt lat="45.81572" lon="4.6239">
        <ele>410.79998779297</ele>
        <time>2020-10-09T08:57:17.617Z</time>
      </trkpt>
      <trkpt lat="45.81571" lon="4.62384">
        <ele>410.79998779297</ele>
        <time>2020-10-09T08:57:26.013Z</time>
      </trkpt>
      <trkpt lat="45.81567" lon="4.62371">
        <ele>410.60000610352</ele>
        <time>2020-10-09T08:57:34.414Z</time>
      </trkpt>
      <trkpt lat="45.81562" lon="4.62348">
        <ele>410.39999389648</ele>
        <time>2020-10-09T08:57:42.822Z</time>
      </trkpt>
      <trkpt lat="45.81558" lon="4.62334">
        <ele>410.39999389648</ele>
        <time>2020-10-09T08:57:51.234Z</time>
      </trkpt>
      <trkpt lat="45.81551" lon="4.62305">
        <ele>410</ele>
        <time>2020-10-09T08:57:59.655Z</time>
      </trkpt>
      <trkpt lat="45.8154" lon="4.62264">
        <ele>409.60000610352</ele>
        <time>2020-10-09T08:58:08.089Z</time>
      </trkpt>
      <trkpt lat="45.81537" lon="4.62255">
        <ele>409.39999389648</ele>
        <time>2020-10-09T08:58:16.526Z</time>
      </trkpt>
      <trkpt lat="45.81534" lon="4.62246">
        <ele>409.39999389648</ele>
        <time>2020-10-09T08:58:24.966Z</time>
      </trkpt>
      <trkpt lat="45.81519" lon="4.62206">
        <ele>408.39999389648</ele>
        <time>2020-10-09T08:58:33.420Z</time>
      </trkpt>
      <trkpt lat="45.81517" lon="4.62199">
        <ele>408.20001220703</ele>
        <time>2020-10-09T08:58:41.876Z</time>
      </trkpt>
      <trkpt lat="45.81511" lon="4.62184">
        <ele>407.20001220703</ele>
        <time>2020-10-09T08:58:50.337Z</time>
      </trkpt>
      <trkpt lat="45.8151" lon="4.62182">
        <ele>407</ele>
        <time>2020-10-09T08:58:58.799Z</time>
      </trkpt>
      <trkpt lat="45.81509" lon="4.62177">
        <ele>406.60000610352</ele>
        <time>2020-10-09T08:59:07.263Z</time>
      </trkpt>
      <trkpt lat="45.81509" lon="4.62176">
        <ele>406.39999389648</ele>
        <time>2020-10-09T08:59:15.727Z</time>
      </trkpt>
      <trkpt lat="45.81509" lon="4.62176">
        <ele>406</ele>
        <time>2020-10-09T08:59:24.191Z</time>
      </trkpt>
      <trkpt lat="45.81509" lon="4.62174">
        <ele>405.60000610352</ele>
        <time>2020-10-09T08:59:32.655Z</time>
      </trkpt>
      <trkpt lat="45.81509" lon="4.62173">
        <ele>405.60000610352</ele>
        <time>2020-10-09T08:59:41.120Z</time>
      </trkpt>
      <trkpt lat="45.81509" lon="4.62173">
        <ele>405.39999389648</ele>
        <time>2020-10-09T08:59:49.585Z</time>
      </trkpt>
      <trkpt lat="45.81509" lon="4.62171">
        <ele>405.20001220703</ele>
        <time>2020-10-09T08:59:58.050Z</time>
      </trkpt>
      <trkpt lat="45.81508" lon="4.62167">
        <ele>405.20001220703</ele>
        <time>2020-10-09T09:00:06.517Z</time>
      </trkpt>
      <trkpt lat="45.81504" lon="4.62149">
        <ele>405.20001220703</ele>
        <time>2020-10-09T09:00:14.989Z</time>
      </trkpt>
      <trkpt lat="45.81499" lon="4.62125">
        <ele>405</ele>
        <time>2020-10-09T09:00:23.469Z</time>
      </trkpt>
      <trkpt lat="45.81495" lon="4.62111">
        <ele>404.60000610352</ele>
        <time>2020-10-09T09:00:31.953Z</time>
      </trkpt>
      <trkpt lat="45.81485" lon="4.62074">
        <ele>403.79998779297</ele>
        <time>2020-10-09T09:00:40.449Z</time>
      </trkpt>
      <trkpt lat="45.81483" lon="4.62067">
        <ele>403.60000610352</ele>
        <time>2020-10-09T09:00:48.947Z</time>
      </trkpt>
      <trkpt lat="45.81481" lon="4.6205">
        <ele>402.79998779297</ele>
        <time>2020-10-09T09:00:57.451Z</time>
      </trkpt>
      <trkpt lat="45.81477" lon="4.62027">
        <ele>401.60000610352</ele>
        <time>2020-10-09T09:01:05.962Z</time>
      </trkpt>
      <trkpt lat="45.81475" lon="4.6202">
        <ele>401.20001220703</ele>
        <time>2020-10-09T09:01:14.475Z</time>
      </trkpt>
      <trkpt lat="45.81469" lon="4.61996">
        <ele>399.79998779297</ele>
        <time>2020-10-09T09:01:22.995Z</time>
      </trkpt>
      <trkpt lat="45.81468" lon="4.61982">
        <ele>398.79998779297</ele>
        <time>2020-10-09T09:01:31.520Z</time>
      </trkpt>
      <trkpt lat="45.81467" lon="4.61957">
        <ele>397.20001220703</ele>
        <time>2020-10-09T09:01:40.052Z</time>
      </trkpt>
      <trkpt lat="45.81466" lon="4.61942">
        <ele>396</ele>
        <time>2020-10-09T09:01:48.588Z</time>
      </trkpt>
      <trkpt lat="45.81465" lon="4.61928">
        <ele>395</ele>
        <time>2020-10-09T09:01:57.129Z</time>
      </trkpt>
      <trkpt lat="45.81464" lon="4.61915">
        <ele>392.60000610352</ele>
        <time>2020-10-09T09:02:05.674Z</time>
      </trkpt>
      <trkpt lat="45.81464" lon="4.6191">
        <ele>391.79998779297</ele>
        <time>2020-10-09T09:02:14.220Z</time>
      </trkpt>
      <trkpt lat="45.81463" lon="4.61905">
        <ele>391</ele>
        <time>2020-10-09T09:02:22.768Z</time>
      </trkpt>
      <trkpt lat="45.81462" lon="4.61894">
        <ele>389.60000610352</ele>
        <time>2020-10-09T09:02:31.319Z</time>
      </trkpt>
      <trkpt lat="45.81462" lon="4.61886">
        <ele>387.60000610352</ele>
        <time>2020-10-09T09:02:39.872Z</time>
      </trkpt>
      <trkpt lat="45.81462" lon="4.61882">
        <ele>386.39999389648</ele>
        <time>2020-10-09T09:02:48.427Z</time>
      </trkpt>
      <trkpt lat="45.81461" lon="4.61874">
        <ele>385.20001220703</ele>
        <time>2020-10-09T09:02:56.984Z</time>
      </trkpt>
      <trkpt lat="45.81461" lon="4.61862">
        <ele>383.79998779297</ele>
        <time>2020-10-09T09:03:05.545Z</time>
      </trkpt>
      <trkpt lat="45.81461" lon="4.61852">
        <ele>383</ele>
        <time>2020-10-09T09:03:14.108Z</time>
      </trkpt>
      <trkpt lat="45.81461" lon="4.61847">
        <ele>382.39999389648</ele>
        <time>2020-10-09T09:03:22.673Z</time>
      </trkpt>
      <trkpt lat="45.8146" lon="4.61832">
        <ele>381.20001220703</ele>
        <time>2020-10-09T09:03:31.242Z</time>
      </trkpt>
      <trkpt lat="45.8146" lon="4.61827">
        <ele>380.60000610352</ele>
        <time>2020-10-09T09:03:39.813Z</time>
      </trkpt>
      <trkpt lat="45.81459" lon="4.61818">
        <ele>379.60000610352</ele>
        <time>2020-10-09T09:03:48.387Z</time>
      </trkpt>
      <trkpt lat="45.81458" lon="4.61808">
        <ele>378.39999389648</ele>
        <time>2020-10-09T09:03:56.964Z</time>
      </trkpt>
      <trkpt lat="45.81456" lon="4.61798">
        <ele>377.20001220703</ele>
        <time>2020-10-09T09:04:05.544Z</time>
      </trkpt>
      <trkpt lat="45.81456" lon="4.61793">
        <ele>376.60000610352</ele>
        <time>2020-10-09T09:04:14.125Z</time>
      </trkpt>
      <trkpt lat="45.81455" lon="4.61789">
        <ele>376</ele>
        <time>2020-10-09T09:04:22.707Z</time>
      </trkpt>
      <trkpt lat="45.81453" lon="4.6178">
        <ele>374.79998779297</ele>
        <time>2020-10-09T09:04:31.292Z</time>
      </trkpt>
      <trkpt lat="45.8145" lon="4.61759">
        <ele>373.79998779297</ele>
        <time>2020-10-09T09:04:39.884Z</time>
      </trkpt>
      <trkpt lat="45.81447" lon="4.61742">
        <ele>372.20001220703</ele>
        <time>2020-10-09T09:04:48.481Z</time>
      </trkpt>
      <trkpt lat="45.81444" lon="4.61725">
        <ele>371.20001220703</ele>
        <time>2020-10-09T09:04:57.083Z</time>
      </trkpt>
      <trkpt lat="45.81443" lon="4.61715">
        <ele>370.20001220703</ele>
        <time>2020-10-09T09:05:05.688Z</time>
      </trkpt>
      <trkpt lat="45.81442" lon="4.6171">
        <ele>369.60000610352</ele>
        <time>2020-10-09T09:05:14.295Z</time>
      </trkpt>
      <trkpt lat="45.81441" lon="4.617">
        <ele>368.79998779297</ele>
        <time>2020-10-09T09:05:22.905Z</time>
      </trkpt>
      <trkpt lat="45.8144" lon="4.61684">
        <ele>367.60000610352</ele>
        <time>2020-10-09T09:05:31.519Z</time>
      </trkpt>
      <trkpt lat="45.81439" lon="4.61679">
        <ele>367</ele>
        <time>2020-10-09T09:05:40.135Z</time>
      </trkpt>
      <trkpt lat="45.8144" lon="4.61666">
        <ele>366.39999389648</ele>
        <time>2020-10-09T09:05:48.755Z</time>
      </trkpt>
      <trkpt lat="45.81442" lon="4.6166">
        <ele>366</ele>
        <time>2020-10-09T09:05:57.377Z</time>
      </trkpt>
      <trkpt lat="45.81445" lon="4.61656">
        <ele>365.39999389648</ele>
        <time>2020-10-09T09:06:06.001Z</time>
      </trkpt>
      <trkpt lat="45.81448" lon="4.6165">
        <ele>364.20001220703</ele>
        <time>2020-10-09T09:06:14.627Z</time>
      </trkpt>
      <trkpt lat="45.81454" lon="4.61641">
        <ele>363.79998779297</ele>
        <time>2020-10-09T09:06:23.256Z</time>
      </trkpt>
      <trkpt lat="45.81461" lon="4.6163">
        <ele>363</ele>
        <time>2020-10-09T09:06:31.890Z</time>
      </trkpt>
      <trkpt lat="45.81468" lon="4.61619">
        <ele>362.20001220703</ele>
        <time>2020-10-09T09:06:40.528Z</time>
      </trkpt>
      <trkpt lat="45.81476" lon="4.61606">
        <ele>360.60000610352</ele>
        <time>2020-10-09T09:06:49.171Z</time>
      </trkpt>
      <trkpt lat="45.81484" lon="4.61594">
        <ele>359.60000610352</ele>
        <time>2020-10-09T09:06:57.819Z</time>
      </trkpt>
      <trkpt lat="45.81486" lon="4.6159">
        <ele>359.20001220703</ele>
        <time>2020-10-09T09:07:06.469Z</time>
      </trkpt>
      <trkpt lat="45.81491" lon="4.61579">
        <ele>358</ele>
        <time>2020-10-09T09:07:15.123Z</time>
      </trkpt>
      <trkpt lat="45.81494" lon="4.61574">
        <ele>357.39999389648</ele>
        <time>2020-10-09T09:07:23.779Z</time>
      </trkpt>
      <trkpt lat="45.81495" lon="4.61571">
        <ele>357</ele>
        <time>2020-10-09T09:07:32.436Z</time>
      </trkpt>
      <trkpt lat="45.81498" lon="4.61567">
        <ele>355.79998779297</ele>
        <time>2020-10-09T09:07:41.094Z</time>
      </trkpt>
      <trkpt lat="45.81502" lon="4.61559">
        <ele>354.20001220703</ele>
        <time>2020-10-09T09:07:49.755Z</time>
      </trkpt>
      <trkpt lat="45.81503" lon="4.61556">
        <ele>354</ele>
        <time>2020-10-09T09:07:58.417Z</time>
      </trkpt>
      <trkpt lat="45.81508" lon="4.61546">
        <ele>353</ele>
        <time>2020-10-09T09:08:07.083Z</time>
      </trkpt>
      <trkpt lat="45.81513" lon="4.61536">
        <ele>351.79998779297</ele>
        <time>2020-10-09T09:08:15.753Z</time>
      </trkpt>
      <trkpt lat="45.81515" lon="4.61533">
        <ele>351.20001220703</ele>
        <time>2020-10-09T09:08:24.424Z</time>
      </trkpt>
      <trkpt lat="45.81518" lon="4.61528">
        <ele>350.60000610352</ele>
        <time>2020-10-09T09:08:33.097Z</time>
      </trkpt>
      <trkpt lat="45.81523" lon="4.61521">
        <ele>349.39999389648</ele>
        <time>2020-10-09T09:08:41.773Z</time>
      </trkpt>
      <trkpt lat="45.81526" lon="4.61517">
        <ele>349</ele>
        <time>2020-10-09T09:08:50.451Z</time>
      </trkpt>
      <trkpt lat="45.81534" lon="4.61509">
        <ele>348.20001220703</ele>
        <time>2020-10-09T09:08:59.133Z</time>
      </trkpt>
      <trkpt lat="45.81539" lon="4.61506">
        <ele>347.60000610352</ele>
        <time>2020-10-09T09:09:07.817Z</time>
      </trkpt>
      <trkpt lat="45.81542" lon="4.61504">
        <ele>347.20001220703</ele>
        <time>2020-10-09T09:09:16.503Z</time>
      </trkpt>
      <trkpt lat="45.81551" lon="4.61502">
        <ele>345.79998779297</ele>
        <time>2020-10-09T09:09:25.192Z</time>
      </trkpt>
      <trkpt lat="45.81557" lon="4.61506">
        <ele>344.39999389648</ele>
        <time>2020-10-09T09:09:33.884Z</time>
      </trkpt>
      <trkpt lat="45.81565" lon="4.61513">
        <ele>343.39999389648</ele>
        <time>2020-10-09T09:09:42.580Z</time>
      </trkpt>
      <trkpt lat="45.81568" lon="4.61517">
        <ele>343</ele>
        <time>2020-10-09T09:09:51.278Z</time>
      </trkpt>
      <trkpt lat="45.81582" lon="4.61531">
        <ele>342.20001220703</ele>
        <time>2020-10-09T09:09:59.983Z</time>
      </trkpt>
      <trkpt lat="45.81585" lon="4.61534">
        <ele>342</ele>
        <time>2020-10-09T09:10:08.690Z</time>
      </trkpt>
      <trkpt lat="45.81594" lon="4.61539">
        <ele>341.60000610352</ele>
        <time>2020-10-09T09:10:17.401Z</time>
      </trkpt>
      <trkpt lat="45.81598" lon="4.61538">
        <ele>341.39999389648</ele>
        <time>2020-10-09T09:10:26.114Z</time>
      </trkpt>
      <trkpt lat="45.81606" lon="4.61534">
        <ele>341.20001220703</ele>
        <time>2020-10-09T09:10:34.831Z</time>
      </trkpt>
      <trkpt lat="45.81623" lon="4.61525">
        <ele>340.79998779297</ele>
        <time>2020-10-09T09:10:43.555Z</time>
      </trkpt>
      <trkpt lat="45.81625" lon="4.61523">
        <ele>340.79998779297</ele>
        <time>2020-10-09T09:10:52.280Z</time>
      </trkpt>
      <trkpt lat="45.81627" lon="4.61523">
        <ele>341.39999389648</ele>
        <time>2020-10-09T09:11:01.006Z</time>
      </trkpt>
      <trkpt lat="45.81627" lon="4.61523">
        <ele>341.60000610352</ele>
        <time>2020-10-09T09:11:09.732Z</time>
      </trkpt>
      <trkpt lat="45.81628" lon="4.61521">
        <ele>341.60000610352</ele>
        <time>2020-10-09T09:11:18.459Z</time>
      </trkpt>
      <trkpt lat="45.81638" lon="4.6151">
        <ele>341.60000610352</ele>
        <time>2020-10-09T09:11:27.191Z</time>
      </trkpt>
      <trkpt lat="45.81656" lon="4.61486">
        <ele>341.39999389648</ele>
        <time>2020-10-09T09:11:35.933Z</time>
      </trkpt>
      <trkpt lat="45.8168" lon="4.61455">
        <ele>340</ele>
        <time>2020-10-09T09:11:44.689Z</time>
      </trkpt>
      <trkpt lat="45.81683" lon="4.61451">
        <ele>340</ele>
        <time>2020-10-09T09:11:53.447Z</time>
      </trkpt>
      <trkpt lat="45.81696" lon="4.61434">
        <ele>339.79998779297</ele>
        <time>2020-10-09T09:12:02.212Z</time>
      </trkpt>
      <trkpt lat="45.81707" lon="4.61421">
        <ele>341</ele>
        <time>2020-10-09T09:12:10.984Z</time>
      </trkpt>
      <trkpt lat="45.81708" lon="4.61418">
        <ele>341.20001220703</ele>
        <time>2020-10-09T09:12:19.757Z</time>
      </trkpt>
      <trkpt lat="45.81709" lon="4.61417">
        <ele>342.20001220703</ele>
        <time>2020-10-09T09:12:28.530Z</time>
      </trkpt>
      <trkpt lat="45.81709" lon="4.61417">
        <ele>342.39999389648</ele>
        <time>2020-10-09T09:12:37.303Z</time>
      </trkpt>
      <trkpt lat="45.8171" lon="4.61415">
        <ele>342.60000610352</ele>
        <time>2020-10-09T09:12:46.077Z</time>
      </trkpt>
      <trkpt lat="45.81712" lon="4.61413">
        <ele>342.60000610352</ele>
        <time>2020-10-09T09:12:54.852Z</time>
      </trkpt>
      <trkpt lat="45.81724" lon="4.61396">
        <ele>342.60000610352</ele>
        <time>2020-10-09T09:13:03.634Z</time>
      </trkpt>
      <trkpt lat="45.81749" lon="4.61363">
        <ele>341.79998779297</ele>
        <time>2020-10-09T09:13:12.430Z</time>
      </trkpt>
      <trkpt lat="45.81752" lon="4.61358">
        <ele>341.20001220703</ele>
        <time>2020-10-09T09:13:21.229Z</time>
      </trkpt>
      <trkpt lat="45.81764" lon="4.61343">
        <ele>340</ele>
        <time>2020-10-09T09:13:30.034Z</time>
      </trkpt>
      <trkpt lat="45.81777" lon="4.61332">
        <ele>338.79998779297</ele>
        <time>2020-10-09T09:13:38.846Z</time>
      </trkpt>
      <trkpt lat="45.81793" lon="4.61321">
        <ele>337.39999389648</ele>
        <time>2020-10-09T09:13:47.665Z</time>
      </trkpt>
      <trkpt lat="45.81809" lon="4.61314">
        <ele>336.20001220703</ele>
        <time>2020-10-09T09:13:56.491Z</time>
      </trkpt>
      <trkpt lat="45.81826" lon="4.61307">
        <ele>334.79998779297</ele>
        <time>2020-10-09T09:14:05.325Z</time>
      </trkpt>
      <trkpt lat="45.81837" lon="4.61303">
        <ele>333.39999389648</ele>
        <time>2020-10-09T09:14:14.164Z</time>
      </trkpt>
      <trkpt lat="45.81851" lon="4.613">
        <ele>332.20001220703</ele>
        <time>2020-10-09T09:14:23.009Z</time>
      </trkpt>
      <trkpt lat="45.81874" lon="4.61296">
        <ele>331</ele>
        <time>2020-10-09T09:14:31.864Z</time>
      </trkpt>
      <trkpt lat="45.81898" lon="4.61294">
        <ele>330.20001220703</ele>
        <time>2020-10-09T09:14:40.729Z</time>
      </trkpt>
      <trkpt lat="45.81907" lon="4.61293">
        <ele>329.79998779297</ele>
        <time>2020-10-09T09:14:49.597Z</time>
      </trkpt>
      <trkpt lat="45.81924" lon="4.61291">
        <ele>328.60000610352</ele>
        <time>2020-10-09T09:14:58.473Z</time>
      </trkpt>
      <trkpt lat="45.81932" lon="4.6129">
        <ele>327.39999389648</ele>
        <time>2020-10-09T09:15:07.352Z</time>
      </trkpt>
      <trkpt lat="45.81948" lon="4.61289">
        <ele>326.20001220703</ele>
        <time>2020-10-09T09:15:16.238Z</time>
      </trkpt>
      <trkpt lat="45.81956" lon="4.61288">
        <ele>325.39999389648</ele>
        <time>2020-10-09T09:15:25.127Z</time>
      </trkpt>
      <trkpt lat="45.81963" lon="4.61287">
        <ele>324.79998779297</ele>
        <time>2020-10-09T09:15:34.020Z</time>
      </trkpt>
      <trkpt lat="45.81978" lon="4.61285">
        <ele>323.20001220703</ele>
        <time>2020-10-09T09:15:42.919Z</time>
      </trkpt>
      <trkpt lat="45.81986" lon="4.61285">
        <ele>322.39999389648</ele>
        <time>2020-10-09T09:15:51.821Z</time>
      </trkpt>
      <trkpt lat="45.81994" lon="4.61286">
        <ele>321.79998779297</ele>
        <time>2020-10-09T09:16:00.727Z</time>
      </trkpt>
      <trkpt lat="45.8201" lon="4.61288">
        <ele>320</ele>
        <time>2020-10-09T09:16:09.640Z</time>
      </trkpt>
      <trkpt lat="45.82024" lon="4.61291">
        <ele>318.39999389648</ele>
        <time>2020-10-09T09:16:18.559Z</time>
      </trkpt>
      <trkpt lat="45.82037" lon="4.61293">
        <ele>316.60000610352</ele>
        <time>2020-10-09T09:16:27.483Z</time>
      </trkpt>
      <trkpt lat="45.82049" lon="4.61296">
        <ele>315.20001220703</ele>
        <time>2020-10-09T09:16:36.413Z</time>
      </trkpt>
      <trkpt lat="45.82069" lon="4.61299">
        <ele>313.60000610352</ele>
        <time>2020-10-09T09:16:45.351Z</time>
      </trkpt>
      <trkpt lat="45.82075" lon="4.613">
        <ele>313.39999389648</ele>
        <time>2020-10-09T09:16:54.292Z</time>
      </trkpt>
      <trkpt lat="45.82088" lon="4.61303">
        <ele>312.39999389648</ele>
        <time>2020-10-09T09:17:03.238Z</time>
      </trkpt>
      <trkpt lat="45.82107" lon="4.61306">
        <ele>311.20001220703</ele>
        <time>2020-10-09T09:17:12.192Z</time>
      </trkpt>
      <trkpt lat="45.82119" lon="4.61309">
        <ele>310</ele>
        <time>2020-10-09T09:17:21.152Z</time>
      </trkpt>
      <trkpt lat="45.82126" lon="4.61309">
        <ele>308.60000610352</ele>
        <time>2020-10-09T09:17:30.114Z</time>
      </trkpt>
      <trkpt lat="45.82145" lon="4.61312">
        <ele>307.20001220703</ele>
        <time>2020-10-09T09:17:39.085Z</time>
      </trkpt>
      <trkpt lat="45.82157" lon="4.61314">
        <ele>306.20001220703</ele>
        <time>2020-10-09T09:17:48.061Z</time>
      </trkpt>
      <trkpt lat="45.8217" lon="4.61316">
        <ele>305</ele>
        <time>2020-10-09T09:17:57.043Z</time>
      </trkpt>
      <trkpt lat="45.82184" lon="4.61317">
        <ele>303.79998779297</ele>
        <time>2020-10-09T09:18:06.030Z</time>
      </trkpt>
      <trkpt lat="45.82197" lon="4.61318">
        <ele>302.39999389648</ele>
        <time>2020-10-09T09:18:15.023Z</time>
      </trkpt>
      <trkpt lat="45.8221" lon="4.61318">
        <ele>301</ele>
        <time>2020-10-09T09:18:24.021Z</time>
      </trkpt>
      <trkpt lat="45.82229" lon="4.61321">
        <ele>299.20001220703</ele>
        <time>2020-10-09T09:18:33.028Z</time>
      </trkpt>
      <trkpt lat="45.82235" lon="4.61322">
        <ele>298.39999389648</ele>
        <time>2020-10-09T09:18:42.037Z</time>
      </trkpt>
      <trkpt lat="45.82241" lon="4.61324">
        <ele>298</ele>
        <time>2020-10-09T09:18:51.049Z</time>
      </trkpt>
      <trkpt lat="45.82253" lon="4.61329">
        <ele>296.79998779297</ele>
        <time>2020-10-09T09:19:00.066Z</time>
      </trkpt>
      <trkpt lat="45.82259" lon="4.61333">
        <ele>296.20001220703</ele>
        <time>2020-10-09T09:19:09.086Z</time>
      </trkpt>
      <trkpt lat="45.82264" lon="4.61338">
        <ele>295.39999389648</ele>
        <time>2020-10-09T09:19:18.109Z</time>
      </trkpt>
      <trkpt lat="45.82276" lon="4.61346">
        <ele>294.20001220703</ele>
        <time>2020-10-09T09:19:27.137Z</time>
      </trkpt>
      <trkpt lat="45.82301" lon="4.61365">
        <ele>293</ele>
        <time>2020-10-09T09:19:36.177Z</time>
      </trkpt>
      <trkpt lat="45.82322" lon="4.61391">
        <ele>291.79998779297</ele>
        <time>2020-10-09T09:19:45.229Z</time>
      </trkpt>
      <trkpt lat="45.82326" lon="4.61399">
        <ele>291.39999389648</ele>
        <time>2020-10-09T09:19:54.284Z</time>
      </trkpt>
      <trkpt lat="45.82338" lon="4.61423">
        <ele>290.79998779297</ele>
        <time>2020-10-09T09:20:03.348Z</time>
      </trkpt>
      <trkpt lat="45.82344" lon="4.6144">
        <ele>289.79998779297</ele>
        <time>2020-10-09T09:20:12.417Z</time>
      </trkpt>
      <trkpt lat="45.82346" lon="4.61447">
        <ele>289.60000610352</ele>
        <time>2020-10-09T09:20:21.489Z</time>
      </trkpt>
      <trkpt lat="45.82349" lon="4.61467">
        <ele>289.20001220703</ele>
        <time>2020-10-09T09:20:30.567Z</time>
      </trkpt>
      <trkpt lat="45.82344" lon="4.61487">
        <ele>289</ele>
        <time>2020-10-09T09:20:39.651Z</time>
      </trkpt>
      <trkpt lat="45.82343" lon="4.6149">
        <ele>289</ele>
        <time>2020-10-09T09:20:48.736Z</time>
      </trkpt>
      <trkpt lat="45.82342" lon="4.61492">
        <ele>289</ele>
        <time>2020-10-09T09:20:57.822Z</time>
      </trkpt>
      <trkpt lat="45.82344" lon="4.61495">
        <ele>289</ele>
        <time>2020-10-09T09:21:06.909Z</time>
      </trkpt>
      <trkpt lat="45.82349" lon="4.61492">
        <ele>288.79998779297</ele>
        <time>2020-10-09T09:21:15.998Z</time>
      </trkpt>
      <trkpt lat="45.82352" lon="4.6149">
        <ele>288.79998779297</ele>
        <time>2020-10-09T09:21:25.089Z</time>
      </trkpt>
      <trkpt lat="45.8236" lon="4.61484">
        <ele>288.39999389648</ele>
        <time>2020-10-09T09:21:34.184Z</time>
      </trkpt>
      <trkpt lat="45.8237" lon="4.61477">
        <ele>288.20001220703</ele>
        <time>2020-10-09T09:21:43.283Z</time>
      </trkpt>
      <trkpt lat="45.82387" lon="4.61467">
        <ele>287</ele>
        <time>2020-10-09T09:21:52.390Z</time>
      </trkpt>
      <trkpt lat="45.82392" lon="4.61464">
        <ele>286.20001220703</ele>
        <time>2020-10-09T09:22:01.499Z</time>
      </trkpt>
      <trkpt lat="45.82397" lon="4.6146">
        <ele>285.60000610352</ele>
        <time>2020-10-09T09:22:10.611Z</time>
      </trkpt>
      <trkpt lat="45.82407" lon="4.61451">
        <ele>284.39999389648</ele>
        <time>2020-10-09T09:22:19.728Z</time>
      </trkpt>
      <trkpt lat="45.82413" lon="4.61446">
        <ele>283.79998779297</ele>
        <time>2020-10-09T09:22:28.848Z</time>
      </trkpt>
      <trkpt lat="45.82419" lon="4.61441">
        <ele>283.20001220703</ele>
        <time>2020-10-09T09:22:37.971Z</time>
      </trkpt>
      <trkpt lat="45.82432" lon="4.61429">
        <ele>282</ele>
        <time>2020-10-09T09:22:47.100Z</time>
      </trkpt>
      <trkpt lat="45.82443" lon="4.61419">
        <ele>280.60000610352</ele>
        <time>2020-10-09T09:22:56.235Z</time>
      </trkpt>
      <trkpt lat="45.82448" lon="4.61414">
        <ele>279.60000610352</ele>
        <time>2020-10-09T09:23:05.373Z</time>
      </trkpt>
      <trkpt lat="45.82452" lon="4.61411">
        <ele>278.39999389648</ele>
        <time>2020-10-09T09:23:14.513Z</time>
      </trkpt>
      <trkpt lat="45.82456" lon="4.61408">
        <ele>277</ele>
        <time>2020-10-09T09:23:23.654Z</time>
      </trkpt>
      <trkpt lat="45.8246" lon="4.61405">
        <ele>275.79998779297</ele>
        <time>2020-10-09T09:23:32.797Z</time>
      </trkpt>
      <trkpt lat="45.82464" lon="4.61402">
        <ele>274.60000610352</ele>
        <time>2020-10-09T09:23:41.942Z</time>
      </trkpt>
      <trkpt lat="45.82467" lon="4.61399">
        <ele>273.60000610352</ele>
        <time>2020-10-09T09:23:51.089Z</time>
      </trkpt>
      <trkpt lat="45.82471" lon="4.61396">
        <ele>272.39999389648</ele>
        <time>2020-10-09T09:24:00.238Z</time>
      </trkpt>
      <trkpt lat="45.82475" lon="4.61392">
        <ele>271.39999389648</ele>
        <time>2020-10-09T09:24:09.389Z</time>
      </trkpt>
      <trkpt lat="45.82478" lon="4.61388">
        <ele>270.39999389648</ele>
        <time>2020-10-09T09:24:18.542Z</time>
      </trkpt>
      <trkpt lat="45.82481" lon="4.61383">
        <ele>269.60000610352</ele>
        <time>2020-10-09T09:24:27.697Z</time>
      </trkpt>
      <trkpt lat="45.82484" lon="4.61378">
        <ele>268.79998779297</ele>
        <time>2020-10-09T09:24:36.854Z</time>
      </trkpt>
      <trkpt lat="45.82489" lon="4.61367">
        <ele>267</ele>
        <time>2020-10-09T09:24:46.015Z</time>
      </trkpt>
      <trkpt lat="45.82494" lon="4.61355">
        <ele>266</ele>
        <time>2020-10-09T09:24:55.180Z</time>
      </trkpt>
      <trkpt lat="45.82496" lon="4.61348">
        <ele>265.39999389648</ele>
        <time>2020-10-09T09:25:04.347Z</time>
      </trkpt>
      <trkpt lat="45.825" lon="4.61335">
        <ele>264.60000610352</ele>
        <time>2020-10-09T09:25:13.518Z</time>
      </trkpt>
      <trkpt lat="45.82502" lon="4.61328">
        <ele>264</ele>
        <time>2020-10-09T09:25:22.691Z</time>
      </trkpt>
      <trkpt lat="45.82506" lon="4.61313">
        <ele>263</ele>
        <time>2020-10-09T09:25:31.869Z</time>
      </trkpt>
      <trkpt lat="45.82508" lon="4.61305">
        <ele>262.60000610352</ele>
        <time>2020-10-09T09:25:41.050Z</time>
      </trkpt>
      <trkpt lat="45.82509" lon="4.61297">
        <ele>262</ele>
        <time>2020-10-09T09:25:50.233Z</time>
      </trkpt>
      <trkpt lat="45.8251" lon="4.61282">
        <ele>261</ele>
        <time>2020-10-09T09:25:59.421Z</time>
      </trkpt>
      <trkpt lat="45.8251" lon="4.61275">
        <ele>260.20001220703</ele>
        <time>2020-10-09T09:26:08.611Z</time>
      </trkpt>
      <trkpt lat="45.8251" lon="4.61267">
        <ele>259.39999389648</ele>
        <time>2020-10-09T09:26:17.803Z</time>
      </trkpt>
      <trkpt lat="45.82509" lon="4.6126">
        <ele>258.60000610352</ele>
        <time>2020-10-09T09:26:26.997Z</time>
      </trkpt>
      <trkpt lat="45.82509" lon="4.61253">
        <ele>258</ele>
        <time>2020-10-09T09:26:36.193Z</time>
      </trkpt>
      <trkpt lat="45.82509" lon="4.61231">
        <ele>256.60000610352</ele>
        <time>2020-10-09T09:26:45.396Z</time>
      </trkpt>
      <trkpt lat="45.82509" lon="4.61218">
        <ele>255.60000610352</ele>
        <time>2020-10-09T09:26:54.603Z</time>
      </trkpt>
      <trkpt lat="45.82511" lon="4.61207">
        <ele>254.39999389648</ele>
        <time>2020-10-09T09:27:03.813Z</time>
      </trkpt>
      <trkpt lat="45.82514" lon="4.61204">
        <ele>253.60000610352</ele>
        <time>2020-10-09T09:27:13.025Z</time>
      </trkpt>
      <trkpt lat="45.82518" lon="4.61203">
        <ele>252.80000305176</ele>
        <time>2020-10-09T09:27:22.238Z</time>
      </trkpt>
      <trkpt lat="45.82527" lon="4.61205">
        <ele>251.60000610352</ele>
        <time>2020-10-09T09:27:31.455Z</time>
      </trkpt>
      <trkpt lat="45.82535" lon="4.61211">
        <ele>250.39999389648</ele>
        <time>2020-10-09T09:27:40.676Z</time>
      </trkpt>
      <trkpt lat="45.8255" lon="4.61225">
        <ele>249.39999389648</ele>
        <time>2020-10-09T09:27:49.905Z</time>
      </trkpt>
      <trkpt lat="45.8256" lon="4.61234">
        <ele>248.80000305176</ele>
        <time>2020-10-09T09:27:59.139Z</time>
      </trkpt>
      <trkpt lat="45.82567" lon="4.61241">
        <ele>248.60000610352</ele>
        <time>2020-10-09T09:28:08.376Z</time>
      </trkpt>
      <trkpt lat="45.82597" lon="4.61271">
        <ele>248.60000610352</ele>
        <time>2020-10-09T09:28:17.629Z</time>
      </trkpt>
      <trkpt lat="45.82618" lon="4.61291">
        <ele>248.60000610352</ele>
        <time>2020-10-09T09:28:26.893Z</time>
      </trkpt>
      <trkpt lat="45.82625" lon="4.61299">
        <ele>248.60000610352</ele>
        <time>2020-10-09T09:28:36.160Z</time>
      </trkpt>
      <trkpt lat="45.82644" lon="4.61318">
        <ele>248.39999389648</ele>
        <time>2020-10-09T09:28:45.437Z</time>
      </trkpt>
      <trkpt lat="45.82659" lon="4.61333">
        <ele>248.19999694824</ele>
        <time>2020-10-09T09:28:54.722Z</time>
      </trkpt>
      <trkpt lat="45.8267" lon="4.61345">
        <ele>248</ele>
        <time>2020-10-09T09:29:04.013Z</time>
      </trkpt>
      <trkpt lat="45.8268" lon="4.61367">
        <ele>247.80000305176</ele>
        <time>2020-10-09T09:29:13.312Z</time>
      </trkpt>
      <trkpt lat="45.82681" lon="4.61374">
        <ele>247.80000305176</ele>
        <time>2020-10-09T09:29:22.613Z</time>
      </trkpt>
      <trkpt lat="45.82682" lon="4.61379">
        <ele>247.80000305176</ele>
        <time>2020-10-09T09:29:31.916Z</time>
      </trkpt>
      <trkpt lat="45.82686" lon="4.61388">
        <ele>247.60000610352</ele>
        <time>2020-10-09T09:29:41.222Z</time>
      </trkpt>
      <trkpt lat="45.82688" lon="4.61394">
        <ele>247.19999694824</ele>
        <time>2020-10-09T09:29:50.530Z</time>
      </trkpt>
      <trkpt lat="45.82688" lon="4.61394">
        <ele>247.39999389648</ele>
        <time>2020-10-09T09:29:59.838Z</time>
      </trkpt>
      <trkpt lat="45.82688" lon="4.61393">
        <ele>247.39999389648</ele>
        <time>2020-10-09T09:30:09.146Z</time>
      </trkpt>
      <trkpt lat="45.82687" lon="4.61393">
        <ele>247.60000610352</ele>
        <time>2020-10-09T09:30:18.454Z</time>
      </trkpt>
      <trkpt lat="45.82687" lon="4.61393">
        <ele>247.60000610352</ele>
        <time>2020-10-09T09:30:27.762Z</time>
      </trkpt>
      <trkpt lat="45.82689" lon="4.61394">
        <ele>247.80000305176</ele>
        <time>2020-10-09T09:30:37.071Z</time>
      </trkpt>
      <trkpt lat="45.82692" lon="4.61394">
        <ele>247.80000305176</ele>
        <time>2020-10-09T09:30:46.381Z</time>
      </trkpt>
      <trkpt lat="45.82699" lon="4.61395">
        <ele>247.60000610352</ele>
        <time>2020-10-09T09:30:55.694Z</time>
      </trkpt>
      <trkpt lat="45.82703" lon="4.61391">
        <ele>247.60000610352</ele>
        <time>2020-10-09T09:31:05.009Z</time>
      </trkpt>
      <trkpt lat="45.82707" lon="4.61376">
        <ele>247.60000610352</ele>
        <time>2020-10-09T09:31:14.329Z</time>
      </trkpt>
      <trkpt lat="45.82711" lon="4.61351">
        <ele>247.60000610352</ele>
        <time>2020-10-09T09:31:23.656Z</time>
      </trkpt>
      <trkpt lat="45.82711" lon="4.61313">
        <ele>247.19999694824</ele>
        <time>2020-10-09T09:31:32.995Z</time>
      </trkpt>
      <trkpt lat="45.82709" lon="4.61299">
        <ele>247.19999694824</ele>
        <time>2020-10-09T09:31:42.338Z</time>
      </trkpt>
      <trkpt lat="45.82702" lon="4.61276">
        <ele>247</ele>
        <time>2020-10-09T09:31:51.688Z</time>
      </trkpt>
      <trkpt lat="45.82687" lon="4.61237">
        <ele>246.39999389648</ele>
        <time>2020-10-09T09:32:01.052Z</time>
      </trkpt>
      <trkpt lat="45.82684" lon="4.6123">
        <ele>246</ele>
        <time>2020-10-09T09:32:10.418Z</time>
      </trkpt>
      <trkpt lat="45.8268" lon="4.61217">
        <ele>245.19999694824</ele>
        <time>2020-10-09T09:32:19.789Z</time>
      </trkpt>
      <trkpt lat="45.8268" lon="4.61206">
        <ele>244.39999389648</ele>
        <time>2020-10-09T09:32:29.163Z</time>
      </trkpt>
      <trkpt lat="45.8268" lon="4.61203">
        <ele>244</ele>
        <time>2020-10-09T09:32:38.538Z</time>
      </trkpt>
      <trkpt lat="45.82681" lon="4.612">
        <ele>243</ele>
        <time>2020-10-09T09:32:47.914Z</time>
      </trkpt>
      <trkpt lat="45.82682" lon="4.612">
        <ele>242.39999389648</ele>
        <time>2020-10-09T09:32:57.290Z</time>
      </trkpt>
      <trkpt lat="45.82684" lon="4.61198">
        <ele>242.60000610352</ele>
        <time>2020-10-09T09:33:06.667Z</time>
      </trkpt>
      <trkpt lat="45.82695" lon="4.61195">
        <ele>242.39999389648</ele>
        <time>2020-10-09T09:33:16.049Z</time>
      </trkpt>
      <trkpt lat="45.82714" lon="4.61201">
        <ele>242.39999389648</ele>
        <time>2020-10-09T09:33:25.439Z</time>
      </trkpt>
      <trkpt lat="45.8272" lon="4.61206">
        <ele>241.80000305176</ele>
        <time>2020-10-09T09:33:34.832Z</time>
      </trkpt>
      <trkpt lat="45.82723" lon="4.61209">
        <ele>241.39999389648</ele>
        <time>2020-10-09T09:33:44.227Z</time>
      </trkpt>
      <trkpt lat="45.82734" lon="4.61219">
        <ele>241</ele>
        <time>2020-10-09T09:33:53.627Z</time>
      </trkpt>
      <trkpt lat="45.82737" lon="4.61223">
        <ele>240.80000305176</ele>
        <time>2020-10-09T09:34:03.029Z</time>
      </trkpt>
      <trkpt lat="45.82756" lon="4.61242">
        <ele>240.39999389648</ele>
        <time>2020-10-09T09:34:12.441Z</time>
      </trkpt>
      <trkpt lat="45.82766" lon="4.61253">
        <ele>239.80000305176</ele>
        <time>2020-10-09T09:34:21.858Z</time>
      </trkpt>
      <trkpt lat="45.82773" lon="4.61263">
        <ele>239.80000305176</ele>
        <time>2020-10-09T09:34:31.280Z</time>
      </trkpt>
      <trkpt lat="45.82787" lon="4.61286">
        <ele>239.60000610352</ele>
        <time>2020-10-09T09:34:40.711Z</time>
      </trkpt>
      <trkpt lat="45.8281" lon="4.61334">
        <ele>239.60000610352</ele>
        <time>2020-10-09T09:34:50.159Z</time>
      </trkpt>
      <trkpt lat="45.82828" lon="4.61375">
        <ele>239.39999389648</ele>
        <time>2020-10-09T09:34:59.621Z</time>
      </trkpt>
      <trkpt lat="45.82842" lon="4.61403">
        <ele>239.19999694824</ele>
        <time>2020-10-09T09:35:09.094Z</time>
      </trkpt>
      <trkpt lat="45.82853" lon="4.61422">
        <ele>239</ele>
        <time>2020-10-09T09:35:18.574Z</time>
      </trkpt>
      <trkpt lat="45.82875" lon="4.61458">
        <ele>238.80000305176</ele>
        <time>2020-10-09T09:35:28.068Z</time>
      </trkpt>
      <trkpt lat="45.82878" lon="4.61463">
        <ele>238.80000305176</ele>
        <time>2020-10-09T09:35:37.564Z</time>
      </trkpt>
      <trkpt lat="45.82906" lon="4.61505">
        <ele>238.19999694824</ele>
        <time>2020-10-09T09:35:47.077Z</time>
      </trkpt>
      <trkpt lat="45.8292" lon="4.61523">
        <ele>237.60000610352</ele>
        <time>2020-10-09T09:35:56.598Z</time>
      </trkpt>
      <trkpt lat="45.82933" lon="4.61542">
        <ele>237.60000610352</ele>
        <time>2020-10-09T09:36:06.127Z</time>
      </trkpt>
      <trkpt lat="45.82966" lon="4.61584">
        <ele>237</ele>
        <time>2020-10-09T09:36:15.675Z</time>
      </trkpt>
      <trkpt lat="45.82969" lon="4.61588">
        <ele>237</ele>
        <time>2020-10-09T09:36:25.225Z</time>
      </trkpt>
      <trkpt lat="45.82981" lon="4.61598">
        <ele>237</ele>
        <time>2020-10-09T09:36:34.781Z</time>
      </trkpt>
      <trkpt lat="45.82993" lon="4.61618">
        <ele>237</ele>
        <time>2020-10-09T09:36:44.345Z</time>
      </trkpt>
      <trkpt lat="45.8301" lon="4.61631">
        <ele>237.19999694824</ele>
        <time>2020-10-09T09:36:53.917Z</time>
      </trkpt>
      <trkpt lat="45.83035" lon="4.61642">
        <ele>237.19999694824</ele>
        <time>2020-10-09T09:37:03.500Z</time>
      </trkpt>
      <trkpt lat="45.83057" lon="4.61648">
        <ele>237.19999694824</ele>
        <time>2020-10-09T09:37:13.093Z</time>
      </trkpt>
      <trkpt lat="45.83067" lon="4.61648">
        <ele>237</ele>
        <time>2020-10-09T09:37:22.690Z</time>
      </trkpt>
      <trkpt lat="45.83072" lon="4.61648">
        <ele>237</ele>
        <time>2020-10-09T09:37:32.289Z</time>
      </trkpt>
      <trkpt lat="45.83102" lon="4.61649">
        <ele>236.80000305176</ele>
        <time>2020-10-09T09:37:41.901Z</time>
      </trkpt>
      <trkpt lat="45.83121" lon="4.61654">
        <ele>236.80000305176</ele>
        <time>2020-10-09T09:37:51.521Z</time>
      </trkpt>
      <trkpt lat="45.8313" lon="4.61658">
        <ele>236.80000305176</ele>
        <time>2020-10-09T09:38:01.145Z</time>
      </trkpt>
      <trkpt lat="45.83162" lon="4.6167">
        <ele>236.80000305176</ele>
        <time>2020-10-09T09:38:10.783Z</time>
      </trkpt>
      <trkpt lat="45.83189" lon="4.61679">
        <ele>237</ele>
        <time>2020-10-09T09:38:20.433Z</time>
      </trkpt>
      <trkpt lat="45.83226" lon="4.61692">
        <ele>237</ele>
        <time>2020-10-09T09:38:30.099Z</time>
      </trkpt>
      <trkpt lat="45.83259" lon="4.6171">
        <ele>236.80000305176</ele>
        <time>2020-10-09T09:38:39.780Z</time>
      </trkpt>
      <trkpt lat="45.83276" lon="4.61723">
        <ele>236.80000305176</ele>
        <time>2020-10-09T09:38:49.469Z</time>
      </trkpt>
      <trkpt lat="45.83296" lon="4.61735">
        <ele>236.80000305176</ele>
        <time>2020-10-09T09:38:59.167Z</time>
      </trkpt>
      <trkpt lat="45.83309" lon="4.61743">
        <ele>236.80000305176</ele>
        <time>2020-10-09T09:39:08.872Z</time>
      </trkpt>
      <trkpt lat="45.83315" lon="4.61738">
        <ele>237</ele>
        <time>2020-10-09T09:39:18.580Z</time>
      </trkpt>
      <trkpt lat="45.83318" lon="4.61737">
        <ele>237.19999694824</ele>
        <time>2020-10-09T09:39:28.289Z</time>
      </trkpt>
      <trkpt lat="45.83325" lon="4.61727">
        <ele>238.19999694824</ele>
        <time>2020-10-09T09:39:38.002Z</time>
      </trkpt>
      <trkpt lat="45.83334" lon="4.61715">
        <ele>238.60000610352</ele>
        <time>2020-10-09T09:39:47.720Z</time>
      </trkpt>
      <trkpt lat="45.83339" lon="4.61713">
        <ele>238.60000610352</ele>
        <time>2020-10-09T09:39:57.440Z</time>
      </trkpt>
      <trkpt lat="45.83345" lon="4.61714">
        <ele>238.60000610352</ele>
        <time>2020-10-09T09:40:07.163Z</time>
      </trkpt>
      <trkpt lat="45.83352" lon="4.6172">
        <ele>238.60000610352</ele>
        <time>2020-10-09T09:40:16.889Z</time>
      </trkpt>
      <trkpt lat="45.83373" lon="4.61729">
        <ele>237.80000305176</ele>
        <time>2020-10-09T09:40:26.625Z</time>
      </trkpt>
      <trkpt lat="45.83392" lon="4.61736">
        <ele>237.39999389648</ele>
        <time>2020-10-09T09:40:36.369Z</time>
      </trkpt>
      <trkpt lat="45.83418" lon="4.61755">
        <ele>236.80000305176</ele>
        <time>2020-10-09T09:40:46.125Z</time>
      </trkpt>
      <trkpt lat="45.83441" lon="4.61771">
        <ele>236.60000610352</ele>
        <time>2020-10-09T09:40:55.893Z</time>
      </trkpt>
      <trkpt lat="45.83446" lon="4.61774">
        <ele>236.60000610352</ele>
        <time>2020-10-09T09:41:05.663Z</time>
      </trkpt>
      <trkpt lat="45.8347" lon="4.61787">
        <ele>235.60000610352</ele>
        <time>2020-10-09T09:41:15.444Z</time>
      </trkpt>
      <trkpt lat="45.83478" lon="4.61792">
        <ele>235.39999389648</ele>
        <time>2020-10-09T09:41:25.229Z</time>
      </trkpt>
      <trkpt lat="45.8349" lon="4.61796">
        <ele>235.39999389648</ele>
        <time>2020-10-09T09:41:35.019Z</time>
      </trkpt>
      <trkpt lat="45.83495" lon="4.61799">
        <ele>235.39999389648</ele>
        <time>2020-10-09T09:41:44.811Z</time>
      </trkpt>
      <trkpt lat="45.83499" lon="4.61802">
        <ele>235.39999389648</ele>
        <time>2020-10-09T09:41:54.605Z</time>
      </trkpt>
      <trkpt lat="45.83516" lon="4.61811">
        <ele>235.80000305176</ele>
        <time>2020-10-09T09:42:04.407Z</time>
      </trkpt>
      <trkpt lat="45.83521" lon="4.61814">
        <ele>235.80000305176</ele>
        <time>2020-10-09T09:42:14.211Z</time>
      </trkpt>
      <trkpt lat="45.83528" lon="4.61819">
        <ele>235.80000305176</ele>
        <time>2020-10-09T09:42:24.018Z</time>
      </trkpt>
      <trkpt lat="45.83533" lon="4.61824">
        <ele>235.80000305176</ele>
        <time>2020-10-09T09:42:33.828Z</time>
      </trkpt>
      <trkpt lat="45.83535" lon="4.61825">
        <ele>235.80000305176</ele>
        <time>2020-10-09T09:42:43.639Z</time>
      </trkpt>
      <trkpt lat="45.83542" lon="4.61836">
        <ele>236.19999694824</ele>
        <time>2020-10-09T09:42:53.454Z</time>
      </trkpt>
      <trkpt lat="45.83542" lon="4.61842">
        <ele>236.60000610352</ele>
        <time>2020-10-09T09:43:03.271Z</time>
      </trkpt>
      <trkpt lat="45.83544" lon="4.61843">
        <ele>236.80000305176</ele>
        <time>2020-10-09T09:43:13.089Z</time>
      </trkpt>
      <trkpt lat="45.83544" lon="4.61844">
        <ele>237</ele>
        <time>2020-10-09T09:43:22.907Z</time>
      </trkpt>
      <trkpt lat="45.83548" lon="4.61845">
        <ele>237.19999694824</ele>
        <time>2020-10-09T09:43:32.726Z</time>
      </trkpt>
      <trkpt lat="45.83549" lon="4.61847">
        <ele>237.19999694824</ele>
        <time>2020-10-09T09:43:42.546Z</time>
      </trkpt>
      <trkpt lat="45.83559" lon="4.61863">
        <ele>237.39999389648</ele>
        <time>2020-10-09T09:43:52.373Z</time>
      </trkpt>
      <trkpt lat="45.83565" lon="4.61879">
        <ele>237.39999389648</ele>
        <time>2020-10-09T09:44:02.205Z</time>
      </trkpt>
      <trkpt lat="45.83572" lon="4.61897">
        <ele>237.39999389648</ele>
        <time>2020-10-09T09:44:12.043Z</time>
      </trkpt>
      <trkpt lat="45.83575" lon="4.61901">
        <ele>237.19999694824</ele>
        <time>2020-10-09T09:44:21.883Z</time>
      </trkpt>
      <trkpt lat="45.8358" lon="4.61899">
        <ele>237.19999694824</ele>
        <time>2020-10-09T09:44:31.725Z</time>
      </trkpt>
      <trkpt lat="45.83584" lon="4.61888">
        <ele>237.19999694824</ele>
        <time>2020-10-09T09:44:41.571Z</time>
      </trkpt>
      <trkpt lat="45.83582" lon="4.61881">
        <ele>237.19999694824</ele>
        <time>2020-10-09T09:44:51.419Z</time>
      </trkpt>
      <trkpt lat="45.83581" lon="4.6187">
        <ele>237.60000610352</ele>
        <time>2020-10-09T09:45:01.270Z</time>
      </trkpt>
      <trkpt lat="45.83581" lon="4.61866">
        <ele>237.80000305176</ele>
        <time>2020-10-09T09:45:11.122Z</time>
      </trkpt>
      <trkpt lat="45.83579" lon="4.61856">
        <ele>238.80000305176</ele>
        <time>2020-10-09T09:45:20.978Z</time>
      </trkpt>
      <trkpt lat="45.83579" lon="4.61852">
        <ele>239.39999389648</ele>
        <time>2020-10-09T09:45:30.835Z</time>
      </trkpt>
      <trkpt lat="45.83578" lon="4.61847">
        <ele>240</ele>
        <time>2020-10-09T09:45:40.693Z</time>
      </trkpt>
      <trkpt lat="45.83578" lon="4.61841">
        <ele>241.39999389648</ele>
        <time>2020-10-09T09:45:50.553Z</time>
      </trkpt>
      <trkpt lat="45.83578" lon="4.61839">
        <ele>241.80000305176</ele>
        <time>2020-10-09T09:46:00.414Z</time>
      </trkpt>
      <trkpt lat="45.83578" lon="4.61837">
        <ele>242.39999389648</ele>
        <time>2020-10-09T09:46:10.275Z</time>
      </trkpt>
      <trkpt lat="45.8358" lon="4.61836">
        <ele>242.80000305176</ele>
        <time>2020-10-09T09:46:20.137Z</time>
      </trkpt>
      <trkpt lat="45.83584" lon="4.61834">
        <ele>243.80000305176</ele>
        <time>2020-10-09T09:46:30.001Z</time>
      </trkpt>
      <trkpt lat="45.83586" lon="4.61833">
        <ele>244.19999694824</ele>
        <time>2020-10-09T09:46:39.866Z</time>
      </trkpt>
      <trkpt lat="45.83588" lon="4.61831">
        <ele>244.60000610352</ele>
        <time>2020-10-09T09:46:49.732Z</time>
      </trkpt>
      <trkpt lat="45.83592" lon="4.6183">
        <ele>245.60000610352</ele>
        <time>2020-10-09T09:46:59.600Z</time>
      </trkpt>
      <trkpt lat="45.83594" lon="4.61831">
        <ele>245.80000305176</ele>
        <time>2020-10-09T09:47:09.468Z</time>
      </trkpt>
      <trkpt lat="45.83595" lon="4.61832">
        <ele>246.19999694824</ele>
        <time>2020-10-09T09:47:19.337Z</time>
      </trkpt>
      <trkpt lat="45.83597" lon="4.61834">
        <ele>246.60000610352</ele>
        <time>2020-10-09T09:47:29.207Z</time>
      </trkpt>
      <trkpt lat="45.83597" lon="4.61835">
        <ele>247</ele>
        <time>2020-10-09T09:47:39.077Z</time>
      </trkpt>
      <trkpt lat="45.836" lon="4.61836">
        <ele>248</ele>
        <time>2020-10-09T09:47:48.948Z</time>
      </trkpt>
      <trkpt lat="45.83606" lon="4.61836">
        <ele>248.80000305176</ele>
        <time>2020-10-09T09:47:58.822Z</time>
      </trkpt>
      <trkpt lat="45.83608" lon="4.61835">
        <ele>248.80000305176</ele>
        <time>2020-10-09T09:48:08.697Z</time>
      </trkpt>
      <trkpt lat="45.8361" lon="4.61834">
        <ele>249</ele>
        <time>2020-10-09T09:48:18.573Z</time>
      </trkpt>
      <trkpt lat="45.83612" lon="4.61832">
        <ele>249</ele>
        <time>2020-10-09T09:48:28.450Z</time>
      </trkpt>
      <trkpt lat="45.83617" lon="4.61832">
        <ele>249</ele>
        <time>2020-10-09T09:48:38.329Z</time>
      </trkpt>
      <trkpt lat="45.83619" lon="4.61834">
        <ele>249</ele>
        <time>2020-10-09T09:48:48.209Z</time>
      </trkpt>
      <trkpt lat="45.83627" lon="4.61834">
        <ele>249</ele>
        <time>2020-10-09T09:48:58.092Z</time>
      </trkpt>
      <trkpt lat="45.83623" lon="4.61823">
        <ele>248.60000610352</ele>
        <time>2020-10-09T09:49:07.979Z</time>
      </trkpt>
      <trkpt lat="45.8362" lon="4.61812">
        <ele>248</ele>
        <time>2020-10-09T09:49:17.869Z</time>
      </trkpt>
      <trkpt lat="45.83617" lon="4.61806">
        <ele>247</ele>
        <time>2020-10-09T09:49:27.762Z</time>
      </trkpt>
      <trkpt lat="45.83615" lon="4.61802">
        <ele>246.60000610352</ele>
        <time>2020-10-09T09:49:37.656Z</time>
      </trkpt>
      <trkpt lat="45.83616" lon="4.61792">
        <ele>245.39999389648</ele>
        <time>2020-10-09T09:49:47.553Z</time>
      </trkpt>
      <trkpt lat="45.83625" lon="4.61789">
        <ele>244.19999694824</ele>
        <time>2020-10-09T09:49:57.454Z</time>
      </trkpt>
      <trkpt lat="45.83636" lon="4.61796">
        <ele>242.80000305176</ele>
        <time>2020-10-09T09:50:07.360Z</time>
      </trkpt>
      <trkpt lat="45.8364" lon="4.61806">
        <ele>241.80000305176</ele>
        <time>2020-10-09T09:50:17.269Z</time>
      </trkpt>
      <trkpt lat="45.83645" lon="4.61815">
        <ele>240</ele>
        <time>2020-10-09T09:50:27.182Z</time>
      </trkpt>
      <trkpt lat="45.83648" lon="4.6182">
        <ele>239.19999694824</ele>
        <time>2020-10-09T09:50:37.097Z</time>
      </trkpt>
      <trkpt lat="45.83651" lon="4.61823">
        <ele>238.60000610352</ele>
        <time>2020-10-09T09:50:47.013Z</time>
      </trkpt>
      <trkpt lat="45.83661" lon="4.61828">
        <ele>237.39999389648</ele>
        <time>2020-10-09T09:50:56.934Z</time>
      </trkpt>
      <trkpt lat="45.83679" lon="4.61828">
        <ele>237</ele>
        <time>2020-10-09T09:51:06.862Z</time>
      </trkpt>
      <trkpt lat="45.83691" lon="4.6182">
        <ele>236.80000305176</ele>
        <time>2020-10-09T09:51:16.796Z</time>
      </trkpt>
      <trkpt lat="45.83695" lon="4.61816">
        <ele>236.80000305176</ele>
        <time>2020-10-09T09:51:26.732Z</time>
      </trkpt>
      <trkpt lat="45.83706" lon="4.61805">
        <ele>236.80000305176</ele>
        <time>2020-10-09T09:51:36.674Z</time>
      </trkpt>
      <trkpt lat="45.83713" lon="4.61798">
        <ele>236.80000305176</ele>
        <time>2020-10-09T09:51:46.620Z</time>
      </trkpt>
      <trkpt lat="45.83716" lon="4.61794">
        <ele>236.60000610352</ele>
        <time>2020-10-09T09:51:56.567Z</time>
      </trkpt>
      <trkpt lat="45.83732" lon="4.61781">
        <ele>236.60000610352</ele>
        <time>2020-10-09T09:52:06.522Z</time>
      </trkpt>
      <trkpt lat="45.8375" lon="4.61777">
        <ele>237.39999389648</ele>
        <time>2020-10-09T09:52:16.485Z</time>
      </trkpt>
      <trkpt lat="45.8376" lon="4.61771">
        <ele>238.60000610352</ele>
        <time>2020-10-09T09:52:26.452Z</time>
      </trkpt>
      <trkpt lat="45.83762" lon="4.61769">
        <ele>238.80000305176</ele>
        <time>2020-10-09T09:52:36.421Z</time>
      </trkpt>
      <trkpt lat="45.83769" lon="4.61765">
        <ele>239.39999389648</ele>
        <time>2020-10-09T09:52:46.393Z</time>
      </trkpt>
      <trkpt lat="45.83774" lon="4.61763">
        <ele>240.80000305176</ele>
        <time>2020-10-09T09:52:56.367Z</time>
      </trkpt>
      <trkpt lat="45.83782" lon="4.61761">
        <ele>242</ele>
        <time>2020-10-09T09:53:06.344Z</time>
      </trkpt>
      <trkpt lat="45.83791" lon="4.61754">
        <ele>243.39999389648</ele>
        <time>2020-10-09T09:53:16.326Z</time>
      </trkpt>
      <trkpt lat="45.83795" lon="4.61753">
        <ele>243.80000305176</ele>
        <time>2020-10-09T09:53:26.309Z</time>
      </trkpt>
      <trkpt lat="45.83797" lon="4.61755">
        <ele>244.19999694824</ele>
        <time>2020-10-09T09:53:36.293Z</time>
      </trkpt>
      <trkpt lat="45.83797" lon="4.61759">
        <ele>244.39999389648</ele>
        <time>2020-10-09T09:53:46.278Z</time>
      </trkpt>
      <trkpt lat="45.83794" lon="4.61768">
        <ele>245.39999389648</ele>
        <time>2020-10-09T09:53:56.267Z</time>
      </trkpt>
      <trkpt lat="45.83792" lon="4.61772">
        <ele>245.80000305176</ele>
        <time>2020-10-09T09:54:06.257Z</time>
      </trkpt>
      <trkpt lat="45.83786" lon="4.61782">
        <ele>247</ele>
        <time>2020-10-09T09:54:16.251Z</time>
      </trkpt>
      <trkpt lat="45.83783" lon="4.61789">
        <ele>247.19999694824</ele>
        <time>2020-10-09T09:54:26.248Z</time>
      </trkpt>
      <trkpt lat="45.83778" lon="4.61814">
        <ele>247.60000610352</ele>
        <time>2020-10-09T09:54:36.252Z</time>
      </trkpt>
      <trkpt lat="45.83779" lon="4.6183">
        <ele>248</ele>
        <time>2020-10-09T09:54:46.261Z</time>
      </trkpt>
      <trkpt lat="45.83781" lon="4.61846">
        <ele>248.19999694824</ele>
        <time>2020-10-09T09:54:56.275Z</time>
      </trkpt>
      <trkpt lat="45.8379" lon="4.61866">
        <ele>249</ele>
        <time>2020-10-09T09:55:06.296Z</time>
      </trkpt>
      <trkpt lat="45.83794" lon="4.61874">
        <ele>249.19999694824</ele>
        <time>2020-10-09T09:55:16.320Z</time>
      </trkpt>
      <trkpt lat="45.83801" lon="4.61894">
        <ele>250.39999389648</ele>
        <time>2020-10-09T09:55:26.350Z</time>
      </trkpt>
      <trkpt lat="45.83802" lon="4.61898">
        <ele>251</ele>
        <time>2020-10-09T09:55:36.382Z</time>
      </trkpt>
      <trkpt lat="45.83802" lon="4.61903">
        <ele>251.60000610352</ele>
        <time>2020-10-09T09:55:46.415Z</time>
      </trkpt>
      <trkpt lat="45.83803" lon="4.61916">
        <ele>253</ele>
        <time>2020-10-09T09:55:56.452Z</time>
      </trkpt>
      <trkpt lat="45.83805" lon="4.6193">
        <ele>254.39999389648</ele>
        <time>2020-10-09T09:56:06.493Z</time>
      </trkpt>
      <trkpt lat="45.83806" lon="4.61937">
        <ele>255.39999389648</ele>
        <time>2020-10-09T09:56:16.537Z</time>
      </trkpt>
      <trkpt lat="45.83807" lon="4.61941">
        <ele>256.39999389648</ele>
        <time>2020-10-09T09:56:26.582Z</time>
      </trkpt>
      <trkpt lat="45.83811" lon="4.61951">
        <ele>257.79998779297</ele>
        <time>2020-10-09T09:56:36.630Z</time>
      </trkpt>
      <trkpt lat="45.83814" lon="4.61959">
        <ele>258.79998779297</ele>
        <time>2020-10-09T09:56:46.681Z</time>
      </trkpt>
      <trkpt lat="45.83819" lon="4.61969">
        <ele>260.20001220703</ele>
        <time>2020-10-09T09:56:56.736Z</time>
      </trkpt>
      <trkpt lat="45.83825" lon="4.61979">
        <ele>261.60000610352</ele>
        <time>2020-10-09T09:57:06.794Z</time>
      </trkpt>
      <trkpt lat="45.83832" lon="4.61987">
        <ele>263.20001220703</ele>
        <time>2020-10-09T09:57:16.856Z</time>
      </trkpt>
      <trkpt lat="45.83837" lon="4.61992">
        <ele>264.39999389648</ele>
        <time>2020-10-09T09:57:26.921Z</time>
      </trkpt>
      <trkpt lat="45.83839" lon="4.61994">
        <ele>264.79998779297</ele>
        <time>2020-10-09T09:57:36.987Z</time>
      </trkpt>
      <trkpt lat="45.83842" lon="4.61996">
        <ele>265.39999389648</ele>
        <time>2020-10-09T09:57:47.054Z</time>
      </trkpt>
      <trkpt lat="45.83851" lon="4.62">
        <ele>266.60000610352</ele>
        <time>2020-10-09T09:57:57.125Z</time>
      </trkpt>
      <trkpt lat="45.8386" lon="4.62002">
        <ele>268</ele>
        <time>2020-10-09T09:58:07.200Z</time>
      </trkpt>
      <trkpt lat="45.83873" lon="4.62006">
        <ele>269.60000610352</ele>
        <time>2020-10-09T09:58:17.281Z</time>
      </trkpt>
      <trkpt lat="45.83879" lon="4.62009">
        <ele>270.20001220703</ele>
        <time>2020-10-09T09:58:27.365Z</time>
      </trkpt>
      <trkpt lat="45.83889" lon="4.62011">
        <ele>270.79998779297</ele>
        <time>2020-10-09T09:58:37.453Z</time>
      </trkpt>
      <trkpt lat="45.83905" lon="4.62016">
        <ele>271.20001220703</ele>
        <time>2020-10-09T09:58:47.548Z</time>
      </trkpt>
      <trkpt lat="45.83916" lon="4.6202">
        <ele>271.79998779297</ele>
        <time>2020-10-09T09:58:57.648Z</time>
      </trkpt>
      <trkpt lat="45.83931" lon="4.62023">
        <ele>272.60000610352</ele>
        <time>2020-10-09T09:59:07.754Z</time>
      </trkpt>
      <trkpt lat="45.83958" lon="4.6203">
        <ele>272.60000610352</ele>
        <time>2020-10-09T09:59:17.872Z</time>
      </trkpt>
      <trkpt lat="45.83973" lon="4.62034">
        <ele>272.79998779297</ele>
        <time>2020-10-09T09:59:27.996Z</time>
      </trkpt>
      <trkpt lat="45.83978" lon="4.62035">
        <ele>272.79998779297</ele>
        <time>2020-10-09T09:59:38.122Z</time>
      </trkpt>
      <trkpt lat="45.84015" lon="4.62043">
        <ele>272.39999389648</ele>
        <time>2020-10-09T09:59:48.264Z</time>
      </trkpt>
      <trkpt lat="45.8402" lon="4.62044">
        <ele>272.39999389648</ele>
        <time>2020-10-09T09:59:58.409Z</time>
      </trkpt>
      <trkpt lat="45.84037" lon="4.62039">
        <ele>272.20001220703</ele>
        <time>2020-10-09T10:00:08.561Z</time>
      </trkpt>
      <trkpt lat="45.84059" lon="4.62027">
        <ele>271</ele>
        <time>2020-10-09T10:00:18.723Z</time>
      </trkpt>
      <trkpt lat="45.84076" lon="4.6202">
        <ele>270.79998779297</ele>
        <time>2020-10-09T10:00:28.893Z</time>
      </trkpt>
      <trkpt lat="45.84092" lon="4.62013">
        <ele>270.39999389648</ele>
        <time>2020-10-09T10:00:39.070Z</time>
      </trkpt>
      <trkpt lat="45.84096" lon="4.62009">
        <ele>270.39999389648</ele>
        <time>2020-10-09T10:00:49.249Z</time>
      </trkpt>
      <trkpt lat="45.84104" lon="4.61996">
        <ele>270.39999389648</ele>
        <time>2020-10-09T10:00:59.433Z</time>
      </trkpt>
      <trkpt lat="45.84112" lon="4.6199">
        <ele>270.39999389648</ele>
        <time>2020-10-09T10:01:09.620Z</time>
      </trkpt>
      <trkpt lat="45.84128" lon="4.61985">
        <ele>271</ele>
        <time>2020-10-09T10:01:19.815Z</time>
      </trkpt>
      <trkpt lat="45.84132" lon="4.61984">
        <ele>271.60000610352</ele>
        <time>2020-10-09T10:01:30.011Z</time>
      </trkpt>
      <trkpt lat="45.84136" lon="4.61981">
        <ele>272</ele>
        <time>2020-10-09T10:01:40.209Z</time>
      </trkpt>
      <trkpt lat="45.8414" lon="4.61978">
        <ele>272.39999389648</ele>
        <time>2020-10-09T10:01:50.409Z</time>
      </trkpt>
      <trkpt lat="45.84146" lon="4.61969">
        <ele>273.20001220703</ele>
        <time>2020-10-09T10:02:00.613Z</time>
      </trkpt>
      <trkpt lat="45.84147" lon="4.61964">
        <ele>273.60000610352</ele>
        <time>2020-10-09T10:02:10.819Z</time>
      </trkpt>
      <trkpt lat="45.8415" lon="4.61953">
        <ele>274.39999389648</ele>
        <time>2020-10-09T10:02:21.028Z</time>
      </trkpt>
      <trkpt lat="45.84151" lon="4.61947">
        <ele>274.79998779297</ele>
        <time>2020-10-09T10:02:31.239Z</time>
      </trkpt>
      <trkpt lat="45.84155" lon="4.61937">
        <ele>275.60000610352</ele>
        <time>2020-10-09T10:02:41.453Z</time>
      </trkpt>
      <trkpt lat="45.84162" lon="4.61932">
        <ele>276</ele>
        <time>2020-10-09T10:02:51.670Z</time>
      </trkpt>
      <trkpt lat="45.84166" lon="4.61931">
        <ele>276.39999389648</ele>
        <time>2020-10-09T10:03:01.889Z</time>
      </trkpt>
      <trkpt lat="45.84173" lon="4.61932">
        <ele>277.20001220703</ele>
        <time>2020-10-09T10:03:12.111Z</time>
      </trkpt>
      <trkpt lat="45.84184" lon="4.61934">
        <ele>278</ele>
        <time>2020-10-09T10:03:22.338Z</time>
      </trkpt>
      <trkpt lat="45.84188" lon="4.61934">
        <ele>278.39999389648</ele>
        <time>2020-10-09T10:03:32.567Z</time>
      </trkpt>
      <trkpt lat="45.84198" lon="4.61926">
        <ele>279.60000610352</ele>
        <time>2020-10-09T10:03:42.800Z</time>
      </trkpt>
      <trkpt lat="45.84203" lon="4.61907">
        <ele>280.60000610352</ele>
        <time>2020-10-09T10:03:53.039Z</time>
      </trkpt>
      <trkpt lat="45.84206" lon="4.61875">
        <ele>281.60000610352</ele>
        <time>2020-10-09T10:04:03.288Z</time>
      </trkpt>
      <trkpt lat="45.84208" lon="4.61864">
        <ele>282</ele>
        <time>2020-10-09T10:04:13.540Z</time>
      </trkpt>
      <trkpt lat="45.84209" lon="4.61859">
        <ele>282.20001220703</ele>
        <time>2020-10-09T10:04:23.794Z</time>
      </trkpt>
      <trkpt lat="45.84217" lon="4.61847">
        <ele>282.60000610352</ele>
        <time>2020-10-09T10:04:34.053Z</time>
      </trkpt>
      <trkpt lat="45.84229" lon="4.61846">
        <ele>283.39999389648</ele>
        <time>2020-10-09T10:04:44.317Z</time>
      </trkpt>
      <trkpt lat="45.84233" lon="4.61847">
        <ele>283.60000610352</ele>
        <time>2020-10-09T10:04:54.583Z</time>
      </trkpt>
      <trkpt lat="45.84241" lon="4.61849">
        <ele>283.79998779297</ele>
        <time>2020-10-09T10:05:04.852Z</time>
      </trkpt>
      <trkpt lat="45.84256" lon="4.61851">
        <ele>284.79998779297</ele>
        <time>2020-10-09T10:05:15.128Z</time>
      </trkpt>
      <trkpt lat="45.84259" lon="4.61849">
        <ele>285</ele>
        <time>2020-10-09T10:05:25.405Z</time>
      </trkpt>
      <trkpt lat="45.84263" lon="4.61835">
        <ele>285.39999389648</ele>
        <time>2020-10-09T10:05:35.687Z</time>
      </trkpt>
      <trkpt lat="45.84262" lon="4.61823">
        <ele>286</ele>
        <time>2020-10-09T10:05:45.972Z</time>
      </trkpt>
      <trkpt lat="45.8426" lon="4.61813">
        <ele>286.20001220703</ele>
        <time>2020-10-09T10:05:56.260Z</time>
      </trkpt>
      <trkpt lat="45.84259" lon="4.61804">
        <ele>286.60000610352</ele>
        <time>2020-10-09T10:06:06.551Z</time>
      </trkpt>
      <trkpt lat="45.84259" lon="4.61793">
        <ele>287</ele>
        <time>2020-10-09T10:06:16.845Z</time>
      </trkpt>
      <trkpt lat="45.84259" lon="4.6178">
        <ele>287.20001220703</ele>
        <time>2020-10-09T10:06:27.143Z</time>
      </trkpt>
      <trkpt lat="45.84259" lon="4.61756">
        <ele>288.39999389648</ele>
        <time>2020-10-09T10:06:37.448Z</time>
      </trkpt>
      <trkpt lat="45.84262" lon="4.61727">
        <ele>288.79998779297</ele>
        <time>2020-10-09T10:06:47.762Z</time>
      </trkpt>
      <trkpt lat="45.84272" lon="4.61718">
        <ele>289.20001220703</ele>
        <time>2020-10-09T10:06:58.081Z</time>
      </trkpt>
      <trkpt lat="45.84276" lon="4.61718">
        <ele>289.39999389648</ele>
        <time>2020-10-09T10:07:08.402Z</time>
      </trkpt>
      <trkpt lat="45.8428" lon="4.61718">
        <ele>289.39999389648</ele>
        <time>2020-10-09T10:07:18.725Z</time>
      </trkpt>
      <trkpt lat="45.84289" lon="4.61721">
        <ele>289.79998779297</ele>
        <time>2020-10-09T10:07:29.051Z</time>
      </trkpt>
      <trkpt lat="45.84292" lon="4.61724">
        <ele>290.60000610352</ele>
        <time>2020-10-09T10:07:39.379Z</time>
      </trkpt>
      <trkpt lat="45.843" lon="4.61726">
        <ele>290.79998779297</ele>
        <time>2020-10-09T10:07:49.711Z</time>
      </trkpt>
      <trkpt lat="45.8432" lon="4.61713">
        <ele>291.60000610352</ele>
        <time>2020-10-09T10:08:00.052Z</time>
      </trkpt>
      <trkpt lat="45.84347" lon="4.61693">
        <ele>292.79998779297</ele>
        <time>2020-10-09T10:08:10.406Z</time>
      </trkpt>
      <trkpt lat="45.8435" lon="4.61691">
        <ele>293</ele>
        <time>2020-10-09T10:08:20.761Z</time>
      </trkpt>
      <trkpt lat="45.84363" lon="4.6168">
        <ele>293.79998779297</ele>
        <time>2020-10-09T10:08:31.123Z</time>
      </trkpt>
      <trkpt lat="45.84369" lon="4.61673">
        <ele>294.20001220703</ele>
        <time>2020-10-09T10:08:41.488Z</time>
      </trkpt>
      <trkpt lat="45.84382" lon="4.61661">
        <ele>295.39999389648</ele>
        <time>2020-10-09T10:08:51.860Z</time>
      </trkpt>
      <trkpt lat="45.84392" lon="4.61653">
        <ele>296.20001220703</ele>
        <time>2020-10-09T10:09:02.237Z</time>
      </trkpt>
      <trkpt lat="45.84395" lon="4.6165">
        <ele>296.60000610352</ele>
        <time>2020-10-09T10:09:12.615Z</time>
      </trkpt>
      <trkpt lat="45.84408" lon="4.61636">
        <ele>297.79998779297</ele>
        <time>2020-10-09T10:09:23.000Z</time>
      </trkpt>
      <trkpt lat="45.84414" lon="4.61629">
        <ele>298.39999389648</ele>
        <time>2020-10-09T10:09:33.388Z</time>
      </trkpt>
      <trkpt lat="45.84421" lon="4.61623">
        <ele>299</ele>
        <time>2020-10-09T10:09:43.780Z</time>
      </trkpt>
      <trkpt lat="45.84438" lon="4.61608">
        <ele>300.20001220703</ele>
        <time>2020-10-09T10:09:54.180Z</time>
      </trkpt>
      <trkpt lat="45.84441" lon="4.61605">
        <ele>300.39999389648</ele>
        <time>2020-10-09T10:10:04.582Z</time>
      </trkpt>
      <trkpt lat="45.84458" lon="4.61579">
        <ele>301.20001220703</ele>
        <time>2020-10-09T10:10:14.995Z</time>
      </trkpt>
      <trkpt lat="45.84461" lon="4.61574">
        <ele>301.20001220703</ele>
        <time>2020-10-09T10:10:25.409Z</time>
      </trkpt>
      <trkpt lat="45.84476" lon="4.61542">
        <ele>302.39999389648</ele>
        <time>2020-10-09T10:10:35.835Z</time>
      </trkpt>
      <trkpt lat="45.84483" lon="4.61526">
        <ele>302.79998779297</ele>
        <time>2020-10-09T10:10:46.267Z</time>
      </trkpt>
      <trkpt lat="45.84494" lon="4.61504">
        <ele>303.39999389648</ele>
        <time>2020-10-09T10:10:56.707Z</time>
      </trkpt>
      <trkpt lat="45.84504" lon="4.6148">
        <ele>303.79998779297</ele>
        <time>2020-10-09T10:11:07.155Z</time>
      </trkpt>
      <trkpt lat="45.84524" lon="4.61437">
        <ele>304</ele>
        <time>2020-10-09T10:11:17.619Z</time>
      </trkpt>
      <trkpt lat="45.84532" lon="4.61428">
        <ele>304.20001220703</ele>
        <time>2020-10-09T10:11:28.087Z</time>
      </trkpt>
      <trkpt lat="45.84547" lon="4.6142">
        <ele>304.20001220703</ele>
        <time>2020-10-09T10:11:38.562Z</time>
      </trkpt>
      <trkpt lat="45.84558" lon="4.61417">
        <ele>304.39999389648</ele>
        <time>2020-10-09T10:11:49.041Z</time>
      </trkpt>
      <trkpt lat="45.84568" lon="4.61414">
        <ele>304.39999389648</ele>
        <time>2020-10-09T10:11:59.524Z</time>
      </trkpt>
      <trkpt lat="45.84573" lon="4.61413">
        <ele>304.39999389648</ele>
        <time>2020-10-09T10:12:10.010Z</time>
      </trkpt>
      <trkpt lat="45.84588" lon="4.61414">
        <ele>304.39999389648</ele>
        <time>2020-10-09T10:12:20.502Z</time>
      </trkpt>
      <trkpt lat="45.84624" lon="4.61412">
        <ele>304.39999389648</ele>
        <time>2020-10-09T10:12:31.009Z</time>
      </trkpt>
      <trkpt lat="45.84674" lon="4.61412">
        <ele>304.20001220703</ele>
        <time>2020-10-09T10:12:41.538Z</time>
      </trkpt>
      <trkpt lat="45.84719" lon="4.61411">
        <ele>303.79998779297</ele>
        <time>2020-10-09T10:12:52.086Z</time>
      </trkpt>
      <trkpt lat="45.84742" lon="4.6141">
        <ele>303.60000610352</ele>
        <time>2020-10-09T10:13:02.644Z</time>
      </trkpt>
      <trkpt lat="45.8477" lon="4.6141">
        <ele>303.20001220703</ele>
        <time>2020-10-09T10:13:13.214Z</time>
      </trkpt>
      <trkpt lat="45.84815" lon="4.61412">
        <ele>302.79998779297</ele>
        <time>2020-10-09T10:13:23.803Z</time>
      </trkpt>
      <trkpt lat="45.84831" lon="4.61414">
        <ele>302.60000610352</ele>
        <time>2020-10-09T10:13:34.399Z</time>
      </trkpt>
      <trkpt lat="45.84852" lon="4.61419">
        <ele>302</ele>
        <time>2020-10-09T10:13:45.004Z</time>
      </trkpt>
      <trkpt lat="45.84873" lon="4.61427">
        <ele>301.60000610352</ele>
        <time>2020-10-09T10:13:55.618Z</time>
      </trkpt>
      <trkpt lat="45.84891" lon="4.61433">
        <ele>301.39999389648</ele>
        <time>2020-10-09T10:14:06.240Z</time>
      </trkpt>
      <trkpt lat="45.84919" lon="4.6144">
        <ele>301.39999389648</ele>
        <time>2020-10-09T10:14:16.874Z</time>
      </trkpt>
      <trkpt lat="45.84947" lon="4.61446">
        <ele>301.39999389648</ele>
        <time>2020-10-09T10:14:27.520Z</time>
      </trkpt>
      <trkpt lat="45.84967" lon="4.61451">
        <ele>301.20001220703</ele>
        <time>2020-10-09T10:14:38.175Z</time>
      </trkpt>
      <trkpt lat="45.84976" lon="4.61452">
        <ele>300.79998779297</ele>
        <time>2020-10-09T10:14:48.834Z</time>
      </trkpt>
      <trkpt lat="45.84977" lon="4.61452">
        <ele>300.79998779297</ele>
        <time>2020-10-09T10:14:59.493Z</time>
      </trkpt>
      <trkpt lat="45.84978" lon="4.61446">
        <ele>300.60000610352</ele>
        <time>2020-10-09T10:15:10.154Z</time>
      </trkpt>
      <trkpt lat="45.84977" lon="4.61435">
        <ele>300.39999389648</ele>
        <time>2020-10-09T10:15:20.818Z</time>
      </trkpt>
      <trkpt lat="45.84978" lon="4.6143">
        <ele>300.39999389648</ele>
        <time>2020-10-09T10:15:31.484Z</time>
      </trkpt>
      <trkpt lat="45.84981" lon="4.61396">
        <ele>300.20001220703</ele>
        <time>2020-10-09T10:15:42.160Z</time>
      </trkpt>
      <trkpt lat="45.84986" lon="4.61319">
        <ele>300</ele>
        <time>2020-10-09T10:15:52.859Z</time>
      </trkpt>
      <trkpt lat="45.84991" lon="4.61238">
        <ele>300.20001220703</ele>
        <time>2020-10-09T10:16:03.582Z</time>
      </trkpt>
      <trkpt lat="45.84991" lon="4.6123">
        <ele>300.20001220703</ele>
        <time>2020-10-09T10:16:14.308Z</time>
      </trkpt>
      <trkpt lat="45.84992" lon="4.61206">
        <ele>300.60000610352</ele>
        <time>2020-10-09T10:16:25.041Z</time>
      </trkpt>
      <trkpt lat="45.84992" lon="4.61176">
        <ele>300.79998779297</ele>
        <time>2020-10-09T10:16:35.783Z</time>
      </trkpt>
      <trkpt lat="45.84996" lon="4.61135">
        <ele>301.60000610352</ele>
        <time>2020-10-09T10:16:46.537Z</time>
      </trkpt>
      <trkpt lat="45.84998" lon="4.6113">
        <ele>301.60000610352</ele>
        <time>2020-10-09T10:16:57.293Z</time>
      </trkpt>
      <trkpt lat="45.85004" lon="4.61115">
        <ele>302</ele>
        <time>2020-10-09T10:17:08.054Z</time>
      </trkpt>
      <trkpt lat="45.85012" lon="4.61113">
        <ele>302.60000610352</ele>
        <time>2020-10-09T10:17:18.819Z</time>
      </trkpt>
      <trkpt lat="45.85015" lon="4.61112">
        <ele>302.79998779297</ele>
        <time>2020-10-09T10:17:29.585Z</time>
      </trkpt>
      <trkpt lat="45.85036" lon="4.61108">
        <ele>302.79998779297</ele>
        <time>2020-10-09T10:17:40.360Z</time>
      </trkpt>
      <trkpt lat="45.85061" lon="4.61103">
        <ele>302.60000610352</ele>
        <time>2020-10-09T10:17:51.146Z</time>
      </trkpt>
      <trkpt lat="45.85065" lon="4.61101">
        <ele>302.39999389648</ele>
        <time>2020-10-09T10:18:01.933Z</time>
      </trkpt>
      <trkpt lat="45.85069" lon="4.61087">
        <ele>302</ele>
        <time>2020-10-09T10:18:12.725Z</time>
      </trkpt>
      <trkpt lat="45.85068" lon="4.61074">
        <ele>301.79998779297</ele>
        <time>2020-10-09T10:18:23.521Z</time>
      </trkpt>
      <trkpt lat="45.85067" lon="4.61063">
        <ele>301.60000610352</ele>
        <time>2020-10-09T10:18:34.320Z</time>
      </trkpt>
      <trkpt lat="45.85068" lon="4.61055">
        <ele>301.39999389648</ele>
        <time>2020-10-09T10:18:45.121Z</time>
      </trkpt>
      <trkpt lat="45.85071" lon="4.61051">
        <ele>301</ele>
        <time>2020-10-09T10:18:55.924Z</time>
      </trkpt>
      <trkpt lat="45.85076" lon="4.6105">
        <ele>300.79998779297</ele>
        <time>2020-10-09T10:19:06.729Z</time>
      </trkpt>
      <trkpt lat="45.85081" lon="4.61054">
        <ele>300.60000610352</ele>
        <time>2020-10-09T10:19:17.537Z</time>
      </trkpt>
      <trkpt lat="45.85081" lon="4.61054">
        <ele>300.60000610352</ele>
        <time>2020-10-09T10:19:28.345Z</time>
      </trkpt>
      <trkpt lat="45.85081" lon="4.61054">
        <ele>300.79998779297</ele>
        <time>2020-10-09T10:19:39.153Z</time>
      </trkpt>
      <trkpt lat="45.85081" lon="4.61055">
        <ele>300.79998779297</ele>
        <time>2020-10-09T10:19:49.961Z</time>
      </trkpt>
    </trkseg>
  </trk>
</gpx>